[[{"header":{"parameterUnit":"m.s-1","parameterCategory":1,"la1":31.0,"la2":29.5877,"lo1":-88.7671,"lo2":-86.6584,"dy":0.0162,"dx":0.0185,"nx":115,"ny":88,"refTime":"2023-07-28T18:00:00:Z","depth":0,"parameterNumber":2,"parameterNumberName":"U-component_of_WINDS"},"data":[0.0,0.0,0.0,0.0,0.0,0.0,0.0,0.0,0.0,0.0,0.0,0.0,0.0,0.0,0.0,0.0,0.0,0.0,0.0,0.0,0.0,0.0,0.0,0.0,0.0,0.0,0.0,0.0,0.0,0.0,0.0,0.0,0.0,0.0,0.0,0.0,0.0,0.0,0.0,0.0,0.0,0.0,0.0,0.0,0.0,0.0,0.0,0.0,0.0,0.0,0.0,0.0,0.0,0.0,0.0,0.0,0.0,0.0,0.0,0.0,0.0,0.0,0.0,0.0,0.0,0.0,0.0,0.0,0.0,0.0,0.0,0.0,0.0,0.0,0.0,0.0,0.0,0.0,0.0,0.0,0.0,0.0,0.0,0.0,0.0,0.0,0.0,0.0,0.0,0.0,0.0,0.0,0.0,0.0,0.0,0.0,0.0,0.0,0.0,0.0,0.0,0.0,0.0,0.0,0.0,0.0,0.0,0.0,0.0,0.0,0.0,0.0,0.0,0.0,0.0,0.0,0.0,0.0,0.0,0.0,0.0,0.0,0.0,0.0,0.0,0.0,0.0,0.0,0.0,0.0,0.0,0.0,0.0,0.0,0.0,0.0,0.0,0.0,0.0,0.0,0.0,0.0,0.0,0.0,0.0,0.0,0.0,0.0,0.0,0.0,0.0,0.0,0.0,0.0,0.0,0.0,0.0,0.0,0.0,0.0,0.0,0.0,0.0,0.0,0.0,0.0,0.0,0.0,0.0,0.0,0.0,0.0,0.0,0.0,0.0,0.0,0.0,0.0,0.0,0.0,0.0,0.0,0.0,0.0,0.0,0.0,0.0,0.0,0.0,0.0,0.0,0.0,0.0,0.0,0.0,0.0,0.0,0.0,0.0,0.0,0.0,0.0,0.0,0.0,0.0,0.0,0.0,0.0,0.0,0.0,0.0,0.0,0.0,0.0,0.0,0.0,0.0,0.0,0.0,0.0,0.0,0.0,0.0,0.0,0.0,0.0,0.0,0.0,0.0,0.0,0.0,0.0,0.0,0.0,0.0,0.0,0.0,0.0,0.0,0.0,0.0,0.0,0.0,0.0,0.0,0.0,0.0,0.0,0.0,0.0,0.0,0.0,0.0,0.0,0.0,0.0,0.0,0.0,0.0,0.0,0.0,0.0,0.0,0.0,0.0,0.0,0.0,0.0,0.0,0.0,0.0,0.0,0.0,0.0,0.0,0.0,0.0,0.0,0.0,0.0,0.0,0.0,0.0,0.0,0.0,0.0,0.0,0.0,0.0,0.0,0.0,0.0,0.0,0.0,0.0,0.0,0.0,0.0,0.0,0.0,0.0,0.0,0.0,0.0,0.0,0.0,0.0,0.0,0.0,0.0,0.0,0.0,0.0,0.0,0.0,0.0,0.0,0.0,0.0,0.0,0.0,0.0,0.0,0.0,0.0,0.0,0.0,0.0,0.0,0.0,0.0,0.0,0.0,0.0,0.0,0.0,0.0,0.0,0.0,0.0,0.0,0.0,0.0,0.0,0.0,0.0,0.0,0.0,0.0,0.0,0.0,0.0,0.0,0.0,0.0,0.0,0.0,0.0,0.0,0.0,0.0,0.0,0.0,0.0,0.0,0.0,0.0,0.0,0.0,0.0,0.0,0.0,0.0,0.0,0.0,0.0,0.0,0.0,0.0,0.0,0.0,0.0,0.0,0.0,0.0,0.0,0.0,0.0,0.0,0.0,0.0,0.0,0.0,0.0,0.0,0.0,0.0,0.0,0.0,0.0,0.0,0.0,0.0,0.0,0.0,0.0,0.0,0.0,0.0,0.0,0.0,0.0,0.0,0.0,0.0,0.0,0.0,0.0,0.0,0.0,0.0,0.0,0.0,0.0,0.0,0.0,0.0,0.0,0.0,0.0,0.0,0.0,0.0,0.0,0.0,0.0,0.0,0.0,0.0,0.0,0.0,0.0,0.0,0.0,0.0,0.0,0.0,0.0,0.0,0.0,0.0,0.0,0.0,0.0,0.0,0.0,0.0,0.0,0.0,0.0,0.0,0.0,0.0,0.0,0.0,0.0,0.0,0.0,0.0,0.0,0.0,0.0,0.0,0.0,0.0,0.0,0.0,0.0,0.0,0.0,0.0,0.0,0.0,0.0,0.0,0.0,0.0,0.0,0.0,0.0,0.0,0.0,0.0,0.0,0.0,0.0,0.0,0.0,0.0,0.0,0.0,0.0,0.0,0.0,0.0,0.0,0.0,0.0,0.0,0.0,0.0,0.0,0.0,0.0,0.0,0.0,0.0,0.0,0.0,0.0,0.0,0.0,0.0,0.0,0.0,0.0,0.0,0.0,0.0,0.0,0.0,0.0,0.0,0.0,0.0,0.0,0.0,0.0,0.0,0.0,0.0,0.0,0.0,0.0,0.0,0.0,0.0,0.0,0.0,0.0,0.0,0.0,0.0,0.0,0.0,0.0,0.0,0.0,0.0,0.0,0.0,0.0,0.0,0.0,0.0,0.0,0.0,0.0,0.0,0.0,0.0,0.0,0.0,0.0,0.0,0.0,0.0,0.0,0.0,0.0,0.0,0.0,0.0,0.0,0.0,0.0,0.0,0.0,0.0,0.0,0.0,0.0,0.0,0.0,0.0,0.0,0.0,0.0,0.0,0.0,0.0,0.0,0.0,0.0,0.0,0.0,0.0,0.0,0.0,0.0,0.0,0.0,0.0,0.0,0.0,0.0,0.0,0.0,0.0,0.0,0.0,0.0,0.0,0.0,0.0,0.0,0.0,0.0,0.0,0.0,0.0,0.0,0.0,0.0,0.0,0.0,0.0,0.0,0.0,0.0,0.0,0.0,0.0,0.0,0.0,0.0,0.0,0.0,0.0,0.0,0.0,0.0,0.0,0.0,0.0,0.0,0.0,0.0,0.0,0.0,0.0,0.0,0.0,0.0,0.0,0.0,0.0,0.0,0.0,0.0,0.0,0.0,0.0,0.0,0.0,0.0,0.0,0.0,0.0,0.0,0.0,0.0,0.0,0.0,0.0,0.0,0.0,0.0,0.0,0.0,0.0,0.0,0.0,0.0,0.0,0.0,0.0,0.0,0.0,0.0,0.0,0.0,0.0,0.0,0.0,0.0,0.0,0.0,0.0,0.0,0.0,0.0,0.0,0.0,0.0,0.0,0.0,0.0,0.0,0.0,0.0,0.0,0.0,0.0,0.0,0.0,0.0,0.0,0.0,0.0,0.0,0.0,0.0,0.0,0.0,0.0,0.0,0.0,0.0,0.0,0.0,0.0,0.0,0.0,0.0,0.0,0.0,0.0,0.0,0.0,0.0,0.0,0.0,0.0,0.0,0.0,0.0,0.0,0.0,0.0,0.0,0.0,0.0,0.0,0.0,0.0,0.0,0.0,0.0,0.0,0.0,0.0,0.0,0.0,0.0,0.0,0.0,0.0,0.0,0.0,0.0,0.0,0.0,0.0,0.0,0.0,0.0,0.0,0.0,0.0,0.0,0.0,0.0,0.0,0.0,0.0,0.0,0.0,0.0,0.0,0.0,0.0,0.0,0.0,0.0,0.0,0.0,0.0,0.0,0.0,0.0,0.0,0.0,0.0,0.0,0.0,0.0,0.0,0.0,0.0,0.0,0.0,0.0,0.0,0.0,0.0,0.0,0.0,0.0,0.0,0.0,0.0,0.0,0.0,0.0,0.0,0.0,0.0,0.0,0.0,0.0,0.0,0.0,0.0,0.0,0.0,0.0,0.0,0.0,0.0,0.0,0.0,0.0,0.0,0.0,0.0,0.0,0.0,0.0,0.0,0.0,0.0,0.0,0.0,0.0,0.0,0.0,0.0,0.0,0.0,0.0,0.0,0.0,0.0,0.0,0.0,0.0,0.0,0.0,0.0,0.0,0.0,0.0,0.0,0.0,0.0,0.0,0.0,0.0,0.0,0.0,0.0,0.0,0.0,0.0,0.0,0.0,0.0,0.0,0.0,0.0,0.0,0.0,0.0,0.0,0.0,0.0,0.0,0.0,0.0,0.0,0.0,0.0,0.0,0.0,0.0,0.0,0.0,0.0,0.0,0.0,0.0,0.0,0.0,0.0,0.0,0.0,0.0,0.0,0.0,0.0,0.0,0.0,0.0,0.0,0.0,0.0,0.0,0.0,0.0,0.0,0.0,0.0,0.0,0.0,0.0,0.0,0.0,0.0,0.0,0.0,0.0,0.0,0.0,0.0,0.0,0.0,0.0,0.0,0.0,0.0,0.0,0.0,0.0,0.0,0.0,-1.1667,0.0,0.0,0.0,0.0,0.0,0.0,0.0,0.0,0.0,0.0,0.0,0.0,0.0,0.0,0.0,0.0,0.0,0.0,0.0,0.0,0.0,0.0,0.0,0.0,0.0,0.0,0.0,0.0,0.0,0.0,0.0,0.0,0.0,0.0,0.0,0.0,0.0,0.0,0.0,0.0,0.0,0.0,0.0,0.0,0.0,0.0,0.0,0.0,0.0,0.0,0.0,0.0,0.0,0.0,0.0,0.0,0.0,0.0,0.0,0.0,0.0,0.0,0.0,0.0,0.0,0.0,0.0,0.0,0.0,0.0,0.0,0.0,0.0,0.0,0.0,0.0,0.0,0.0,0.0,0.0,0.0,0.0,0.0,0.0,0.0,0.0,0.0,0.0,0.0,0.0,0.0,0.0,0.0,0.0,0.0,0.0,0.0,0.0,0.0,0.0,0.0,0.0,0.0,0.0,0.0,0.0,0.0,0.0,0.0,0.0,-1.4169,-1.4028,-1.3703,-1.3393,-1.312,0.0,0.0,0.0,0.0,0.0,0.0,0.0,0.0,0.0,0.0,0.0,0.0,0.0,0.0,0.0,0.0,0.0,0.0,0.0,0.0,0.0,0.0,0.0,0.0,0.0,0.0,0.0,0.0,0.0,0.0,0.0,0.0,0.0,0.0,0.0,0.0,0.0,0.0,0.0,0.0,0.0,0.0,0.0,0.0,0.0,0.0,0.0,0.0,0.0,0.0,0.0,0.0,0.0,0.0,0.0,0.0,0.0,0.0,0.0,0.0,0.0,0.0,0.0,0.0,0.0,0.0,0.0,0.0,0.0,0.0,0.0,0.0,0.0,0.0,0.0,0.0,0.0,0.0,0.0,0.0,0.0,0.0,0.0,0.0,0.0,0.0,0.0,0.0,0.0,0.0,0.0,0.0,0.0,0.0,0.0,0.0,0.0,0.0,0.0,0.0,0.0,0.0,0.0,0.0,0.0,0.0,0.0,0.0,0.0,0.0,0.0,0.0,-1.5005,-1.4809,-1.4511,0.0,0.0,0.0,0.0,0.0,0.0,0.0,0.0,0.0,0.0,0.0,0.0,0.0,0.0,0.0,0.0,0.0,0.0,0.0,0.0,0.0,0.0,0.0,0.0,0.0,0.0,0.0,0.0,0.0,0.0,0.0,0.0,0.0,0.0,0.0,0.0,0.0,0.0,0.0,0.0,0.0,0.0,0.0,0.0,0.0,0.0,0.0,0.0,0.0,0.0,0.0,0.0,0.0,0.0,0.0,0.0,0.0,0.0,0.0,0.0,0.0,0.0,0.0,0.0,0.0,0.0,0.0,0.0,0.0,0.0,0.0,0.0,0.0,0.0,0.0,0.0,0.0,0.0,0.0,0.0,0.0,0.0,0.0,0.0,0.0,0.0,0.0,0.0,0.0,0.0,0.0,0.0,0.0,0.0,0.0,0.0,0.0,0.0,0.0,0.0,0.0,0.0,0.0,0.0,0.0,0.0,0.0,0.0,0.0,0.0,-1.6208,-1.6246,-1.6192,0.0,-1.5832,0.0,0.0,0.0,0.0,0.0,0.0,0.0,0.0,0.0,0.0,0.0,0.0,0.0,0.0,0.0,0.0,0.0,0.0,0.0,0.0,0.0,0.0,0.0,0.0,0.0,0.0,0.0,0.0,0.0,0.0,0.0,0.0,0.0,0.0,0.0,0.0,0.0,0.0,0.0,0.0,0.0,0.0,0.0,0.0,0.0,0.0,0.0,0.0,0.0,0.0,0.0,0.0,0.0,0.0,0.0,0.0,0.0,0.0,0.0,0.0,0.0,0.0,0.0,0.0,0.0,0.0,0.0,0.0,0.0,0.0,0.0,0.0,0.0,0.0,0.0,0.0,0.0,0.0,0.0,0.0,0.0,0.0,0.0,0.0,0.0,0.0,0.0,0.0,0.0,0.0,0.0,0.0,0.0,0.0,0.0,0.0,0.0,0.0,0.0,0.0,0.0,0.0,0.0,0.0,0.0,0.0,0.0,0.0,0.0,0.0,-1.7142,-1.7214,-1.7728,-1.779,0.0,0.0,0.0,0.0,0.0,0.0,0.0,0.0,0.0,0.0,0.0,0.0,0.0,0.0,0.0,0.0,0.0,0.0,0.0,0.0,0.0,0.0,0.0,0.0,0.0,0.0,0.0,0.0,0.0,0.0,0.0,0.0,0.0,0.0,0.0,0.0,0.0,0.0,0.0,0.0,0.0,0.0,0.0,0.0,0.0,0.0,0.0,0.0,0.0,0.0,0.0,0.0,0.0,0.0,0.0,0.0,0.0,0.0,0.0,0.0,0.0,0.0,0.0,0.0,0.0,0.0,0.0,0.0,0.0,0.0,0.0,0.0,0.0,0.0,0.0,0.0,0.0,0.0,0.0,0.0,0.0,0.0,0.0,0.0,0.0,0.0,0.0,0.0,0.0,0.0,0.0,0.0,0.0,0.0,0.0,0.0,0.0,0.0,0.0,0.0,0.0,0.0,0.0,0.0,0.0,0.0,0.0,0.0,0.0,0.0,-1.7783,-1.7919,-1.8139,-1.9029,-1.9169,-1.8411,0.0,0.0,0.0,0.0,0.0,0.0,0.0,0.0,0.0,0.0,0.0,0.0,0.0,0.0,0.0,0.0,0.0,0.0,0.0,0.0,0.0,0.0,0.0,0.0,0.0,0.0,0.0,0.0,0.0,0.0,0.0,0.0,0.0,0.0,0.0,0.0,0.0,0.0,0.0,0.0,0.0,0.0,0.0,0.0,0.0,0.0,0.0,0.0,0.0,0.0,0.0,0.0,0.0,0.0,0.0,0.0,0.0,0.0,0.0,0.0,0.0,0.0,0.0,0.0,0.0,0.0,0.0,0.0,0.0,0.0,0.0,0.0,0.0,0.0,0.0,0.0,0.0,0.0,0.0,0.0,0.0,0.0,0.0,0.0,0.0,0.0,0.0,0.0,0.0,0.0,0.0,0.0,0.0,0.0,0.0,0.0,0.0,0.0,0.0,0.0,0.0,0.0,0.0,0.0,0.0,0.0,0.0,0.0,-1.8287,-1.8371,-1.8551,-1.8908,-1.9837,-1.9968,0.0,0.0,0.0,0.0,0.0,0.0,0.0,0.0,0.0,0.0,0.0,0.0,0.0,0.0,0.0,0.0,0.0,0.0,0.0,0.0,0.0,0.0,0.0,0.0,0.0,0.0,0.0,0.0,0.0,0.0,0.0,0.0,0.0,0.0,0.0,0.0,0.0,0.0,0.0,0.0,0.0,0.0,0.0,0.0,0.0,0.0,0.0,0.0,0.0,0.0,0.0,0.0,0.0,0.0,0.0,0.0,0.0,0.0,0.0,0.0,0.0,0.0,0.0,0.0,0.0,0.0,0.0,0.0,0.0,0.0,0.0,0.0,0.0,0.0,0.0,0.0,0.0,0.0,0.0,0.0,0.0,0.0,0.0,0.0,0.0,0.0,0.0,0.0,0.0,0.0,0.0,0.0,0.0,0.0,0.0,0.0,0.0,0.0,0.0,0.0,0.0,0.0,0.0,0.0,0.0,0.0,0.0,0.0,0.0,-1.948,-2.0227,-2.0765,-2.104,-2.1988,-2.1921,0.0,0.0,0.0,0.0,0.0,0.0,0.0,0.0,0.0,0.0,0.0,0.0,0.0,0.0,0.0,0.0,0.0,0.0,0.0,0.0,0.0,0.0,0.0,0.0,0.0,0.0,0.0,0.0,0.0,0.0,0.0,0.0,0.0,0.0,0.0,0.0,0.0,0.0,0.0,0.0,0.0,0.0,0.0,0.0,0.0,0.0,0.0,0.0,0.0,0.0,0.0,0.0,0.0,0.0,0.0,0.0,0.0,0.0,0.0,0.0,0.0,0.0,0.0,0.0,0.0,0.0,0.0,0.0,0.0,0.0,0.0,0.0,0.0,0.0,0.0,0.0,0.0,0.0,0.0,0.0,0.0,0.0,0.0,0.0,0.0,0.0,0.0,0.0,0.0,0.0,0.0,0.0,0.0,0.0,0.0,0.0,0.0,0.0,0.0,0.0,0.0,0.0,0.0,0.0,0.0,0.0,0.0,0.0,0.0,-2.0733,0.0,-2.2154,-2.238,-2.3323,-2.321,0.0,0.0,0.0,0.0,0.0,0.0,0.0,0.0,0.0,0.0,0.0,0.0,0.0,0.0,0.0,0.0,0.0,0.0,0.0,0.0,0.0,0.0,0.0,0.0,0.0,0.0,0.0,0.0,0.0,0.0,0.0,0.0,0.0,0.0,0.0,0.0,0.0,0.0,0.0,0.0,0.0,0.0,0.0,0.0,0.0,0.0,0.0,0.0,0.0,0.0,0.0,0.0,0.0,0.0,0.0,0.0,0.0,0.0,0.0,0.0,0.0,0.0,0.0,0.0,0.0,0.0,0.0,0.0,0.0,0.0,0.0,0.0,0.0,0.0,0.0,0.0,0.0,0.0,0.0,0.0,0.0,0.0,0.0,0.0,0.0,0.0,0.0,0.0,0.0,0.0,0.0,0.0,0.0,0.0,0.0,0.0,0.0,0.0,0.0,0.0,0.0,0.0,0.0,0.0,0.0,0.0,0.0,0.0,-2.1714,-2.2029,-2.2376,-2.2726,-2.2802,-2.3734,-2.3785,0.0,0.0,0.0,0.0,0.0,0.0,0.0,0.0,0.0,0.0,0.0,0.0,0.0,0.0,0.0,0.0,0.0,0.0,0.0,0.0,0.0,0.0,0.0,0.0,0.0,0.0,0.0,0.0,0.0,0.0,0.0,0.0,0.0,0.0,0.0,0.0,0.0,0.0,0.0,0.0,0.0,0.0,0.0,0.0,0.0,0.0,0.0,0.0,0.0,0.0,0.0,0.0,0.0,0.0,0.0,0.0,0.0,0.0,0.0,0.0,0.0,0.0,0.0,0.0,0.0,0.0,0.0,0.0,0.0,0.0,0.0,0.0,0.0,0.0,0.0,0.0,0.0,0.0,0.0,0.0,0.0,0.0,0.0,0.0,0.0,0.0,0.0,0.0,0.0,0.0,0.0,0.0,0.0,0.0,0.0,0.0,0.0,0.0,0.0,0.0,0.0,0.0,0.0,0.0,0.0,0.0,0.0,0.0,0.0,-2.4119,-2.5403,-2.621,-2.6343,-2.6097,-2.5565,0.0,0.0,0.0,0.0,0.0,0.0,0.0,0.0,0.0,0.0,0.0,0.0,0.0,0.0,0.0,0.0,0.0,0.0,0.0,0.0,0.0,0.0,0.0,0.0,0.0,0.0,0.0,0.0,0.0,0.0,0.0,0.0,0.0,0.0,0.0,0.0,0.0,0.0,0.0,0.0,0.0,0.0,0.0,0.0,0.0,0.0,0.0,0.0,0.0,0.0,0.0,0.0,0.0,0.0,0.0,0.0,0.0,0.0,0.0,0.0,0.0,0.0,0.0,0.0,0.0,0.0,0.0,0.0,0.0,0.0,0.0,0.0,0.0,0.0,0.0,0.0,0.0,0.0,0.0,0.0,0.0,0.0,0.0,0.0,0.0,0.0,0.0,0.0,0.0,0.0,0.0,0.0,0.0,0.0,0.0,0.0,0.0,0.0,0.0,0.0,0.0,0.0,0.0,0.0,0.0,0.0,0.0,0.0,0.0,-2.6568,-2.7389,-2.7918,-2.7984,-2.7226,-2.6529,-2.5896,0.0,0.0,0.0,0.0,0.0,0.0,0.0,0.0,0.0,0.0,0.0,0.0,0.0,0.0,0.0,0.0,0.0,0.0,0.0,0.0,0.0,0.0,0.0,0.0,0.0,0.0,0.0,0.0,0.0,0.0,0.0,0.0,0.0,0.0,0.0,0.0,0.0,0.0,0.0,0.0,0.0,0.0,0.0,0.0,0.0,0.0,0.0,0.0,0.0,0.0,0.0,0.0,0.0,0.0,0.0,0.0,0.0,0.0,0.0,0.0,0.0,0.0,0.0,0.0,0.0,0.0,0.0,0.0,0.0,0.0,0.0,0.0,0.0,0.0,0.0,0.0,0.0,0.0,0.0,0.0,0.0,0.0,0.0,0.0,0.0,0.0,0.0,0.0,0.0,0.0,0.0,0.0,0.0,0.0,0.0,0.0,0.0,0.0,0.0,0.0,0.0,0.0,0.0,0.0,0.0,0.0,0.0,0.0,-2.9173,-2.8489,-2.8168,-2.8161,-2.7374,-2.6851,0.0,0.0,0.0,0.0,0.0,0.0,0.0,0.0,0.0,0.0,0.0,0.0,0.0,0.0,0.0,0.0,0.0,0.0,0.0,0.0,0.0,0.0,0.0,0.0,0.0,0.0,0.0,0.0,0.0,0.0,0.0,0.0,0.0,0.0,0.0,0.0,0.0,0.0,0.0,0.0,0.0,0.0,0.0,0.0,0.0,0.0,0.0,0.0,0.0,0.0,0.0,0.0,0.0,0.0,0.0,0.0,0.0,0.0,0.0,0.0,0.0,0.0,0.0,0.0,0.0,0.0,0.0,0.0,0.0,0.0,0.0,0.0,0.0,0.0,0.0,0.0,0.0,0.0,0.0,0.0,0.0,0.0,0.0,0.0,0.0,0.0,0.0,0.0,0.0,0.0,0.0,0.0,0.0,0.0,0.0,0.0,0.0,0.0,0.0,0.0,0.0,0.0,0.0,0.0,0.0,0.0,0.0,0.0,0.0,-3.0036,-2.9991,-2.9922,-2.9904,-2.8994,-2.8116,0.0,0.0,0.0,0.0,0.0,0.0,0.0,0.0,0.0,0.0,0.0,0.0,0.0,0.0,0.0,0.0,0.0,0.0,0.0,0.0,0.0,0.0,0.0,0.0,0.0,0.0,0.0,0.0,0.0,0.0,0.0,0.0,0.0,0.0,0.0,0.0,0.0,0.0,0.0,0.0,0.0,0.0,0.0,0.0,0.0,0.0,0.0,0.0,0.0,0.0,0.0,0.0,0.0,0.0,0.0,0.0,0.0,0.0,0.0,0.0,0.0,0.0,0.0,0.0,0.0,0.0,0.0,0.0,0.0,0.0,0.0,0.0,0.0,0.0,0.0,0.0,0.0,0.0,0.0,0.0,0.0,0.0,0.0,0.0,0.0,0.0,0.0,0.0,0.0,0.0,0.0,0.0,0.0,0.0,0.0,0.0,0.0,0.0,0.0,0.0,0.0,0.0,0.0,0.0,0.0,0.0,0.0,0.0,-2.8994,-3.051,-3.0574,-3.0716,-3.0996,-2.9988,-2.8746,0.0,0.0,0.0,0.0,0.0,0.0,0.0,0.0,0.0,0.0,0.0,0.0,0.0,0.0,0.0,0.0,0.0,0.0,0.0,0.0,0.0,0.0,0.0,0.0,0.0,0.0,0.0,0.0,0.0,0.0,0.0,0.0,0.0,0.0,0.0,0.0,0.0,0.0,0.0,0.0,0.0,0.0,0.0,0.0,0.0,0.0,0.0,0.0,0.0,0.0,0.0,0.0,0.0,0.0,0.0,0.0,0.0,0.0,0.0,0.0,0.0,0.0,0.0,0.0,0.0,0.0,0.0,0.0,0.0,0.0,0.0,0.0,0.0,0.0,0.0,0.0,0.0,0.0,0.0,0.0,0.0,0.0,0.0,0.0,0.0,0.0,0.0,0.0,0.0,0.0,0.0,0.0,0.0,0.0,0.0,0.0,0.0,0.0,0.0,0.0,0.0,0.0,0.0,0.0,0.0,0.0,0.0,0.0,-2.9525,-3.0594,-3.0683,-3.0955,-3.1416,-3.0513,-2.9042,0.0,0.0,0.0,0.0,0.0,0.0,0.0,0.0,0.0,0.0,0.0,0.0,0.0,0.0,0.0,0.0,0.0,0.0,0.0,0.0,0.0,0.0,0.0,0.0,0.0,0.0,0.0,0.0,0.0,0.0,0.0,0.0,0.0,0.0,0.0,0.0,0.0,0.0,0.0,0.0,0.0,0.0,0.0,0.0,0.0,0.0,0.0,0.0,0.0,0.0,0.0,0.0,0.0,0.0,0.0,0.0,0.0,0.0,0.0,0.0,0.0,0.0,0.0,0.0,0.0,0.0,0.0,0.0,0.0,0.0,0.0,0.0,0.0,0.0,0.0,0.0,0.0,0.0,0.0,0.0,0.0,0.0,0.0,0.0,0.0,0.0,0.0,0.0,0.0,0.0,0.0,0.0,0.0,0.0,0.0,0.0,0.0,0.0,0.0,0.0,0.0,0.0,0.0,0.0,0.0,0.0,0.0,0.0,-2.9558,-3.0572,-3.1205,-3.1481,-3.1354,-3.0804,-2.957,0.0,0.0,0.0,0.0,0.0,0.0,0.0,0.0,0.0,0.0,0.0,0.0,0.0,0.0,0.0,0.0,0.0,0.0,0.0,0.0,0.0,0.0,0.0,0.0,0.0,0.0,0.0,0.0,0.0,0.0,0.0,0.0,0.0,0.0,0.0,0.0,0.0,0.0,0.0,0.0,0.0,0.0,0.0,0.0,0.0,0.0,0.0,0.0,-2.5687,0.0,0.0,0.0,0.0,0.0,0.0,0.0,0.0,0.0,0.0,0.0,0.0,0.0,0.0,0.0,0.0,0.0,0.0,0.0,0.0,0.0,0.0,0.0,0.0,0.0,0.0,0.0,0.0,0.0,0.0,0.0,0.0,0.0,0.0,0.0,0.0,0.0,0.0,0.0,0.0,0.0,0.0,0.0,0.0,0.0,0.0,0.0,0.0,0.0,0.0,0.0,0.0,0.0,0.0,0.0,0.0,0.0,0.0,0.0,-2.9967,-3.0612,-3.1346,-3.1754,-3.1781,-3.0904,-2.945,0.0,0.0,0.0,0.0,0.0,0.0,0.0,0.0,0.0,0.0,0.0,0.0,0.0,0.0,0.0,0.0,0.0,0.0,0.0,0.0,0.0,0.0,0.0,0.0,0.0,0.0,0.0,0.0,0.0,0.0,0.0,0.0,0.0,0.0,0.0,0.0,0.0,0.0,0.0,0.0,0.0,0.0,0.0,0.0,0.0,0.0,0.0,0.0,0.0,0.0,0.0,0.0,0.0,0.0,0.0,0.0,0.0,0.0,0.0,0.0,0.0,0.0,0.0,0.0,0.0,0.0,0.0,0.0,0.0,0.0,0.0,0.0,0.0,0.0,0.0,0.0,0.0,0.0,0.0,0.0,0.0,0.0,0.0,0.0,0.0,0.0,0.0,0.0,0.0,0.0,0.0,0.0,0.0,0.0,0.0,0.0,0.0,0.0,0.0,0.0,0.0,0.0,0.0,0.0,0.0,0.0,0.0,-2.9347,-3.047,-3.0806,-3.1379,-3.1865,-3.2133,-3.08,-2.9004,-2.6762,0.0,0.0,0.0,0.0,0.0,0.0,0.0,0.0,0.0,0.0,0.0,0.0,0.0,0.0,0.0,0.0,0.0,0.0,0.0,0.0,0.0,0.0,0.0,0.0,0.0,0.0,0.0,0.0,0.0,0.0,0.0,0.0,0.0,0.0,0.0,0.0,0.0,0.0,-2.5005,-2.8047,0.0,0.0,0.0,0.0,0.0,0.0,0.0,0.0,-3.3125,0.0,0.0,0.0,0.0,0.0,0.0,0.0,0.0,0.0,0.0,0.0,0.0,0.0,0.0,0.0,0.0,0.0,0.0,0.0,0.0,0.0,0.0,0.0,0.0,0.0,0.0,0.0,0.0,0.0,0.0,0.0,0.0,0.0,0.0,0.0,0.0,0.0,0.0,0.0,0.0,0.0,0.0,0.0,0.0,0.0,0.0,0.0,0.0,0.0,0.0,0.0,0.0,0.0,0.0,0.0,0.0,-2.7593,-2.9448,-3.0792,-3.166,-3.169,-3.1553,-3.1219,-3.0395,-2.8485,-2.5512,0.0,0.0,0.0,0.0,0.0,0.0,0.0,0.0,0.0,0.0,0.0,0.0,0.0,0.0,0.0,0.0,0.0,0.0,0.0,0.0,0.0,0.0,0.0,0.0,0.0,0.0,0.0,0.0,0.0,0.0,0.0,0.0,0.0,0.0,0.0,0.0,0.0,0.0,0.0,-3.1399,-3.2781,0.0,0.0,0.0,0.0,0.0,0.0,0.0,0.0,-3.3458,0.0,0.0,0.0,0.0,0.0,0.0,0.0,0.0,0.0,0.0,0.0,0.0,0.0,0.0,0.0,0.0,0.0,0.0,0.0,0.0,0.0,0.0,0.0,0.0,0.0,0.0,0.0,0.0,0.0,0.0,0.0,0.0,0.0,0.0,0.0,0.0,0.0,0.0,0.0,0.0,0.0,0.0,0.0,0.0,0.0,0.0,0.0,0.0,0.0,0.0,0.0,0.0,0.0,0.0,0.0,-2.7758,-2.9059,-3.002,-3.0527,-3.0431,-3.0128,-2.9658,-2.9314,-2.7813,0.0,0.0,0.0,0.0,0.0,0.0,0.0,0.0,0.0,0.0,0.0,0.0,0.0,0.0,0.0,0.0,0.0,0.0,0.0,0.0,0.0,0.0,0.0,0.0,0.0,0.0,0.0,0.0,0.0,0.0,0.0,0.0,0.0,0.0,0.0,0.0,0.0,0.0,0.0,0.0,-3.367,-3.5529,-3.6182,0.0,0.0,0.0,0.0,0.0,0.0,-3.7626,-3.6404,0.0,0.0,0.0,0.0,0.0,0.0,0.0,0.0,0.0,0.0,0.0,0.0,0.0,0.0,0.0,0.0,0.0,0.0,0.0,0.0,0.0,0.0,0.0,0.0,0.0,0.0,0.0,0.0,0.0,0.0,0.0,0.0,0.0,0.0,0.0,0.0,0.0,0.0,0.0,0.0,0.0,0.0,0.0,0.0,0.0,0.0,0.0,0.0,0.0,0.0,0.0,0.0,0.0,0.0,0.0,-2.7815,-2.8737,-2.9246,-2.9273,-2.8987,-2.8595,-2.8142,-2.8125,-2.6907,0.0,0.0,0.0,0.0,0.0,0.0,0.0,0.0,0.0,0.0,0.0,0.0,0.0,0.0,0.0,0.0,0.0,0.0,0.0,0.0,0.0,0.0,0.0,0.0,0.0,0.0,0.0,0.0,0.0,0.0,0.0,0.0,0.0,0.0,0.0,0.0,0.0,0.0,0.0,0.0,0.0,-3.8017,-3.8883,-4.0164,0.0,0.0,0.0,0.0,-4.1329,-4.0221,0.0,0.0,0.0,0.0,0.0,0.0,0.0,0.0,0.0,0.0,0.0,0.0,0.0,0.0,0.0,0.0,0.0,0.0,0.0,0.0,0.0,0.0,0.0,0.0,0.0,0.0,0.0,0.0,0.0,0.0,0.0,0.0,0.0,0.0,0.0,0.0,0.0,0.0,0.0,0.0,0.0,0.0,0.0,0.0,0.0,0.0,0.0,0.0,0.0,0.0,0.0,0.0,0.0,0.0,0.0,0.0,-2.7827,-2.88,-2.9301,-2.9263,-2.8361,-2.7661,-2.7177,-2.7167,-2.5711,0.0,0.0,0.0,0.0,0.0,0.0,0.0,0.0,0.0,0.0,0.0,0.0,0.0,0.0,0.0,0.0,0.0,0.0,0.0,0.0,0.0,0.0,0.0,0.0,0.0,0.0,0.0,0.0,0.0,0.0,0.0,0.0,0.0,0.0,0.0,0.0,0.0,0.0,0.0,0.0,0.0,-3.9969,-4.1536,-4.2354,-4.2977,0.0,0.0,-4.1054,-4.2236,-4.0379,0.0,0.0,0.0,0.0,0.0,0.0,0.0,0.0,0.0,0.0,0.0,0.0,0.0,0.0,0.0,0.0,0.0,0.0,0.0,0.0,0.0,0.0,0.0,0.0,0.0,0.0,0.0,0.0,0.0,0.0,0.0,0.0,0.0,0.0,0.0,0.0,0.0,0.0,0.0,0.0,0.0,0.0,0.0,0.0,0.0,0.0,0.0,0.0,0.0,0.0,0.0,0.0,0.0,0.0,0.0,-2.7856,-2.7926,-2.8369,-2.8337,-2.7811,-2.6729,-2.5933,-2.5475,-2.5878,-2.4831,0.0,0.0,0.0,0.0,0.0,0.0,0.0,0.0,0.0,0.0,0.0,0.0,0.0,0.0,0.0,0.0,0.0,0.0,0.0,0.0,0.0,0.0,0.0,0.0,0.0,0.0,0.0,0.0,0.0,0.0,0.0,0.0,0.0,0.0,0.0,0.0,0.0,0.0,0.0,0.0,0.0,0.0,-4.196,-4.3167,0.0,0.0,0.0,-4.3287,-4.4512,0.0,0.0,0.0,0.0,0.0,0.0,0.0,0.0,0.0,0.0,0.0,0.0,0.0,0.0,0.0,0.0,0.0,0.0,0.0,0.0,0.0,0.0,0.0,0.0,0.0,0.0,0.0,0.0,0.0,0.0,0.0,0.0,0.0,0.0,0.0,0.0,0.0,0.0,0.0,0.0,0.0,0.0,0.0,0.0,0.0,0.0,0.0,0.0,0.0,0.0,0.0,0.0,0.0,0.0,0.0,0.0,0.0,-2.8016,-2.8086,-2.7537,-2.6359,-2.5437,-2.4739,-2.428,-2.4649,0.0,0.0,0.0,0.0,0.0,0.0,0.0,0.0,0.0,0.0,0.0,0.0,0.0,0.0,0.0,0.0,0.0,0.0,0.0,0.0,0.0,0.0,0.0,0.0,0.0,0.0,0.0,-1.761,0.0,0.0,0.0,0.0,0.0,0.0,0.0,0.0,0.0,0.0,0.0,0.0,0.0,0.0,-4.0469,-4.2273,-4.346,-4.4307,0.0,0.0,-4.4261,-4.5203,-4.274,-4.0548,0.0,0.0,0.0,0.0,0.0,0.0,0.0,0.0,0.0,0.0,0.0,0.0,0.0,0.0,0.0,0.0,0.0,0.0,0.0,0.0,0.0,0.0,0.0,0.0,0.0,0.0,0.0,0.0,0.0,0.0,0.0,0.0,0.0,0.0,0.0,0.0,0.0,0.0,0.0,0.0,0.0,0.0,0.0,0.0,0.0,0.0,0.0,0.0,0.0,0.0,0.0,0.0,0.0,0.0,0.0,-2.8097,-2.8101,-2.7234,-2.5466,-2.5077,-2.4657,-2.4118,-2.3606,-2.291,0.0,0.0,0.0,0.0,0.0,0.0,0.0,0.0,0.0,0.0,0.0,0.0,0.0,0.0,0.0,0.0,0.0,0.0,0.0,0.0,0.0,0.0,0.0,0.0,0.0,0.0,0.0,0.0,0.0,0.0,0.0,0.0,0.0,0.0,0.0,0.0,0.0,0.0,0.0,0.0,0.0,-4.0687,-4.3072,-4.3294,-4.3408,0.0,0.0,-4.223,-4.268,-4.0842,-3.9102,-3.8549,0.0,0.0,0.0,0.0,0.0,0.0,0.0,0.0,0.0,0.0,0.0,0.0,0.0,0.0,0.0,0.0,0.0,0.0,0.0,0.0,0.0,0.0,0.0,0.0,0.0,0.0,0.0,0.0,0.0,0.0,0.0,0.0,0.0,0.0,0.0,0.0,0.0,0.0,0.0,0.0,0.0,0.0,0.0,0.0,0.0,0.0,0.0,0.0,0.0,0.0,0.0,0.0,0.0,-2.8934,-2.8895,-2.8357,-2.742,-2.6078,-2.5213,-2.4492,-2.3928,-2.3247,-2.2504,0.0,0.0,0.0,0.0,0.0,0.0,0.0,0.0,0.0,0.0,0.0,0.0,0.0,0.0,0.0,0.0,0.0,0.0,0.0,0.0,0.0,0.0,0.0,0.0,0.0,0.0,0.0,0.0,-2.2851,-2.3493,-2.3833,0.0,0.0,0.0,0.0,0.0,0.0,0.0,0.0,0.0,0.0,-4.033,-4.1695,-4.2198,0.0,0.0,-4.2484,-4.2089,-4.2377,-4.0536,-3.8941,-3.8486,-3.7369,0.0,0.0,0.0,0.0,0.0,0.0,0.0,0.0,0.0,0.0,0.0,0.0,0.0,0.0,0.0,0.0,0.0,0.0,0.0,0.0,0.0,0.0,0.0,0.0,0.0,0.0,0.0,0.0,0.0,0.0,0.0,0.0,0.0,0.0,0.0,0.0,0.0,0.0,0.0,0.0,0.0,0.0,0.0,0.0,0.0,0.0,0.0,0.0,0.0,0.0,0.0,0.0,-2.9331,-2.9003,-2.8388,-2.7421,-2.6072,-2.5132,-2.4366,-2.3744,-2.3076,-2.2307,0.0,0.0,0.0,0.0,0.0,0.0,0.0,0.0,0.0,0.0,0.0,0.0,0.0,0.0,0.0,0.0,0.0,0.0,0.0,0.0,0.0,0.0,0.0,0.0,0.0,0.0,0.0,0.0,-2.4264,-2.4794,-2.4781,0.0,0.0,0.0,0.0,0.0,0.0,0.0,0.0,0.0,0.0,-4.007,-4.0799,-4.1285,-4.161,-4.1839,-4.1495,-4.1202,-4.1292,-4.0081,-3.9013,-3.8676,0.0,0.0,0.0,0.0,0.0,0.0,0.0,0.0,0.0,0.0,0.0,0.0,0.0,0.0,0.0,0.0,0.0,0.0,0.0,0.0,0.0,0.0,0.0,0.0,0.0,0.0,0.0,0.0,0.0,0.0,0.0,0.0,0.0,0.0,0.0,0.0,0.0,0.0,0.0,0.0,0.0,0.0,0.0,0.0,0.0,0.0,0.0,0.0,0.0,0.0,0.0,0.0,0.0,-2.9074,-2.8166,-2.8082,-2.7041,-2.5137,-2.4689,-2.421,-2.361,-2.3003,-2.2262,-2.1303,0.0,0.0,0.0,0.0,0.0,0.0,0.0,0.0,0.0,0.0,0.0,0.0,0.0,0.0,0.0,0.0,0.0,0.0,0.0,0.0,0.0,0.0,0.0,0.0,0.0,0.0,-2.443,-2.5164,-2.5701,0.0,0.0,0.0,0.0,0.0,0.0,0.0,0.0,0.0,0.0,-3.9801,-4.0083,-4.0797,-4.0688,-4.0534,-4.0327,-3.9796,-3.9266,-3.8907,-3.9209,-3.9316,0.0,0.0,0.0,0.0,0.0,0.0,0.0,0.0,0.0,0.0,0.0,0.0,0.0,0.0,0.0,0.0,0.0,0.0,0.0,0.0,0.0,0.0,0.0,0.0,0.0,0.0,0.0,-3.405,-3.399,0.0,0.0,0.0,0.0,0.0,0.0,0.0,0.0,0.0,0.0,0.0,-3.68,-3.6386,0.0,0.0,0.0,0.0,0.0,0.0,0.0,0.0,0.0,0.0,0.0,0.0,-2.9829,-2.8929,-2.8218,-2.7168,-2.5766,-2.4778,-2.4005,-2.3414,-2.2822,-2.1881,-2.0601,0.0,0.0,0.0,0.0,0.0,0.0,0.0,0.0,0.0,0.0,0.0,0.0,0.0,0.0,0.0,0.0,0.0,0.0,0.0,0.0,0.0,0.0,0.0,0.0,0.0,-2.5737,0.0,0.0,0.0,0.0,0.0,0.0,0.0,0.0,0.0,0.0,0.0,-3.886,-3.9746,-4.0326,-4.0727,-4.0875,-4.074,-4.0535,0.0,0.0,0.0,0.0,0.0,0.0,0.0,0.0,0.0,0.0,0.0,0.0,0.0,0.0,-3.9841,-3.9061,-3.835,-3.7853,-3.7917,0.0,0.0,0.0,0.0,0.0,0.0,0.0,0.0,0.0,0.0,0.0,0.0,0.0,0.0,0.0,0.0,-3.4727,0.0,0.0,0.0,0.0,0.0,0.0,0.0,0.0,-3.8639,-3.878,-3.8411,-3.8035,-3.7649,0.0,-3.642,-3.4893,0.0,0.0,0.0,0.0,0.0,0.0,0.0,0.0,-3.0021,-2.8815,-2.8047,-2.6963,-2.5548,-2.454,-2.3769,-2.3165,-2.2317,-2.1366,-2.0208,-1.9295,-1.8906,0.0,0.0,0.0,0.0,0.0,0.0,0.0,0.0,0.0,0.0,0.0,0.0,0.0,0.0,0.0,0.0,0.0,0.0,0.0,0.0,0.0,0.0,0.0,-2.7187,0.0,0.0,0.0,0.0,0.0,0.0,0.0,0.0,0.0,-3.6474,-3.843,-3.9959,-4.0289,-4.0765,-4.1042,-4.0918,0.0,0.0,0.0,0.0,0.0,0.0,0.0,-3.9501,-3.9103,-3.9697,-4.0236,-4.0217,-4.031,-4.0546,-4.0919,0.0,0.0,-4.0491,-3.9788,-3.9264,-3.9299,-3.8536,-3.7845,-3.7809,-3.6771,-3.5908,0.0,0.0,0.0,0.0,0.0,0.0,0.0,0.0,-3.8189,-3.867,0.0,-3.6852,0.0,0.0,0.0,0.0,0.0,0.0,0.0,0.0,-4.026,-4.0119,-3.9276,-3.9794,-3.9643,-3.8727,-3.7851,-3.6578,-3.4868,-3.349,0.0,0.0,0.0,0.0,0.0,0.0,-2.9602,-2.7865,-2.7542,-2.6435,-2.4476,-2.3986,-2.349,-2.2855,-2.1592,-2.0663,-2.01,-1.9258,-1.8736,-1.8588,-1.859,0.0,0.0,0.0,0.0,0.0,0.0,0.0,0.0,0.0,0.0,0.0,0.0,0.0,0.0,0.0,0.0,0.0,0.0,0.0,0.0,-2.7396,0.0,0.0,0.0,0.0,0.0,0.0,0.0,0.0,0.0,0.0,-3.9645,-3.9901,-4.0233,-4.0984,0.0,0.0,0.0,0.0,-4.0444,-4.0208,-3.9884,-3.9462,-3.9109,-3.9549,-3.9795,-3.9365,0.0,0.0,-4.0402,-4.0456,-4.0492,-4.042,-4.0346,-4.0684,-4.2038,-4.1633,-4.1225,-4.1207,-4.0002,-3.9139,-3.9031,-3.8276,-3.7753,-3.9665,0.0,0.0,0.0,0.0,-4.0089,-3.9964,-3.89,-3.9595,-3.9741,-3.9303,-3.748,0.0,0.0,0.0,0.0,0.0,0.0,-4.0713,-4.0337,-4.1058,-4.0562,-3.9082,-3.9203,-3.8804,-3.787,-3.7562,-3.6252,-3.4037,-3.358,-3.258,-3.1139,0.0,0.0,0.0,0.0,-2.9347,-2.7689,-2.7361,-2.6287,-2.4284,-2.3862,-2.3194,-2.2303,-2.1228,-2.0496,-2.01,-1.9273,-1.9095,-1.974,-1.9098,0.0,0.0,0.0,0.0,0.0,0.0,0.0,0.0,0.0,0.0,0.0,0.0,0.0,0.0,0.0,0.0,0.0,0.0,0.0,-3.0104,-3.016,-3.0428,0.0,0.0,0.0,0.0,0.0,0.0,0.0,0.0,0.0,-3.9803,-4.0388,-4.0834,0.0,0.0,-4.0134,-4.0057,-3.9342,-3.8749,-3.8553,0.0,0.0,0.0,-3.8813,-3.9258,-3.9589,-4.0227,-4.0599,-4.0492,-4.0492,-4.0438,-4.0256,-4.0218,-4.0323,-4.0527,-4.0548,-4.0464,-4.0392,-3.9639,-3.8976,-3.8904,-3.8313,-3.7613,-3.9738,-3.9166,-3.9461,-3.958,-3.9658,-4.0725,-4.0624,-3.9753,-4.0342,-4.053,-4.0281,-3.8694,-3.9232,-4.1207,-3.9393,0.0,0.0,0.0,-4.0949,-4.0115,-4.0466,-3.9846,-3.8534,-3.8385,-3.8042,-3.747,-3.6764,-3.5436,-3.3601,-3.3223,-3.2258,-3.0817,0.0,0.0,-3.0207,-2.9761,-2.8817,-2.7433,-2.6857,-2.5781,-2.4114,-2.3441,-2.2678,-2.1836,-2.1007,-2.041,-1.9975,-1.9432,-1.9393,-1.9838,-1.959,-1.97,0.0,0.0,0.0,0.0,0.0,0.0,0.0,0.0,0.0,0.0,0.0,-2.4649,-2.453,0.0,0.0,0.0,-2.8549,-3.0326,-3.1446,-3.1383,0.0,0.0,0.0,0.0,0.0,0.0,0.0,-3.8583,-3.8424,-3.8402,-3.9242,-3.9771,-4.0103,-4.007,-3.9618,-3.9265,-3.9163,0.0,-3.8067,-3.7855,-3.764,-3.754,-3.7681,-3.7888,-3.8118,-3.8334,-3.8597,-3.8634,-3.8262,-3.8409,-3.845,-3.8024,-3.8133,-3.8259,-3.8077,-3.8095,-3.8544,-3.9349,-3.8705,-3.8008,-3.79,-3.7256,-3.6594,-3.935,-3.9281,-4.0013,-4.0381,-4.0511,-4.0569,-4.0605,-4.0614,-4.0688,-4.1118,-4.1663,-4.0192,-4.0346,-4.173,-4.1036,0.0,0.0,-4.0422,-3.9947,-3.92,-3.9001,-3.8419,-3.758,-3.7452,-3.7337,-3.7128,-3.5551,-3.4282,-3.3261,-3.2392,-3.1224,-2.9715,-2.9737,-2.9858,-2.9934,-2.9125,-2.8175,-2.7194,-2.6205,-2.5078,-2.3852,-2.2873,-2.2074,-2.1524,-2.091,-2.0292,-1.9726,-1.9696,-1.9579,-1.9322,-2.0034,-2.0338,-2.0205,0.0,0.0,0.0,0.0,0.0,0.0,0.0,0.0,0.0,0.0,0.0,0.0,0.0,0.0,0.0,-3.0497,0.0,-3.0967,-3.167,0.0,0.0,0.0,-3.4542,-3.469,-3.5357,-3.618,-3.7181,0.0,0.0,-3.8303,0.0,-3.843,-3.8225,-3.8312,-3.8338,-3.8225,-3.8063,-3.7925,-3.7627,-3.7496,-3.73,-3.7049,-3.7004,-3.6824,-3.637,-3.5933,-3.5672,-3.4988,-3.5235,-3.5214,-3.4587,-3.4828,-3.5298,-3.5077,-3.515,-3.5721,-3.7809,-3.7256,-3.6308,-3.6007,-3.5544,-3.5116,-3.9445,-3.9411,-4.0192,-4.0864,-4.1431,-4.2099,-4.2038,-4.1511,-4.1555,-4.1364,-4.0919,-3.9921,-3.9359,-3.9162,-3.9553,-3.9393,-3.88,-3.8656,-3.8469,-3.8232,-3.8068,-3.7524,-3.6651,-3.654,-3.5799,-3.4548,-3.4053,-3.275,-3.0753,-3.0434,-2.9776,-2.8743,-2.8156,-2.8527,-2.9767,-2.8925,-2.801,-2.7063,-2.6005,-2.4741,-2.3247,-2.252,-2.1907,-2.1354,-2.0763,-2.0154,-1.9566,-1.9565,-1.9654,-1.9892,-2.0374,-2.0863,-2.1365,-2.1999,0.0,0.0,0.0,0.0,0.0,0.0,0.0,0.0,0.0,-2.7899,-2.8957,0.0,-3.0014,0.0,-3.0917,-3.2019,-3.3372,-3.3153,0.0,0.0,-3.3409,-3.3955,-3.4616,-3.4296,-3.4872,-3.7058,-3.6713,-3.6615,-3.7464,-3.7588,-3.71,-3.5845,-3.6704,-3.7469,-3.7393,-3.6697,-3.6173,-3.6068,-3.5891,-3.5945,-3.629,-3.6648,-3.6433,-3.5515,-3.5237,-3.4819,-3.3957,-3.3887,-3.384,-3.3489,-3.3517,-3.3598,-3.347,-3.3437,-3.3598,-3.4204,-3.4488,-3.4472,-3.3802,-3.3944,-3.4035,-3.8133,-3.7808,-3.8608,-3.8965,-3.9138,-4.1104,-4.1697,-4.1281,-4.1335,-4.0896,-4.0063,-3.9296,-3.8655,-3.8252,-3.8658,-3.8601,-3.8164,-3.8017,-3.7732,-3.7322,-3.7156,-3.6212,-3.4674,-3.4566,-3.362,-3.1956,-3.1487,-3.0565,-2.9249,-2.8763,-2.8315,-2.7827,-2.7378,-2.762,-2.8481,-2.7695,-2.6782,-2.5855,-2.428,-2.2973,-2.1989,-2.1737,-2.1325,-2.0698,-2.0457,-2.0015,-1.9347,-1.9669,-1.9894,-1.9998,-2.0658,-2.1354,-2.2016,-2.2526,-2.3157,0.0,0.0,0.0,0.0,0.0,0.0,0.0,0.0,0.0,0.0,0.0,-3.1901,0.0,-3.2607,0.0,-3.3712,-3.3393,-3.2895,-3.2227,-3.2869,-3.3429,-3.3546,-3.347,-3.3968,-3.5376,-3.48,-3.4449,-3.4911,-3.4641,-3.4228,-3.3602,-3.4345,-3.5059,-3.5293,-3.4874,-3.4455,-3.4376,-3.4241,-3.4184,-3.4453,-3.4905,-3.5019,-3.4363,-3.431,-3.4138,-3.325,-3.3273,-3.3176,-3.2301,-3.2361,-3.2409,-3.1964,-3.1831,-3.1742,-3.1474,-3.1689,-3.2125,-3.2616,-3.3077,-3.3219,-3.6222,-3.563,-3.6422,-3.6381,-3.6002,-3.8807,-3.997,-3.9984,-4.0254,-3.9953,-3.9219,-3.8528,-3.8164,-3.8039,-3.8032,-3.7945,-3.7752,-3.7411,-3.6857,-3.6102,-3.5675,-3.435,-3.2295,-3.2141,-3.1238,-2.9708,-2.889,-2.8387,-2.8143,-2.7342,-2.6933,-2.6915,-2.6709,-2.6617,-2.6618,-2.576,-2.487,-2.4024,-2.2092,-2.0902,-2.057,-2.085,-2.0626,-1.9936,-2.0106,-1.9955,-1.9359,-1.9973,-2.0257,-2.0092,-2.1,-2.1841,-2.2417,-2.2799,-2.3377,0.0,-2.4815,0.0,0.0,0.0,0.0,0.0,0.0,0.0,0.0,-3.3371,-3.463,-3.5124,-3.4512,-3.3805,-3.3215,-3.3032,-3.2377,-3.108,-3.211,-3.2641,-3.1929,-3.2444,-3.2892,-3.2898,-3.2243,-3.1833,-3.216,-3.1421,-3.1304,-3.2065,-3.2327,-3.2577,-3.2876,-3.3145,-3.3229,-3.3018,-3.2865,-3.2902,-3.2655,-3.2784,-3.2895,-3.2678,-3.2637,-3.2801,-3.1712,-3.2019,-3.1954,-3.063,-3.0592,-3.0823,-3.0165,-3.0029,-2.9833,-2.9262,-2.9315,-2.9953,-3.1359,-3.198,-3.2246,-3.4925,-3.4814,-3.5639,-3.6318,-3.6823,-3.6736,-3.6677,-3.6729,-3.8098,-3.8597,-3.85,-3.8354,-3.7898,-3.7239,-3.7166,-3.6745,-3.5975,-3.4507,-3.3717,-3.347,-3.1966,-3.1032,-3.0582,-3.0383,-2.9751,-2.8793,-2.8519,-2.7698,-2.6318,-2.6132,-2.6004,-2.593,-2.4611,-2.4259,-2.4798,0.0,0.0,0.0,-2.133,-2.0807,-2.0377,-2.0737,-2.0586,-1.9875,-2.0155,0.0,-2.0264,-2.0529,-2.0884,-2.1267,-2.196,0.0,0.0,0.0,0.0,0.0,0.0,0.0,0.0,0.0,0.0,0.0,-2.8594,-3.0409,-3.2247,-3.3825,-3.479,-3.4908,-3.4325,-3.3944,-3.3936,-3.2786,-3.1952,-3.1715,-3.1404,-3.0878,-3.0111,-3.0189,-3.0232,-3.0239,-3.0133,-3.0604,-3.175,-3.1948,-3.1831,-3.1854,-3.2097,-3.187,-3.132,-3.2278,-3.3072,-3.3083,-3.2609,-3.2581,-3.2477,-3.1788,-3.1071,-3.029,-2.9434,-2.8894,-2.8227,-2.7903,-2.7761,-2.7242,-2.709,-2.7446,-2.7682,-2.7683,-2.771,-2.7496,-2.7977,-2.851,-2.8823,-2.9379,-2.9743,-3.3963,0.0,-3.3952,-3.4225,0.0,-3.4153,-3.3478,-3.2878,-3.6193,-3.7637,-3.7568,-3.6338,-3.5524,-3.5078,-3.4187,-3.3527,-3.3042,-3.2085,-3.1648,-3.1572,-3.0614,-2.9856,-2.9308,-2.8828,-2.7638,-2.5879,-2.5914,-2.5234,-2.3975,-2.3921,-2.3888,-2.3799,-2.2915,-2.2713,-2.3065,-2.1714,-2.0916,-2.077,-2.0123,-1.9623,-1.9235,-1.9613,-1.9652,-1.9363,0.0,0.0,0.0,0.0,0.0,0.0,0.0,0.0,0.0,0.0,0.0,-2.4719,-2.5091,-2.5227,-2.5127,-2.5698,-2.6158,-2.6394,-2.7565,-2.9383,-3.1868,-3.2885,-3.3484,-3.3601,-3.3401,-3.3172,-3.2904,-3.2212,-3.1622,-3.128,-3.0923,-3.0516,-3.0183,-3.0126,-3.0134,-3.004,-2.9428,-2.9316,-3.0113,-2.9416,-2.9181,-2.9506,-2.9575,-2.9647,-2.9687,-3.0561,-3.115,-3.0646,-3.0421,-3.0218,-3.0091,-3.0021,-2.9641,-2.8989,-2.8759,-2.8429,-2.7932,-2.7724,-2.7479,-2.6934,-2.673,-2.6729,-2.648,-2.6483,-2.6458,-2.6443,-2.6728,-2.6961,-2.6898,-2.7738,-2.8523,-3.2537,-3.2545,-3.1781,-3.1504,-3.1636,-3.1495,-3.0696,-2.9795,0.0,0.0,0.0,-3.3682,-3.2773,-3.2676,-3.1261,-3.0586,-3.0501,-3.0132,-2.9963,-2.9929,-2.9366,-2.8599,-2.7669,-2.6897,-2.5276,-2.3027,-2.3109,-2.2775,-2.2012,-2.1983,-2.1935,-2.185,-2.1634,-2.1456,-2.124,-2.0264,-1.9705,-1.9596,-1.8945,-1.8408,-1.8103,-1.8498,-1.8732,-1.8788,-1.9075,-1.9375,-1.9645,-1.9885,-2.0065,-2.0125,-2.0657,-2.1386,-2.2301,-2.2687,-2.3436,-2.4639,-2.497,-2.5342,-2.5896,-2.5514,-2.5544,-2.6133,-2.6992,-2.8487,-3.0888,-3.1384,-3.1634,-3.1808,-3.2039,-3.1943,-3.1431,-3.1291,-3.1042,-3.0438,-3.0314,-3.0179,-3.0022,-3.0092,-2.9881,-2.9806,-2.8569,-2.7913,-2.8051,-2.7038,-2.6161,-2.6862,-2.7288,-2.7106,-2.7787,-2.8685,-2.9082,-2.8433,-2.8364,-2.7915,-2.7706,-2.7932,-2.819,-2.7971,-2.8185,-2.846,-2.8315,-2.8206,-2.7812,-2.6736,-2.6789,-2.6405,-2.5883,-2.5745,-2.5696,-2.5647,-2.5604,-2.5519,-2.5374,-2.6216,-2.7073,-2.9441,-2.9964,-2.9177,-2.923,-2.9796,-2.9118,-2.9076,-2.9553,-3.0253,-3.0973,-3.1621,-3.1234,-3.1047,-3.1028,-3.0787,-3.0634,-3.0474,-2.901,-2.8309,0.0,-2.5917,-2.4749,-2.4492,-2.3562,-2.2867,-2.2421,-2.2308,-2.217,-2.193,-2.1847,-2.18,-2.1622,-2.0914,-2.0101,-1.9291,-1.8412,-1.7914,-1.779,-1.8281,-1.8345,-1.8027,-1.8532,-1.8635,-1.8318,-1.8719,-1.9389,-2.0246,-2.0142,-2.0606,-2.1704,-2.1855,-2.2,-2.2201,-2.2539,-2.2922,-2.3367,-2.3738,-2.4099,-2.4478,-2.4661,-2.5074,-2.5764,-2.6731,-2.7901,-2.9237,-2.9706,-2.9964,-3.0075,-3.0297,-3.0462,-3.0426,-2.9924,-2.9593,-2.9536,-2.8968,-2.829,-2.7717,-2.7679,-2.7504,-2.6869,-2.6249,-2.6431,-2.702,-2.6846,-2.6535,-2.6867,-2.6589,-2.6674,-2.6334,-2.7332,-2.8126,-2.8086,-2.7981,-2.783,-2.7471,-2.7001,-2.6707,-2.6365,-2.5874,-2.5645,-2.5578,-2.5411,-2.5221,-2.4774,-2.472,-2.4683,-2.4978,-2.5044,-2.4974,-2.4927,-2.4879,-2.4628,-2.3974,-2.4085,-2.4476,-2.8769,-2.9355,-2.8632,-2.8749,-2.9392,-2.8143,-2.7792,-2.8083,-2.7629,-2.8723,-3.0613,-2.978,-2.9327,-2.9216,-2.7897,-2.7229,-2.7116,-2.5855,-2.5251,-2.5089,-2.3914,-2.316,-2.2814,-2.2593,-2.1952,-2.1029,-2.1344,-2.1194,-2.0633,-2.0541,-2.0462,-2.0292,-1.9411,-1.848,-1.7626,-1.7149,-1.6816,-1.6712,-1.7448,-1.7716,-1.7415,-1.7946,-1.8243,-1.8303,-1.8372,-1.8731,-1.9452,-1.934,-1.9659,-2.0613,-2.0659,-2.1069,-2.1926,-2.222,-2.2627,-2.3345,-2.3651,-2.3951,-2.429,-2.4355,-2.4427,-2.4581,-2.5499,-2.615,-2.6415,-2.7529,-2.8221,-2.8347,-2.8594,-2.8796,-2.8886,-2.8632,-2.855,-2.8683,-2.834,-2.7993,-2.7707,-2.7663,-2.7549,-2.7088,-2.6255,-2.587,-2.6242,-2.5483,-2.4898,-2.488,-2.4895,-2.4692,-2.4322,-2.4877,-2.5746,-2.6463,-2.6621,-2.6535,-2.6425,-2.6048,-2.566,-2.5461,-2.5062,-2.4695,-2.458,-2.4426,-2.4321,-2.4228,-2.4077,-2.4103,-2.436,-2.4292,-2.4222,-2.4144,-2.4121,-2.3815,-2.3431,-2.3241,-2.3432,-2.8184,-2.8834,-2.8014,-2.794,-2.8196,-2.6944,-2.628,-2.6026,-2.5382,-2.6582,-2.8691,-2.7832,-2.724,-2.6838,-2.4963,-2.4089,-2.3926,-2.331,-2.2987,-2.29,-2.268,-2.2296,-2.1884,-2.2018,-2.1274,-2.0005,-2.0289,-2.0017,-1.9305,-1.897,-1.8764,-1.857,-1.7882,-1.7157,-1.6471,-1.6161,-1.5973,-1.5871,-1.6448,-1.6721,-1.6684,-1.7042,-1.7501,-1.7922,-1.7762,-1.792,-1.8556,-1.8501,-1.8696,-1.928,-1.9374,-1.9972,-2.1098,-2.1451,-2.202,-2.2834,-2.3259,-2.3712,-2.4282,-2.4361,-2.4249,-2.3912,-2.4378,-2.4541,-2.4211,-2.5149,-2.6163,-2.658,-2.6902,-2.7071,-2.716,-2.7257,-2.7323,-2.7283,-2.7239,-2.7006,-2.7054,-2.7085,-2.7145,-2.6978,-2.593,-2.5074,-2.488,-2.3944,-2.3183,-2.2987,-2.2674,-2.2574,-2.2742,-2.2808,-2.3481,-2.4715,-2.524,-2.5345,-2.5263,-2.5311,-2.5214,-2.5057,-2.4964,-2.4798,-2.4689,-2.458,-2.4464,-2.4321,-2.4247,-2.4132,-2.3917,-2.3852,-2.3804,-2.3723,-2.3674,-2.3534,-2.3354,-2.3193,-2.3119,-2.6342,-2.6942,-2.6204,-2.5425,-2.4856,-2.4654,-2.4163,-2.3501,-2.3306,-2.3416,-2.4063,-2.4452,-2.4354,-2.3609,-2.3347,-2.322,-2.3191,-2.3061,-2.294,-2.2824,-2.2156,-2.1746,-2.1482,-2.0779,-2.026,-1.9848,-1.9209,-1.8763,-1.8472,-1.7612,-1.7055,-1.6854,-1.6691,-1.6506,-1.6247,-1.5563,-1.515,-1.5001,-1.5071,-1.5384,-1.5877,-1.5899,-1.617,-1.6735,-1.6586,-1.7043,-1.8199,-1.827,-1.8496,-1.9058,-1.9138,-1.9203,-1.9457,-2.0062,-2.057,-2.0924,-2.1687,-2.2745,-2.396,-2.4846,-2.4935,-2.4723,-2.4147,-2.3722,-2.3249,-2.2927,-2.3378,-2.4643,-2.5208,-2.5401,-2.5494,-2.5609,-2.5414,-2.4942,-2.4812,-2.4362,-2.3959,-2.3586,-2.356,-2.359,-2.365,-2.3339,-2.3398,-2.3086,-2.2715,-2.205,-2.1503,-2.1309,-2.1814,-2.1928,-2.2488,-2.392,-2.4453,-2.4743,-2.5174,-2.534,-2.5273,-2.5187,-2.5088,-2.4934,-2.4804,-2.4707,-2.4566,-2.4481,-2.4321,-2.419,-2.4074,-2.3933,-2.3786,-2.3682,-2.3589,-2.3471,-2.3336,-2.3217,-2.3144,-2.4277,-2.4574,-2.418,-2.3786,-2.3484,-2.3473,-2.3273,-2.2937,-2.2937,-2.2677,-2.228,-2.2598,-2.2859,-2.3063,-2.2558,-2.2324,-2.23,-2.1782,-2.1516,-2.1444,-2.0628,-2.0192,-2.0028,-1.9194,-1.8716,-1.8581,-1.8118,-1.7815,-1.762,-1.7098,-1.6543,-1.6002,-1.5849,-1.5544,-1.5018,-1.4589,-1.4355,-1.4309,-1.4296,-1.4424,-1.4725,-1.5361,-1.5787,-1.5903,-1.5833,-1.6215,-1.7103,-1.7212,-1.7699,-1.8693,-1.8782,-1.8936,-1.9378,-1.9728,-2.002,-2.0113,-2.0254,-2.07,-2.1499,-2.1948,-2.2384,-2.2851,-2.3135,-2.3052,-2.2601,-2.2776,-2.3168,-2.3392,-2.3606,-2.3724,-2.3851,-2.3925,-2.3851,-2.3581,-2.3547,-2.3446,-2.3157,-2.3096,-2.3103,-2.3066,-2.2636,-2.2322,-2.224,-2.1865,-2.1474,-2.1103,-2.0732,-2.0756,-2.1015,-2.1016,-2.1562,-2.2591,-2.3235,-2.4148,-2.5162,-2.5468,-2.5395,-2.5303,-2.5201,-2.5068,-2.4987,-2.487,-2.4757,-2.4647,-2.4498,-2.4339,-2.4191,-2.4113,-2.3994,-2.3831,-2.3594,-2.3494,-2.3407,-2.3313,-2.3217,-2.294,-2.292,-2.2888,-2.2692,-2.2492,-2.2481,-2.2319,-2.2119,-2.21,-2.1745,-2.1186,-2.1157,-2.1421,-2.185,-2.1547,-2.1331,-2.1031,-2.0429,-1.9999,-1.9739,-1.9114,-1.8815,-1.8706,-1.8154,-1.7761,-1.7615,-1.7292,-1.681,-1.6282,-1.5987,-1.5421,-1.4627,-1.4432,-1.4096,-1.3551,-1.3383,-1.3418,-1.3626,-1.3637,-1.3747,-1.405,-1.4827,-1.5312,-1.5318,-1.5259,-1.5491,-1.597,-1.5983,-1.6328,-1.7115,-1.7532,-1.7976,-1.8485,-1.9186,-1.9698,-1.9917,-1.9578,-1.946,-1.979,-1.9715,-2.0155,-2.1206,-2.1804,-2.1969,-2.1952,-2.227,-2.235,-2.2057,-2.201,-2.2188,-2.2805,-2.2926,-2.2918,-2.2741,-2.2718,-2.2689,-2.2395,-2.2382,-2.2323,-2.2318,-2.1764,-2.1442,-2.1377,-2.094,-2.0606,-2.0572,-2.0533,-2.0499,-2.051,-2.0555,-2.0852,-2.1678,-2.2539,-2.3622,-2.4966,-2.5451,-2.5453,-2.5414,-2.5311,-2.5243,-2.5157,-2.5038,-2.4926,-2.4808,-2.4673,-2.4528,-2.4355,-2.4266,-2.4152,-2.3896,-2.3707,-2.3594,-2.3544,-2.3453,-2.336,-2.2802,-2.2752,-2.2726,-2.2142,-2.1472,-2.1388,-2.091,-2.0308,-2.0231,-2.0136,-2.0117,-2.0079,-1.9722,-1.9292,-2.0025,-2.0025,-1.9395,-1.9296,-1.886,-1.8203,-1.8005,-1.7955,-1.7955,-1.7913,-1.7801,-1.7498,-1.6779,-1.5586,-1.4015,-1.3691,-1.3063,-1.2284,-1.2303,-1.2122,-1.2119,-1.21,-1.2281,-1.2908,-1.3016,-1.3374,-1.3984,-1.4199,-1.4502,-1.4908,-1.4864,-1.4848,-1.4848,-1.4743,-1.4468,-1.3735,-1.5203,-1.5955,-1.6104,-1.798,-1.9464,-2.0166,-1.9878,-1.9681,-1.9661,-1.9255,-1.9406,-2.0276,-2.0059,-2.0153,-2.0797,-2.0497,-2.0346,-2.0416,-2.0513,-2.1095,-2.2437,-2.2641,-2.2498,-2.1929,-2.1854,-2.1519,-2.0799,-2.0892,-2.0646,-2.0728,-2.0734,-2.0682,-2.0609,-2.0546,-2.0484,-2.0465,-2.0488,-2.0492,-2.048,-2.0487,-2.0851,-2.1547,-2.2383,-2.3337,-2.4278,-2.5141,-2.5517,-2.5496,-2.5441,-2.5374,-2.5274,-2.5184,-2.5091,-2.4987,-2.4847,-2.4697,-2.4522,-2.4372,-2.4211,-2.4039,-2.3901,-2.3816,-2.3771,-2.366,-2.3571,-2.0986,-2.0937,-2.0877,-2.0614,-2.0331,-2.0255,-2.0007,-1.9707,-1.9682,-1.9651,-1.952,-1.9136,-1.8798,-1.856,-1.8401,-1.8344,-1.83,-1.8294,-1.8147,-1.7838,-1.7333,-1.7068,-1.7012,-1.6572,-1.6274,-1.6146,-1.5862,-1.5025,-1.379,-1.3062,-1.2543,-1.225,-1.2114,-1.2096,-1.2077,-1.203,-1.2139,-1.2349,-1.2404,-1.2819,-1.3569,-1.3669,-1.4015,-1.4708,-1.4527,-1.463,-1.5097,-1.4559,-1.4335,-1.4533,-1.4611,-1.4565,-1.4672,-1.629,-1.7787,-1.8626,-1.8628,-1.8371,-1.8027,-1.7866,-1.795,-1.8328,-1.8315,-1.8394,-1.8726,-1.8646,-1.8751,-1.9341,-1.9551,-2.0152,-2.1009,-2.1386,-2.1285,-2.106,-2.0955,-2.0878,-2.0611,-2.0514,-2.049,-2.0437,-2.04,-2.0357,-2.0301,-2.0314,-2.0314,-2.0295,-2.0301,-2.0313,-2.0319,-2.033,-2.0496,-2.0861,-2.1551,-2.2403,-2.3299,-2.4746,-2.5568,-2.5567,-2.5535,-2.5502,-2.5421,-2.5356,-2.5281,-2.5186,-2.5046,-2.4924,-2.4761,-2.461,-2.4435,-2.4317,-2.4192,-2.4118,-2.4037,-2.3959,-2.3837,-1.9873,-1.9755,-1.9726,-1.965,-1.9545,-1.9472,-1.9239,-1.8941,-1.889,-1.8713,-1.8386,-1.7882,-1.747,-1.6978,-1.6444,-1.6026,-1.606,-1.6798,-1.7034,-1.6579,-1.6246,-1.611,-1.6033,-1.5574,-1.5312,-1.5231,-1.4985,-1.4256,-1.307,-1.2341,-1.1876,-1.1579,-1.1553,-1.1506,-1.1474,-1.1453,-1.1513,-1.1727,-1.1821,-1.2219,-1.2998,-1.3384,-1.3774,-1.4308,-1.4447,-1.4511,-1.4715,-1.4198,-1.3834,-1.3896,-1.3973,-1.3902,-1.372,-1.4892,-1.6258,-1.7326,-1.7371,-1.7241,-1.7059,-1.6896,-1.6843,-1.6895,-1.7026,-1.7205,-1.7579,-1.7664,-1.8037,-1.8547,-1.8721,-1.9041,-1.9469,-1.9647,-1.9843,-2.0312,-2.0481,-2.046,-2.0445,-2.0424,-2.0355,-2.0257,-2.0188,-2.0153,-2.012,-2.0093,-2.0112,-2.0093,-2.0082,-2.0071,-2.0071,-2.0107,-2.0134,-2.0219,-2.097,-2.1818,-2.2706,-2.3971,-2.5156,-2.5309,-2.5544,-2.5544,-2.5519,-2.5479,-2.544,-2.5372,-2.5262,-2.5148,-2.5,-2.4854,-2.4747,-2.4647,-2.4561,-2.4484,-2.4386,-2.4284,-2.4174,-1.9638,-1.9425,-1.9476,-1.9195,-1.8971,-1.8875,-1.8487,-1.7758,-1.7549,-1.7104,-1.6534,-1.6317,-1.5444,-1.4441,-1.4178,-1.3375,-1.2835,-1.4717,-1.5213,-1.4252,-1.4774,-1.5111,-1.5163,-1.5082,-1.4965,-1.4882,-1.4275,-1.3079,-1.1657,-1.1411,-1.0957,-1.0312,-1.0302,-1.0331,-1.0064,-1.0236,-1.0499,-1.1015,-1.1164,-1.1564,-1.2396,-1.3122,-1.3573,-1.3837,-1.443,-1.4433,-1.3633,-1.3583,-1.2964,-1.1871,-1.3234,-1.3877,-1.3183,-1.3864,-1.5132,-1.6469,-1.6346,-1.6448,-1.6999,-1.6521,-1.6189,-1.6253,-1.6336,-1.6709,-1.7268,-1.7501,-1.7624,-1.7818,-1.7869,-1.7948,-1.8031,-1.8086,-1.8643,-2.0102,-2.0237,-2.0206,-2.0288,-2.0236,-2.0153,-2.0021,-1.9925,-1.9876,-1.988,-1.9817,-1.9787,-1.9805,-1.9768,-1.9719,-1.9707,-1.9719,-1.9768,-1.9892,-2.0334,-2.1005,-2.207,-2.3177,-2.4208,-2.5031,-2.5356,-2.5522,-2.5507,-2.5467,-2.5473,-2.5421,-2.5367,-2.5253,-2.5197,-2.506,-2.5043,-2.4941,-2.4884,-2.4816,-2.4737,-2.462,-2.4538,-1.8531,-1.8302,-1.7687,-1.7333,-1.7207,-1.7075,-1.6799,-1.6396,-1.587,-1.5383,-1.4949,-1.3978,-1.3246,-1.2808,-1.2259,-1.1455,-1.068,-1.2067,-1.2895,-1.3308,-1.3693,-1.4158,-1.4538,-1.4239,-1.3773,-1.3277,-1.2508,-1.1904,-1.1324,-1.0742,-1.0253,-1.0078,-1.0038,-1.0017,-0.9997,-1.0016,-1.0172,-1.0327,-1.0367,-1.0758,-1.1501,-1.1852,-1.2282,-1.2869,-1.3182,-1.3355,-1.3623,-1.373,-1.3236,-1.2157,-1.2217,-1.2356,-1.2559,-1.2906,-1.3857,-1.528,-1.5423,-1.5393,-1.569,-1.5609,-1.5492,-1.5544,-1.5601,-1.5747,-1.602,-1.6129,-1.6387,-1.6824,-1.6902,-1.7064,-1.7586,-1.7658,-1.8026,-1.9141,-1.9322,-1.9542,-1.9827,-1.9888,-1.9809,-1.9688,-1.9569,-1.9457,-1.9355,-1.9313,-1.9269,-1.9251,-1.9203,-1.9169,-1.9169,-1.9151,-1.9169,-1.9258,-1.9682,-2.0041,-2.0945,-2.1824,-2.2744,-2.3951,-2.4651,-2.5207,-2.5279,-2.5356,-2.5388,-2.5407,-2.537,-2.5336,-2.5304,-2.5269,-2.5196,-2.5208,-2.5142,-2.5073,-2.5043,-2.4945,-2.4815,-1.7669,-1.7201,-1.6556,-1.6216,-1.5993,-1.5627,-1.5175,-1.4653,-1.387,-1.3294,-1.2723,-1.186,-1.1234,-1.0922,-1.039,-0.9742,-0.914,-0.9572,-1.0397,-1.1547,-1.2354,-1.289,-1.3338,-1.3058,-1.2437,-1.1817,-1.1283,-1.0902,-1.0606,-1.0106,-0.9831,-0.9834,-0.9862,-0.9843,-0.9804,-0.982,-0.9818,-0.9806,-0.9803,-1.0054,-1.048,-1.085,-1.1267,-1.1796,-1.2145,-1.2564,-1.304,-1.3151,-1.2987,-1.2399,-1.1456,-1.1089,-1.1436,-1.1552,-1.2303,-1.3621,-1.4074,-1.4235,-1.457,-1.4966,-1.4944,-1.4802,-1.498,-1.5185,-1.5186,-1.5165,-1.5426,-1.5748,-1.581,-1.5984,-1.6359,-1.6375,-1.6576,-1.6953,-1.7791,-1.8344,-1.8751,-1.8902,-1.8846,-1.8709,-1.8788,-1.8819,-1.8735,-1.8646,-1.8574,-1.8537,-1.8464,-1.8392,-1.8392,-1.8355,-1.8373,-1.8374,-1.8464,-1.8984,-1.9685,-2.0497,-2.1292,-2.2548,-2.3785,-2.4426,-2.486,-2.4992,-2.5054,-2.5143,-2.5133,-2.5161,-2.5132,-2.5206,-2.5194,-2.5252,-2.5205,-2.5188,-2.509,-2.5128,-2.504,-1.7005,-1.6131,-1.5836,-1.5452,-1.5109,-1.432,-1.3416,-1.2586,-1.1733,-1.0921,-1.0278,-0.9912,-0.9396,-0.8814,-0.8646,-0.8241,-0.765,-0.7591,-0.8003,-0.8955,-1.0021,-1.0907,-1.1282,-1.1434,-1.1045,-1.0422,-1.0343,-1.0049,-0.955,-0.9424,-0.9463,-0.9457,-0.9451,-0.9488,-0.9376,-0.9426,-0.9363,-0.9284,-0.9342,-0.936,-0.9407,-1.0061,-1.048,-1.054,-1.1162,-1.1596,-1.1745,-1.179,-1.1963,-1.2055,-1.0788,-1.0059,-0.9972,-0.9953,-1.0846,-1.2224,-1.2397,-1.2808,-1.355,-1.401,-1.434,-1.3956,-1.4396,-1.4927,-1.4855,-1.4833,-1.4811,-1.4832,-1.477,-1.4663,-1.4621,-1.4489,-1.4429,-1.4416,-1.594,-1.6834,-1.6766,-1.7243,-1.7392,-1.733,-1.771,-1.8058,-1.7752,-1.7702,-1.7662,-1.7557,-1.7468,-1.7367,-1.7327,-1.7288,-1.7361,-1.7344,-1.726,-1.7513,-1.8127,-1.9111,-1.9877,-2.0605,-2.2052,-2.3143,-2.4027,-2.4308,-2.4479,-2.4583,-2.4636,-2.4745,-2.4827,-2.4772,-2.4844,-2.4839,-2.489,-2.5052,-2.506,-2.4963,-2.4915,-1.5819,-1.4848,-1.3599,-1.289,-1.2529,-1.1671,-1.1027,-1.0499,-0.968,-0.91,-0.8645,-0.7997,-0.7593,-0.7256,-0.714,-0.695,-0.6733,-0.6579,-0.6571,-0.6816,-0.7182,-0.8334,-0.9356,-0.9739,-0.9463,-0.8845,-0.8874,-0.8821,-0.8685,-0.8674,-0.8687,-0.8714,-0.8689,-0.8689,-0.868,-0.8615,-0.8572,-0.852,-0.852,-0.852,-0.854,-0.8708,-0.8849,-0.8883,-0.9138,-0.9549,-1.0008,-1.0094,-1.0424,-1.1024,-1.0171,-0.9573,-0.9575,-0.9594,-0.9858,-1.0311,-1.0469,-1.0766,-1.1503,-1.194,-1.241,-1.3289,-1.3535,-1.3852,-1.4297,-1.4301,-1.4253,-1.4142,-1.4029,-1.3915,-1.3819,-1.3608,-1.3351,-1.326,-1.4432,-1.5487,-1.5779,-1.5958,-1.5913,-1.579,-1.6113,-1.6269,-1.6223,-1.6271,-1.6364,-1.625,-1.6129,-1.6033,-1.6002,-1.5975,-1.596,-1.6006,-1.5991,-1.6149,-1.662,-1.7616,-1.8361,-1.8776,-2.0009,-2.1498,-2.2473,-2.3268,-2.3455,-2.3603,-2.3508,-2.3553,-2.3798,-2.3911,-2.4082,-2.4028,-2.417,-2.4152,-2.4396,-2.4438,-2.4426,-1.4463,-1.3241,-1.2171,-1.1394,-1.0784,-0.9825,-0.9248,-0.8842,-0.7986,-0.7454,-0.7166,-0.6679,-0.6281,-0.6094,-0.6012,-0.5868,-0.5719,-0.561,-0.5526,-0.5441,-0.5507,-0.6364,-0.7481,-0.7913,-0.7768,-0.7503,-0.7529,-0.7626,-0.769,-0.7744,-0.7726,-0.7695,-0.7684,-0.7669,-0.7627,-0.7601,-0.7562,-0.7495,-0.7523,-0.7525,-0.7483,-0.7498,-0.7497,-0.7498,-0.7528,-0.7809,-0.8167,-0.8183,-0.8624,-0.9302,-0.9189,-0.8957,-0.8993,-0.9028,-0.9045,-0.9096,-0.9114,-0.9372,-0.9812,-1.0175,-1.0921,-1.1913,-1.2356,-1.2913,-1.3355,-1.3485,-1.3432,-1.3277,-1.3155,-1.3042,-1.289,-1.2644,-1.2307,-1.2044,-1.2629,-1.3396,-1.4024,-1.4153,-1.4147,-1.4145,-1.4459,-1.4816,-1.4637,-1.4845,-1.4906,-1.4814,-1.4665,-1.4605,-1.453,-1.4469,-1.4455,-1.4441,-1.4471,-1.4516,-1.4746,-1.5567,-1.6336,-1.6824,-1.7719,-1.9298,-2.0492,-2.1576,-2.1927,-2.2012,-2.2195,-2.2317,-2.2371,-2.2491,-2.2602,-2.2665,-2.2942,-2.3083,-2.318,-2.3196,-2.3316,-1.3061,-1.1528,-1.1185,-1.0527,-0.9618,-0.8599,-0.794,-0.7548,-0.6709,-0.6159,-0.592,-0.5698,-0.5425,-0.5192,-0.5087,-0.4914,-0.4682,-0.4604,-0.4475,-0.4387,-0.4407,-0.4924,-0.5689,-0.6175,-0.6276,-0.6299,-0.6369,-0.6473,-0.6532,-0.6581,-0.6568,-0.6513,-0.6513,-0.6474,-0.6429,-0.6397,-0.6373,-0.6294,-0.6331,-0.6331,-0.6294,-0.6323,-0.6294,-0.6282,-0.6323,-0.6365,-0.6432,-0.6465,-0.6823,-0.7768,-0.7995,-0.8064,-0.8116,-0.8165,-0.8201,-0.8188,-0.82,-0.8256,-0.8422,-0.8993,-0.9649,-1.0376,-1.1084,-1.1811,-1.2212,-1.2348,-1.229,-1.2142,-1.2085,-1.1876,-1.1652,-1.1365,-1.105,-1.0759,-1.0609,-1.0828,-1.1402,-1.2037,-1.2302,-1.2096,-1.2853,-1.3177,-1.3258,-1.332,-1.3415,-1.3132,-1.3023,-1.291,-1.283,-1.2784,-1.275,-1.2728,-1.2741,-1.2765,-1.3079,-1.3483,-1.416,-1.4778,-1.556,-1.6798,-1.8092,-1.9061,-1.9776,-2.013,-2.0083,-2.0175,-2.0346,-2.0559,-2.0692,-2.0883,-2.0883,-2.1166,-2.1431,-2.1395,-2.1437,-1.1967,-1.0373,-0.9593,-0.8952,-0.8345,-0.7358,-0.6719,-0.6385,-0.5845,-0.5409,-0.5145,-0.4876,-0.4593,-0.4344,-0.4183,-0.4022,-0.3831,-0.3667,-0.3502,-0.3321,-0.3202,-0.33,-0.3847,-0.4512,-0.5019,-0.5103,-0.5149,-0.5233,-0.5289,-0.5315,-0.5289,-0.5287,-0.5284,-0.5233,-0.5149,-0.5129,-0.5074,-0.5018,-0.5027,-0.5083,-0.5093,-0.5093,-0.5074,-0.5046,-0.5046,-0.5037,-0.5037,-0.5065,-0.5174,-0.5553,-0.6261,-0.6753,-0.6903,-0.6977,-0.7008,-0.7054,-0.7112,-0.7156,-0.7271,-0.7474,-0.7966,-0.8924,-0.9354,-0.9831,-1.0791,-1.0964,-1.0926,-1.0841,-1.0704,-1.0443,-1.0171,-0.9929,-0.9667,-0.9385,-0.9138,-0.8995,-0.9165,-0.9881,-1.0325,-1.0315,-1.0528,-1.0778,-1.0896,-1.1256,-1.1376,-1.1361,-1.1289,-1.119,-1.1105,-1.1047,-1.1036,-1.1052,-1.1062,-1.1062,-1.1239,-1.1616,-1.2138,-1.2656,-1.3356,-1.3887,-1.5193,-1.6232,-1.6837,-1.7386,-1.7824,-1.7946,-1.7967,-1.8143,-1.8209,-1.849,-1.8747,-1.8867,-1.9012,-1.9211,-1.9329,-1.0543,-0.9321,-0.8611,-0.7938,-0.7223,-0.6433,-0.5902,-0.5523,-0.5126,-0.4738,-0.4401,-0.409,-0.3805,-0.3494,-0.3307,-0.3138,-0.2885,-0.2698,-0.2526,-0.2397,-0.2315,-0.2315,-0.238,-0.2973,-0.3468,-0.3849,-0.3971,-0.4031,-0.4091,-0.4111,-0.4123,-0.4111,-0.4091,-0.4023,-0.3958,-0.393,-0.3902,-0.3862,-0.3842,-0.3882,-0.389,-0.389,-0.391,-0.389,-0.3862,-0.387,-0.391,-0.387,-0.3834,-0.398,-0.4431,-0.5086,-0.5615,-0.5733,-0.5774,-0.5844,-0.5879,-0.593,-0.5965,-0.6159,-0.6622,-0.753,-0.7828,-0.8417,-0.9032,-0.9339,-0.9312,-0.9233,-0.9129,-0.8931,-0.866,-0.8492,-0.8265,-0.8004,-0.7739,-0.7492,-0.7463,-0.8189,-0.8786,-0.8695,-0.8995,-0.9087,-0.9224,-0.9442,-0.9579,-0.9733,-0.9568,-0.947,-0.944,-0.9352,-0.9322,-0.9313,-0.9331,-0.9367,-0.9466,-0.9762,-1.0178,-1.0597,-1.0948,-1.1314,-1.191,-1.2829,-1.3701,-1.4429,-1.5253,-1.5281,-1.5338,-1.5545,-1.5664,-1.5794,-1.6018,-1.622,-1.6397,-1.6467,-1.6573,-0.9102,-0.8214,-0.7811,-0.7112,-0.6254,-0.572,-0.5298,-0.4933,-0.4481,-0.4078,-0.3681,-0.3361,-0.306,-0.2708,-0.2536,-0.2254,-0.1971,-0.1752,-0.1617,-0.1551,-0.1529,-0.1529,-0.1595,-0.1745,-0.2064,-0.2714,-0.2885,-0.2943,-0.3027,-0.3054,-0.3111,-0.3048,-0.2991,-0.2991,-0.2933,-0.2842,-0.2858,-0.2858,-0.2852,-0.2858,-0.2858,-0.2837,-0.2837,-0.2831,-0.281,-0.281,-0.2837,-0.2789,-0.2704,-0.2688,-0.2613,-0.3165,-0.3887,-0.4432,-0.4529,-0.4607,-0.4617,-0.4654,-0.4722,-0.4954,-0.5384,-0.6112,-0.6464,-0.6917,-0.742,-0.7651,-0.7671,-0.7596,-0.752,-0.7454,-0.7212,-0.7095,-0.6907,-0.661,-0.6309,-0.6044,-0.6014,-0.6691,-0.6978,-0.7324,-0.744,-0.7576,-0.7709,-0.7883,-0.7992,-0.8051,-0.7911,-0.7796,-0.7762,-0.7762,-0.7788,-0.7747,-0.7732,-0.7691,-0.7758,-0.7925,-0.8335,-0.854,-0.8806,-0.8996,-0.9144,-0.9715,-1.0772,-1.1944,-1.2616,-1.2663,-1.2701,-1.2829,-1.2959,-1.3087,-1.3233,-1.345,-1.3552,-1.3718,-1.3811,-0.7976,-0.7056,-0.6639,-0.6177,-0.5701,-0.5223,-0.4796,-0.4389,-0.3885,-0.346,-0.312,-0.2751,-0.238,-0.2062,-0.1843,-0.1554,-0.1245,-0.1023,-0.089,-0.0824,-0.0801,-0.0779,-0.0846,-0.0914,-0.1068,-0.1267,-0.1705,-0.2058,-0.2146,-0.2128,-0.2254,-0.2219,-0.2219,-0.2176,-0.2128,-0.2037,-0.2033,-0.2037,-0.2011,-0.1989,-0.2015,-0.1967,-0.1902,-0.1854,-0.1829,-0.1811,-0.1811,-0.1814,-0.1748,-0.1654,-0.1636,-0.1738,-0.2117,-0.2767,-0.312,-0.3281,-0.3342,-0.3419,-0.3519,-0.3675,-0.4068,-0.457,-0.4949,-0.5319,-0.5755,-0.6005,-0.6088,-0.6104,-0.6051,-0.5983,-0.5837,-0.5738,-0.556,-0.5286,-0.5092,-0.4859,-0.4668,-0.4801,-0.5239,-0.5702,-0.592,-0.6117,-0.63,-0.6428,-0.6538,-0.6629,-0.6584,-0.647,-0.6428,-0.6392,-0.6349,-0.6265,-0.618,-0.6101,-0.6027,-0.6231,-0.6507,-0.6612,-0.6806,-0.6976,-0.7068,-0.7079,-0.7846,-0.908,-0.9903,-1.0213,-1.0221,-1.0229,-1.0372,-1.0573,-1.0598,-1.0673,-1.0822,-1.1017,-1.1043,-0.7062,-0.6448,-0.6011,-0.5609,-0.5194,-0.4686,-0.4236,-0.3799,-0.33,-0.2863,-0.2488,-0.212,-0.177,-0.1469,-0.1178,-0.0914,-0.0648,-0.047,-0.038,-0.0335,-0.0268,-0.0268,-0.0335,-0.0403,-0.0515,-0.0671,-0.0985,-0.1294,-0.1474,-0.1585,-0.1607,-0.1629,-0.1629,-0.1607,-0.156,-0.1491,-0.1424,-0.138,-0.1336,-0.1292,-0.1292,-0.1201,-0.1112,-0.109,-0.1021,-0.1001,-0.1023,-0.0977,-0.0955,-0.0889,-0.0868,-0.08,-0.0895,-0.1162,-0.167,-0.2012,-0.2215,-0.2293,-0.2429,-0.2621,-0.297,-0.3273,-0.3605,-0.3935,-0.4245,-0.4474,-0.4601,-0.4575,-0.4544,-0.4492,-0.4428,-0.4364,-0.421,-0.4055,-0.3904,-0.3728,-0.3563,-0.3488,-0.38,-0.43,-0.4669,-0.4926,-0.5013,-0.5127,-0.5156,-0.5199,-0.5245,-0.5216,-0.5173,-0.5173,-0.5173,-0.5082,-0.5034,-0.4904,-0.4833,-0.4934,-0.5012,-0.5056,-0.5135,-0.5292,-0.5316,-0.5475,-0.5579,-0.6133,-0.6833,-0.7735,-0.7852,-0.7939,-0.8004,-0.8115,-0.8195,-0.8287,-0.8312,-0.8325,-0.8463,-0.6301,-0.5991,-0.5545,-0.5127,-0.4715,-0.4203,-0.3723,-0.3256,-0.2773,-0.232,-0.1902,-0.1554,-0.1247,-0.0916,-0.0581,-0.0291,-0.0157,-0.0022,0.0045,0.0067,0.009,0.009,0.0,-0.009,-0.0202,-0.0359,-0.0517,-0.0672,-0.1009,-0.1165,-0.1208,-0.125,-0.123,-0.123,-0.1183,-0.1118,-0.0983,-0.0916,-0.0847,-0.0781,-0.0669,-0.0558,-0.0491,-0.0536,-0.0424,-0.0379,-0.0446,-0.0379,-0.0312,-0.0246,-0.0202,-0.0136,-0.0023,0.0024,-0.0269,-0.0857,-0.1141,-0.1278,-0.1453,-0.1649,-0.1938,-0.2184,-0.2463,-0.2737,-0.2943,-0.3139,-0.3208,-0.318,-0.3245,-0.3273,-0.3277,-0.3184,-0.308,-0.2952,-0.2831,-0.2699,-0.2669,-0.2625,-0.2638,-0.3059,-0.3482,-0.3798,-0.4004,-0.4135,-0.4254,-0.4223,-0.4303,-0.4264,-0.422,-0.4176,-0.4176,-0.4045,-0.3953,-0.3822,-0.3778,-0.3873,-0.3909,-0.3873,-0.3955,-0.4094,-0.4064,-0.4009,-0.4168,-0.4378,-0.4707,-0.5508,-0.5584,-0.5864,-0.6176,-0.6328,-0.6067,-0.6063,-0.6269,-0.6264,-0.6308,-0.5793,-0.5442,-0.5069,-0.4637,-0.424,-0.3772,-0.3298,-0.2832,-0.2315,-0.1902,-0.1532,-0.1143,-0.0787,-0.0427,0.0022,0.0247,0.0337,0.0405,0.0472,0.0449,0.0472,0.0427,0.0337,0.0202,0.0045,-0.0135,-0.0337,-0.0517,-0.0764,-0.0856,-0.0919,-0.0961,-0.1003,-0.0959,-0.1005,-0.0875,-0.0719,-0.0652,-0.0539,-0.0404,-0.0269,-0.0157,-0.0067,0.0,0.0067,0.009,0.0045,0.009,0.0157,0.0247,0.0293,0.0419,0.0563,0.0597,0.0626,0.0401,0.0083,-0.0339,-0.056,-0.0794,-0.101,-0.1232,-0.1462,-0.1603,-0.1869,-0.2131,-0.2332,-0.2504,-0.2504,-0.2468,-0.2402,-0.2411,-0.2296,-0.2181,-0.2078,-0.1956,-0.1876,-0.198,-0.1982,-0.2037,-0.2522,-0.2859,-0.3114,-0.3258,-0.3347,-0.3347,-0.3347,-0.3347,-0.3347,-0.3347,-0.3303,-0.3255,-0.3167,-0.3034,-0.2967,-0.3027,-0.2973,-0.2863,-0.2918,-0.3014,-0.3074,-0.3019,-0.3019,-0.3178,-0.3456,-0.3729,-0.4168,-0.4446,-0.4618,-0.467,-0.4608,-0.4553,-0.4501,-0.4391,-0.4385,-0.5146,-0.4972,-0.4615,-0.4224,-0.38,-0.3311,-0.2885,-0.245,-0.1945,-0.1532,-0.1181,-0.0785,-0.0382,0.0045,0.0406,0.0539,0.0627,0.0739,0.0761,0.0715,0.0717,0.065,0.0495,0.0337,0.018,0.0022,-0.0225,-0.0451,-0.0608,-0.074,-0.0852,-0.0938,-0.0959,-0.0936,-0.0885,-0.0808,-0.0676,-0.0496,-0.0292,-0.0112,0.0022,0.0135,0.0225,0.0247,0.0359,0.0379,0.0379,0.0451,0.0496,0.059,0.0699,0.0849,0.0972,0.1052,0.1125,0.1088,0.0858,0.0527,0.0154,-0.0095,-0.0294,-0.0465,-0.0637,-0.0871,-0.1074,-0.1308,-0.144,-0.1542,-0.1609,-0.1644,-0.1659,-0.1623,-0.1557,-0.1492,-0.1426,-0.1366,-0.1326,-0.1339,-0.1404,-0.1446,-0.1565,-0.1945,-0.2283,-0.2456,-0.264,-0.2684,-0.2684,-0.264,-0.264,-0.2595,-0.2551,-0.2506,-0.2462,-0.2375,-0.2349,-0.2297,-0.2333,-0.2241,-0.2143,-0.2228,-0.224,-0.2186,-0.2242,-0.224,-0.246,-0.2681,-0.2903,-0.3181,-0.3461,-0.335,-0.3186,-0.3239,-0.3292,-0.307,-0.3065,-0.4446,-0.4386,-0.4158,-0.3828,-0.3402,-0.2896,-0.2507,-0.2132,-0.1642,-0.1247,-0.0849,-0.0427,0.0045,0.0405,0.063,0.0785,0.087,0.0959,0.0959,0.0914,0.0847,0.0782,0.0627,0.0449,0.027,0.0202,-0.0225,-0.0421,-0.0543,-0.0696,-0.0872,-0.1001,-0.1003,-0.0944,-0.0868,-0.0752,-0.0599,-0.0309,-0.0103,0.0062,0.0187,0.0312,0.0375,0.0461,0.0527,0.059,0.0569,0.0608,0.0648,0.0791,0.0929,0.105,0.1179,0.129,0.1376,0.1382,0.1268,0.111,0.0777,0.049,0.0301,0.0134,-0.0034,-0.0302,-0.0538,-0.0673,-0.0774,-0.0908,-0.0942,-0.0982,-0.0966,-0.0964,-0.0924,-0.0914,-0.0866,-0.0859,-0.0886,-0.089,-0.094,-0.1001,-0.1106,-0.1244,-0.1552,-0.1739,-0.1884,-0.202,-0.202,-0.202,-0.202,-0.2018,-0.2018,-0.2061,-0.2016,-0.193,-0.1832,-0.1753,-0.1722,-0.1646,-0.157,-0.156,-0.168,-0.1684,-0.1682,-0.1682,-0.1681,-0.1793,-0.2127,-0.224,-0.2296,-0.2406,-0.2462,-0.224,-0.2128,-0.1961,-0.1792,-0.38,-0.3598,-0.3612,-0.3402,-0.3014,-0.2616,-0.2202,-0.1825,-0.1408,-0.1003,-0.0603,-0.0022,0.036,0.0585,0.0851,0.1052,0.1094,0.123,0.1205,0.1139,0.1094,0.0961,0.076,0.0538,0.0336,0.0156,-0.0176,-0.0381,-0.0526,-0.0676,-0.0853,-0.0972,-0.1025,-0.0936,-0.082,-0.0707,-0.0491,-0.0214,0.0019,0.0128,0.0234,0.0337,0.0443,0.051,0.0575,0.0603,0.0588,0.0621,0.0721,0.088,0.1031,0.1202,0.1382,0.1469,0.1555,0.1572,0.1497,0.137,0.12,0.0932,0.0771,0.0606,0.037,0.0101,-0.0134,-0.0269,-0.0403,-0.0504,-0.0538,-0.0552,-0.0532,-0.0514,-0.0502,-0.052,-0.0536,-0.0509,-0.0522,-0.0528,-0.0532,-0.0582,-0.0718,-0.0897,-0.1075,-0.1345,-0.1569,-0.1705,-0.1794,-0.1794,-0.1749,-0.1748,-0.1703,-0.1703,-0.1658,-0.1573,-0.1447,-0.141,-0.144,-0.1394,-0.1292,-0.1271,-0.1345,-0.129,-0.129,-0.1346,-0.1345,-0.1346,-0.1346,-0.1513,-0.168,-0.1793,-0.1737,-0.1569,-0.1401,-0.1288,-0.1008,-0.3458,-0.3184,-0.3078,-0.2928,-0.2735,-0.2333,-0.1982,-0.1626,-0.1227,-0.0738,-0.0202,0.0247,0.0561,0.0784,0.1005,0.1208,0.1274,0.1296,0.1319,0.1319,0.1252,0.1094,0.0894,0.0663,0.0462,0.0273,-0.0041,-0.0316,-0.0451,-0.0639,-0.0862,-0.0984,-0.1027,-0.1014,-0.0893,-0.0683,-0.0425,-0.0166,0.006,0.0213,0.0322,0.042,0.0521,0.0622,0.0639,0.0656,0.0659,0.0708,0.0857,0.1002,0.1194,0.1379,0.1568,0.1687,0.1728,0.1705,0.1579,0.1483,0.1382,0.1145,0.0943,0.0707,0.0471,0.0302,0.0167,0.0034,-0.0066,-0.0132,-0.0205,-0.025,-0.0313,-0.0264,-0.0245,-0.0252,-0.0258,-0.0176,-0.0222,-0.0224,-0.0315,-0.0405,-0.0539,-0.0719,-0.0853,-0.1032,-0.1256,-0.1435,-0.1524,-0.1569,-0.1569,-0.1524,-0.1479,-0.1435,-0.139,-0.1353,-0.1226,-0.1193,-0.1207,-0.1093,-0.1021,-0.1044,-0.1066,-0.1066,-0.1066,-0.1066,-0.1066,-0.101,-0.1009,-0.0952,-0.1064,-0.1289,-0.1177,-0.0953,-0.0785,-0.0617,-0.0336,-0.3157,-0.2848,-0.2637,-0.2502,-0.2411,-0.2066,-0.1736,-0.1469,-0.1114,-0.0559,0.0112,0.0382,0.065,0.0916,0.1139,0.1274,0.1341,0.1388,0.141,0.141,0.1366,0.1211,0.1,0.0765,0.0512,0.0346,0.0074,-0.0196,-0.0321,-0.0548,-0.0727,-0.0884,-0.1028,-0.1043,-0.0923,-0.0668,-0.04,-0.0116,0.0111,0.0287,0.04,0.0505,0.0516,0.0596,0.0591,0.062,0.0655,0.0734,0.0862,0.104,0.1258,0.1538,0.169,0.1809,0.18,0.1747,0.1615,0.1449,0.1348,0.1179,0.101,0.0774,0.0639,0.05,0.0397,0.0269,0.0136,0.0065,0.0035,-0.0037,-0.0143,-0.0079,-0.0042,-0.0043,-0.0044,0.0,-0.0045,-0.009,-0.018,-0.0225,-0.0405,-0.0584,-0.0763,-0.0941,-0.1206,-0.1386,-0.1435,-0.1479,-0.1435,-0.1389,-0.1299,-0.1256,-0.1211,-0.113,-0.1051,-0.1062,-0.1064,-0.0892,-0.0811,-0.0884,-0.0841,-0.0841,-0.0841,-0.0897,-0.0841,-0.0729,-0.0673,-0.0672,-0.0729,-0.0841,-0.0673,-0.0505,-0.0336,-0.0224,0.0056,-0.2799,-0.2562,-0.2267,-0.2114,-0.2058,-0.1821,-0.156,-0.1272,-0.0916,-0.0447,0.009,0.0382,0.065,0.0916,0.1161,0.1319,0.1433,0.1524,0.1547,0.1524,0.1424,0.127,0.1055,0.0804,0.0543,0.0294,0.0067,-0.0095,-0.0198,-0.0445,-0.0583,-0.072,-0.0902,-0.1006,-0.0934,-0.0543,-0.0206,0.0068,0.0229,0.0376,0.0498,0.0601,0.0615,0.0578,0.0613,0.0675,0.0699,0.0758,0.0886,0.1034,0.1198,0.1398,0.1552,0.1633,0.164,0.1611,0.1512,0.1483,0.1484,0.1247,0.1044,0.0871,0.0701,0.0626,0.0486,0.0369,0.0248,0.0202,0.0111,0.004,0.0041,0.0084,0.013,0.0088,0.0089,0.0045,0.0,-0.0045,-0.0135,-0.027,-0.036,-0.0494,-0.0673,-0.0895,-0.1204,-0.1337,-0.1387,-0.1383,-0.137,-0.124,-0.1147,-0.1109,-0.1067,-0.0961,-0.0932,-0.0976,-0.0918,-0.074,-0.0652,-0.0722,-0.0673,-0.0673,-0.0673,-0.0729,-0.0617,-0.0505,-0.0449,-0.0393,-0.0393,-0.0336,-0.0336,-0.0168,0.0,0.0224,0.0505,-0.2498,-0.2202,-0.203,-0.1828,-0.1651,-0.1607,-0.1408,-0.105,-0.0604,-0.0202,0.0112,0.0428,0.0718,0.0961,0.1201,0.138,0.1516,0.1499,0.1547,0.1573,0.1417,0.1239,0.1023,0.081,0.0587,0.037,0.0162,0.0014,-0.0073,-0.0297,-0.0484,-0.0631,-0.0684,-0.0835,-0.0772,-0.0506,-0.0203,0.0133,0.0362,0.0562,0.0697,0.0797,0.0829,0.0763,0.0828,0.084,0.0838,0.0863,0.0933,0.1089,0.1248,0.1331,0.1466,0.1542,0.1512,0.1481,0.1415,0.1279,0.1247,0.1111,0.1044,0.0866,0.0717,0.0654,0.0548,0.0477,0.0382,0.0326,0.0234,0.0163,0.0121,0.0129,0.0133,0.0045,0.0,-0.0045,-0.009,-0.0135,-0.0225,-0.036,-0.045,-0.0583,-0.076,-0.0875,-0.1128,-0.1195,-0.1232,-0.1303,-0.1288,-0.1146,-0.0985,-0.0955,-0.0924,-0.0869,-0.0807,-0.0839,-0.0771,-0.0534,-0.0547,-0.0613,-0.0561,-0.0505,-0.0505,-0.0505,-0.0449,-0.0336,-0.0224,-0.0112,0.0112,0.0224,0.0224,0.028,0.0448,0.0728,0.1009,-0.2198,-0.1894,-0.1762,-0.1563,-0.1319,-0.1363,-0.1188,-0.0806,-0.0382,-0.0067,0.0202,0.0472,0.0763,0.1021,0.1195,0.1349,0.1519,0.1464,0.1426,0.1481,0.133,0.1158,0.0964,0.0806,0.0607,0.0418,0.0284,0.016,0.0024,-0.0132,-0.028,-0.0375,-0.0434,-0.0359,-0.0331,-0.0131,0.0064,0.0392,0.0652,0.0872,0.0969,0.1015,0.1033,0.1003,0.0984,0.0988,0.0992,0.1021,0.104,0.1191,0.1268,0.1297,0.1416,0.1447,0.1415,0.1348,0.1214,0.1078,0.1044,0.101,0.09,0.0811,0.0658,0.0616,0.0558,0.0419,0.036,0.0303,0.0328,0.0209,0.0084,0.0134,0.0045,-0.0045,-0.009,-0.0135,-0.009,-0.0135,-0.0225,-0.036,-0.0494,-0.0672,-0.0838,-0.0902,-0.1049,-0.1066,-0.1082,-0.1147,-0.118,-0.1019,-0.0879,-0.085,-0.0836,-0.0739,-0.0719,-0.0743,-0.0568,-0.0377,-0.0385,-0.0448,-0.0393,-0.0336,-0.0336,-0.028,-0.0224,-0.0112,0.0056,0.0224,0.0449,0.0617,0.0729,0.0785,0.0952,0.1844,0.2731,-0.1872,-0.167,-0.1474,-0.1296,-0.1116,-0.1141,-0.0897,-0.0516,-0.0292,0.0,0.0315,0.0514,0.0748,0.1043,0.1138,0.1248,0.1374,0.1325,0.1335,0.1302,0.1239,0.1077,0.0939,0.0807,0.0614,0.0453,0.033,0.0236,0.012,0.0072,-0.0025,-0.0031,0.0,0.0167,0.0302,0.0435,0.0531,0.075,0.0999,0.1168,0.1262,0.1321,0.1261,0.1202,0.1112,0.1084,0.1063,0.1069,0.109,0.116,0.1197,0.1249,0.1281,0.1281,0.1247,0.1145,0.101,0.0943,0.0908,0.0875,0.0836,0.0783,0.079,0.0676,0.0541,0.0395,0.0302,0.0199,0.0128,0.0088,0.0,-0.009,-0.0135,-0.0135,-0.018,-0.0135,-0.009,-0.0135,-0.018,-0.0315,-0.0405,-0.0578,-0.0817,-0.092,-0.0929,-0.0931,-0.091,-0.0901,-0.0945,-0.0925,-0.0824,-0.0795,-0.0744,-0.0654,-0.0631,-0.0603,-0.0471,-0.0219,-0.0166,-0.0224,-0.0168,-0.0112,-0.0056,-0.0056,0.0,0.0112,0.0336,0.0561,0.0785,0.1062,0.1745,0.2805,0.3447,0.5018,0.6182,-0.1651,-0.1408,-0.1296,-0.1116,-0.0894,-0.0694,-0.0561,-0.0404,-0.0112,0.0135,0.0314,0.0526,0.0721,0.0893,0.0962,0.1101,0.1195,0.1262,0.1283,0.1238,0.1154,0.1031,0.0892,0.0755,0.0589,0.0488,0.039,0.0326,0.0269,0.0244,0.0317,0.0346,0.0519,0.0764,0.0972,0.1139,0.1141,0.1176,0.141,0.1503,0.1565,0.1636,0.1546,0.1484,0.1373,0.1315,0.126,0.1134,0.1107,0.11,0.0989,0.0977,0.0943,0.0943,0.091,0.0908,0.0841,0.0841,0.0808,0.0808,0.0774,0.0743,0.0736,0.0679,0.0568,0.0411,0.0278,0.0168,0.0044,-0.0045,-0.0135,-0.0225,-0.027,-0.027,-0.027,-0.027,-0.0225,-0.0225,-0.0315,-0.0404,-0.0494,-0.0567,-0.0758,-0.0768,-0.0779,-0.0776,-0.0751,-0.0711,-0.0728,-0.0699,-0.0687,-0.0656,-0.0663,-0.0568,-0.0496,-0.0462,-0.0267,-0.0111,-0.0056,0.0056,0.0168,0.0224,0.0224,0.028,0.0393,0.0505,0.0729,0.0953,0.1177,0.2649,0.3487,0.4828,0.6205,0.8193,1.0004,-0.1383,-0.1139,-0.1054,-0.0828,-0.0559,-0.0337,-0.0202,-0.009,0.0067,0.0199,0.0361,0.0545,0.0694,0.0787,0.0852,0.0943,0.1106,0.108,0.1094,0.1082,0.1042,0.0935,0.0813,0.0714,0.0627,0.0535,0.049,0.0448,0.045,0.0572,0.0682,0.0846,0.1048,0.1326,0.1575,0.174,0.1807,0.1776,0.1811,0.1878,0.1911,0.1911,0.1878,0.1778,0.1678,0.1512,0.138,0.1145,0.1044,0.0977,0.0841,0.0808,0.0808,0.0808,0.0774,0.074,0.0707,0.0707,0.0737,0.0752,0.0742,0.0729,0.0702,0.0685,0.0592,0.0425,0.033,0.0219,0.0,-0.0135,-0.027,-0.036,-0.036,-0.0405,-0.0405,-0.045,-0.0405,-0.0405,-0.0449,-0.0537,-0.0616,-0.064,-0.07,-0.0669,-0.0638,-0.0571,-0.0554,-0.0482,-0.0498,-0.0529,-0.0509,-0.0479,-0.0485,-0.0434,-0.0351,-0.0208,-0.0054,0.0111,0.0168,0.028,0.0449,0.0561,0.0561,0.0673,0.0841,0.0953,0.1065,0.1345,0.1778,0.3156,0.516,0.7486,0.9817,1.2826,1.4508,-0.1094,-0.0847,-0.0719,-0.0495,-0.018,-0.0067,0.0112,0.0267,0.0243,0.0298,0.0439,0.0597,0.07,0.0741,0.0765,0.0847,0.0945,0.0948,0.094,0.0909,0.0905,0.0852,0.0811,0.0729,0.0682,0.0637,0.0624,0.0634,0.0689,0.0896,0.1188,0.1373,0.1679,0.1971,0.2211,0.2308,0.2374,0.2444,0.2344,0.2314,0.2147,0.2114,0.2047,0.188,0.168,0.1447,0.1212,0.1044,0.0841,0.0808,0.074,0.0707,0.0707,0.0707,0.0673,0.0673,0.0606,0.0631,0.0693,0.0711,0.0725,0.0753,0.0747,0.0757,0.0671,0.0446,0.0344,0.0177,0.0,-0.0225,-0.036,-0.045,-0.0539,-0.0494,-0.0539,-0.0539,-0.0539,-0.045,-0.0404,-0.0493,-0.0531,-0.0556,-0.0526,-0.0503,-0.0484,-0.0419,-0.0405,-0.0337,-0.0283,-0.03,-0.0271,-0.0279,-0.0268,-0.0196,0.0,0.0157,0.0271,0.0332,0.0447,0.0561,0.0785,0.0841,0.0897,0.1065,0.1288,0.1345,0.1457,0.1681,0.2106,0.3096,0.5629,0.9643,1.3007,1.6182,1.8809,-0.0805,-0.0584,-0.0404,-0.0247,-0.009,0.0067,0.0216,0.0305,0.0406,0.048,0.0556,0.0555,0.0594,0.0667,0.0685,0.0753,0.0829,0.0878,0.0861,0.0877,0.0877,0.0854,0.0818,0.0784,0.0751,0.0751,0.0774,0.0919,0.1112,0.1396,0.1769,0.2118,0.2389,0.2603,0.2775,0.2874,0.2907,0.2977,0.2878,0.2679,0.2444,0.2281,0.2183,0.1978,0.1742,0.1436,0.1201,0.0935,0.0737,0.0606,0.0471,0.0437,0.0471,0.047,0.0504,0.0538,0.0599,0.0621,0.067,0.0735,0.0794,0.0845,0.0861,0.0847,0.0761,0.0517,0.0307,0.0134,-0.0045,-0.027,-0.0405,-0.0539,-0.0629,-0.0629,-0.0584,-0.0584,-0.0584,-0.0494,-0.0405,-0.0402,-0.0444,-0.0425,-0.0361,-0.0345,-0.033,-0.0318,-0.0341,-0.0273,-0.0109,-0.0076,0.0,0.0,-0.0046,0.005,0.0307,0.0527,0.0656,0.0833,0.1007,0.1065,0.1178,0.1346,0.1513,0.1624,0.1736,0.1792,0.1905,0.1961,0.2534,0.3225,0.7082,1.1554,1.5108,1.8348,2.1542,-0.0562,-0.0404,-0.0135,0.0045,0.0135,0.0247,0.0342,0.0454,0.0525,0.0574,0.0579,0.0554,0.0584,0.0646,0.0673,0.0718,0.0807,0.0843,0.0865,0.0877,0.0888,0.0888,0.0865,0.084,0.0843,0.0864,0.1137,0.1357,0.1604,0.2074,0.2486,0.2725,0.2947,0.3167,0.3303,0.3303,0.334,0.3372,0.327,0.3032,0.2732,0.2537,0.2281,0.2042,0.1744,0.1434,0.1119,0.0858,0.0654,0.0498,0.0402,0.0372,0.0436,0.0476,0.0475,0.0535,0.0564,0.0631,0.0674,0.0776,0.0887,0.0945,0.1076,0.1097,0.0976,0.0778,0.0575,0.0359,0.0045,-0.018,-0.036,-0.0494,-0.0539,-0.0539,-0.0494,-0.045,-0.0405,-0.0315,-0.018,-0.009,-0.0132,-0.0213,-0.0162,-0.0079,-0.0038,-0.0038,-0.0036,0.0,0.0114,0.0278,0.0286,0.0344,0.0383,0.0457,0.073,0.0913,0.111,0.1288,0.1569,0.1737,0.1849,0.2018,0.213,0.2238,0.2294,0.2352,0.2408,0.2519,0.2517,0.2975,0.8031,1.3769,1.6949,1.9786,2.2948,-0.0374,-0.0201,0.009,0.0315,0.0405,0.0427,0.0509,0.0595,0.0634,0.0625,0.0614,0.0601,0.0654,0.0713,0.0773,0.0807,0.084,0.0865,0.0888,0.0906,0.0918,0.0918,0.0918,0.0906,0.0998,0.1199,0.1478,0.1788,0.2077,0.2617,0.3,0.3147,0.3377,0.363,0.363,0.363,0.3602,0.3579,0.344,0.3228,0.3005,0.2711,0.2371,0.2044,0.1708,0.1317,0.1047,0.079,0.0593,0.0454,0.0374,0.0346,0.0378,0.0418,0.0472,0.0529,0.064,0.0689,0.0725,0.0887,0.0974,0.1068,0.124,0.1301,0.1208,0.1043,0.0844,0.0583,0.0269,0.0,-0.018,-0.0315,-0.036,-0.045,-0.036,-0.027,-0.018,-0.009,0.0045,0.018,0.0132,0.0043,0.0125,0.0202,0.024,0.0277,0.0316,0.0397,0.0484,0.0634,0.0744,0.0919,0.104,0.114,0.1219,0.1415,0.1624,0.1905,0.2128,0.2352,0.2519,0.2631,0.2745,0.291,0.2965,0.2963,0.3021,0.3077,0.3074,0.3019,0.8945,1.4381,1.6177,1.9277,2.346,-0.0104,0.0135,0.0292,0.0406,0.0495,0.065,0.0696,0.0634,0.0766,0.0766,0.065,0.0659,0.0695,0.0704,0.0773,0.0818,0.0884,0.0895,0.0936,0.0965,0.0965,0.0976,0.1025,0.1102,0.1284,0.1564,0.1903,0.2293,0.2723,0.3211,0.3581,0.3858,0.4014,0.4118,0.4118,0.4043,0.3889,0.3785,0.3513,0.3264,0.3015,0.2739,0.2373,0.2015,0.1595,0.1329,0.1049,0.0704,0.0534,0.0394,0.0307,0.0306,0.0337,0.0398,0.0482,0.0603,0.0713,0.0796,0.0871,0.1028,0.1128,0.1191,0.135,0.1473,0.1413,0.139,0.115,0.0985,0.0673,0.0314,0.0135,0.0,-0.009,-0.0225,-0.0225,-0.009,0.0,0.009,0.018,0.0314,0.0401,0.0347,0.0381,0.0457,0.0454,0.0491,0.0527,0.0656,0.0959,0.1086,0.1216,0.1473,0.1703,0.1779,0.1862,0.2024,0.2183,0.2464,0.2796,0.3128,0.3294,0.3299,0.3411,0.3577,0.363,0.3627,0.3685,0.3688,0.3522,0.4343,1.0066,1.4663,1.6173,1.916,2.3688]},{"header":{"parameterUnit":"m.s-1","parameterCategory":1,"la1":31.0,"la2":29.5877,"lo1":-88.7671,"lo2":-86.6584,"dy":0.0162,"dx":0.0185,"nx":115,"ny":88,"refTime":"2023-07-28T18:00:00:Z","depth":0,"parameterNumber":3,"parameterNumberName":"V-component_of_WINDS"},"data":[0.0,0.0,0.0,0.0,0.0,0.0,0.0,0.0,0.0,0.0,0.0,0.0,0.0,0.0,0.0,0.0,0.0,0.0,0.0,0.0,0.0,0.0,0.0,0.0,0.0,0.0,0.0,0.0,0.0,0.0,0.0,0.0,0.0,0.0,0.0,0.0,0.0,0.0,0.0,0.0,0.0,0.0,0.0,0.0,0.0,0.0,0.0,0.0,0.0,0.0,0.0,0.0,0.0,0.0,0.0,0.0,0.0,0.0,0.0,0.0,0.0,0.0,0.0,0.0,0.0,0.0,0.0,0.0,0.0,0.0,0.0,0.0,0.0,0.0,0.0,0.0,0.0,0.0,0.0,0.0,0.0,0.0,0.0,0.0,0.0,0.0,0.0,0.0,0.0,0.0,0.0,0.0,0.0,0.0,0.0,0.0,0.0,0.0,0.0,0.0,0.0,0.0,0.0,0.0,0.0,0.0,0.0,0.0,0.0,0.0,0.0,0.0,0.0,0.0,0.0,0.0,0.0,0.0,0.0,0.0,0.0,0.0,0.0,0.0,0.0,0.0,0.0,0.0,0.0,0.0,0.0,0.0,0.0,0.0,0.0,0.0,0.0,0.0,0.0,0.0,0.0,0.0,0.0,0.0,0.0,0.0,0.0,0.0,0.0,0.0,0.0,0.0,0.0,0.0,0.0,0.0,0.0,0.0,0.0,0.0,0.0,0.0,0.0,0.0,0.0,0.0,0.0,0.0,0.0,0.0,0.0,0.0,0.0,0.0,0.0,0.0,0.0,0.0,0.0,0.0,0.0,0.0,0.0,0.0,0.0,0.0,0.0,0.0,0.0,0.0,0.0,0.0,0.0,0.0,0.0,0.0,0.0,0.0,0.0,0.0,0.0,0.0,0.0,0.0,0.0,0.0,0.0,0.0,0.0,0.0,0.0,0.0,0.0,0.0,0.0,0.0,0.0,0.0,0.0,0.0,0.0,0.0,0.0,0.0,0.0,0.0,0.0,0.0,0.0,0.0,0.0,0.0,0.0,0.0,0.0,0.0,0.0,0.0,0.0,0.0,0.0,0.0,0.0,0.0,0.0,0.0,0.0,0.0,0.0,0.0,0.0,0.0,0.0,0.0,0.0,0.0,0.0,0.0,0.0,0.0,0.0,0.0,0.0,0.0,0.0,0.0,0.0,0.0,0.0,0.0,0.0,0.0,0.0,0.0,0.0,0.0,0.0,0.0,0.0,0.0,0.0,0.0,0.0,0.0,0.0,0.0,0.0,0.0,0.0,0.0,0.0,0.0,0.0,0.0,0.0,0.0,0.0,0.0,0.0,0.0,0.0,0.0,0.0,0.0,0.0,0.0,0.0,0.0,0.0,0.0,0.0,0.0,0.0,0.0,0.0,0.0,0.0,0.0,0.0,0.0,0.0,0.0,0.0,0.0,0.0,0.0,0.0,0.0,0.0,0.0,0.0,0.0,0.0,0.0,0.0,0.0,0.0,0.0,0.0,0.0,0.0,0.0,0.0,0.0,0.0,0.0,0.0,0.0,0.0,0.0,0.0,0.0,0.0,0.0,0.0,0.0,0.0,0.0,0.0,0.0,0.0,0.0,0.0,0.0,0.0,0.0,0.0,0.0,0.0,0.0,0.0,0.0,0.0,0.0,0.0,0.0,0.0,0.0,0.0,0.0,0.0,0.0,0.0,0.0,0.0,0.0,0.0,0.0,0.0,0.0,0.0,0.0,0.0,0.0,0.0,0.0,0.0,0.0,0.0,0.0,0.0,0.0,0.0,0.0,0.0,0.0,0.0,0.0,0.0,0.0,0.0,0.0,0.0,0.0,0.0,0.0,0.0,0.0,0.0,0.0,0.0,0.0,0.0,0.0,0.0,0.0,0.0,0.0,0.0,0.0,0.0,0.0,0.0,0.0,0.0,0.0,0.0,0.0,0.0,0.0,0.0,0.0,0.0,0.0,0.0,0.0,0.0,0.0,0.0,0.0,0.0,0.0,0.0,0.0,0.0,0.0,0.0,0.0,0.0,0.0,0.0,0.0,0.0,0.0,0.0,0.0,0.0,0.0,0.0,0.0,0.0,0.0,0.0,0.0,0.0,0.0,0.0,0.0,0.0,0.0,0.0,0.0,0.0,0.0,0.0,0.0,0.0,0.0,0.0,0.0,0.0,0.0,0.0,0.0,0.0,0.0,0.0,0.0,0.0,0.0,0.0,0.0,0.0,0.0,0.0,0.0,0.0,0.0,0.0,0.0,0.0,0.0,0.0,0.0,0.0,0.0,0.0,0.0,0.0,0.0,0.0,0.0,0.0,0.0,0.0,0.0,0.0,0.0,0.0,0.0,0.0,0.0,0.0,0.0,0.0,0.0,0.0,0.0,0.0,0.0,0.0,0.0,0.0,0.0,0.0,0.0,0.0,0.0,0.0,0.0,0.0,0.0,0.0,0.0,0.0,0.0,0.0,0.0,0.0,0.0,0.0,0.0,0.0,0.0,0.0,0.0,0.0,0.0,0.0,0.0,0.0,0.0,0.0,0.0,0.0,0.0,0.0,0.0,0.0,0.0,0.0,0.0,0.0,0.0,0.0,0.0,0.0,0.0,0.0,0.0,0.0,0.0,0.0,0.0,0.0,0.0,0.0,0.0,0.0,0.0,0.0,0.0,0.0,0.0,0.0,0.0,0.0,0.0,0.0,0.0,0.0,0.0,0.0,0.0,0.0,0.0,0.0,0.0,0.0,0.0,0.0,0.0,0.0,0.0,0.0,0.0,0.0,0.0,0.0,0.0,0.0,0.0,0.0,0.0,0.0,0.0,0.0,0.0,0.0,0.0,0.0,0.0,0.0,0.0,0.0,0.0,0.0,0.0,0.0,0.0,0.0,0.0,0.0,0.0,0.0,0.0,0.0,0.0,0.0,0.0,0.0,0.0,0.0,0.0,0.0,0.0,0.0,0.0,0.0,0.0,0.0,0.0,0.0,0.0,0.0,0.0,0.0,0.0,0.0,0.0,0.0,0.0,0.0,0.0,0.0,0.0,0.0,0.0,0.0,0.0,0.0,0.0,0.0,0.0,0.0,0.0,0.0,0.0,0.0,0.0,0.0,0.0,0.0,0.0,0.0,0.0,0.0,0.0,0.0,0.0,0.0,0.0,0.0,0.0,0.0,0.0,0.0,0.0,0.0,0.0,0.0,0.0,0.0,0.0,0.0,0.0,0.0,0.0,0.0,0.0,0.0,0.0,0.0,0.0,0.0,0.0,0.0,0.0,0.0,0.0,0.0,0.0,0.0,0.0,0.0,0.0,0.0,0.0,0.0,0.0,0.0,0.0,0.0,0.0,0.0,0.0,0.0,0.0,0.0,0.0,0.0,0.0,0.0,0.0,0.0,0.0,0.0,0.0,0.0,0.0,0.0,0.0,0.0,0.0,0.0,0.0,0.0,0.0,0.0,0.0,0.0,0.0,0.0,0.0,0.0,0.0,0.0,0.0,0.0,0.0,0.0,0.0,0.0,0.0,0.0,0.0,0.0,0.0,0.0,0.0,0.0,0.0,0.0,0.0,0.0,0.0,0.0,0.0,0.0,0.0,0.0,0.0,0.0,0.0,0.0,0.0,0.0,0.0,0.0,0.0,0.0,0.0,0.0,0.0,0.0,0.0,0.0,0.0,0.0,0.0,0.0,0.0,0.0,0.0,0.0,0.0,0.0,0.0,0.0,0.0,0.0,0.0,0.0,0.0,0.0,0.0,0.0,0.0,0.0,0.0,0.0,0.0,0.0,0.0,0.0,0.0,0.0,0.0,0.0,0.0,0.0,0.0,0.0,0.0,0.0,0.0,0.0,0.0,0.0,0.0,0.0,0.0,0.0,0.0,0.0,0.0,0.0,0.0,0.0,0.0,0.0,0.0,0.0,0.0,0.0,0.0,0.0,0.0,0.0,0.0,0.0,0.0,0.0,0.0,0.0,0.0,0.0,0.0,0.0,0.0,0.0,0.0,0.0,0.0,0.0,0.0,0.0,0.0,0.0,0.0,0.0,0.0,0.0,0.0,0.0,0.0,0.0,0.0,0.0,0.0,0.0,0.0,0.0,0.0,0.0,0.0,0.0,0.0,0.0,0.0,0.0,0.0,0.0,0.0,0.0,0.0,0.0,0.0,0.0,0.0,0.0,0.0,0.0,0.0,0.0,0.0,0.0,0.0,0.0,0.0,0.0,0.0,0.0,0.0,0.0,0.0,0.0,0.0,0.0,0.0,0.0,0.0,0.0,0.0,0.0,0.0,1.6508,0.0,0.0,0.0,0.0,0.0,0.0,0.0,0.0,0.0,0.0,0.0,0.0,0.0,0.0,0.0,0.0,0.0,0.0,0.0,0.0,0.0,0.0,0.0,0.0,0.0,0.0,0.0,0.0,0.0,0.0,0.0,0.0,0.0,0.0,0.0,0.0,0.0,0.0,0.0,0.0,0.0,0.0,0.0,0.0,0.0,0.0,0.0,0.0,0.0,0.0,0.0,0.0,0.0,0.0,0.0,0.0,0.0,0.0,0.0,0.0,0.0,0.0,0.0,0.0,0.0,0.0,0.0,0.0,0.0,0.0,0.0,0.0,0.0,0.0,0.0,0.0,0.0,0.0,0.0,0.0,0.0,0.0,0.0,0.0,0.0,0.0,0.0,0.0,0.0,0.0,0.0,0.0,0.0,0.0,0.0,0.0,0.0,0.0,0.0,0.0,0.0,0.0,0.0,0.0,0.0,0.0,0.0,0.0,0.0,0.0,1.4609,1.4718,1.502,1.5272,1.543,0.0,0.0,0.0,0.0,0.0,0.0,0.0,0.0,0.0,0.0,0.0,0.0,0.0,0.0,0.0,0.0,0.0,0.0,0.0,0.0,0.0,0.0,0.0,0.0,0.0,0.0,0.0,0.0,0.0,0.0,0.0,0.0,0.0,0.0,0.0,0.0,0.0,0.0,0.0,0.0,0.0,0.0,0.0,0.0,0.0,0.0,0.0,0.0,0.0,0.0,0.0,0.0,0.0,0.0,0.0,0.0,0.0,0.0,0.0,0.0,0.0,0.0,0.0,0.0,0.0,0.0,0.0,0.0,0.0,0.0,0.0,0.0,0.0,0.0,0.0,0.0,0.0,0.0,0.0,0.0,0.0,0.0,0.0,0.0,0.0,0.0,0.0,0.0,0.0,0.0,0.0,0.0,0.0,0.0,0.0,0.0,0.0,0.0,0.0,0.0,0.0,0.0,0.0,0.0,0.0,0.0,0.0,0.0,0.0,0.0,0.0,0.0,1.3749,1.3931,1.4074,0.0,0.0,0.0,0.0,0.0,0.0,0.0,0.0,0.0,0.0,0.0,0.0,0.0,0.0,0.0,0.0,0.0,0.0,0.0,0.0,0.0,0.0,0.0,0.0,0.0,0.0,0.0,0.0,0.0,0.0,0.0,0.0,0.0,0.0,0.0,0.0,0.0,0.0,0.0,0.0,0.0,0.0,0.0,0.0,0.0,0.0,0.0,0.0,0.0,0.0,0.0,0.0,0.0,0.0,0.0,0.0,0.0,0.0,0.0,0.0,0.0,0.0,0.0,0.0,0.0,0.0,0.0,0.0,0.0,0.0,0.0,0.0,0.0,0.0,0.0,0.0,0.0,0.0,0.0,0.0,0.0,0.0,0.0,0.0,0.0,0.0,0.0,0.0,0.0,0.0,0.0,0.0,0.0,0.0,0.0,0.0,0.0,0.0,0.0,0.0,0.0,0.0,0.0,0.0,0.0,0.0,0.0,0.0,0.0,0.0,1.2437,1.2354,1.2425,0.0,1.2537,0.0,0.0,0.0,0.0,0.0,0.0,0.0,0.0,0.0,0.0,0.0,0.0,0.0,0.0,0.0,0.0,0.0,0.0,0.0,0.0,0.0,0.0,0.0,0.0,0.0,0.0,0.0,0.0,0.0,0.0,0.0,0.0,0.0,0.0,0.0,0.0,0.0,0.0,0.0,0.0,0.0,0.0,0.0,0.0,0.0,0.0,0.0,0.0,0.0,0.0,0.0,0.0,0.0,0.0,0.0,0.0,0.0,0.0,0.0,0.0,0.0,0.0,0.0,0.0,0.0,0.0,0.0,0.0,0.0,0.0,0.0,0.0,0.0,0.0,0.0,0.0,0.0,0.0,0.0,0.0,0.0,0.0,0.0,0.0,0.0,0.0,0.0,0.0,0.0,0.0,0.0,0.0,0.0,0.0,0.0,0.0,0.0,0.0,0.0,0.0,0.0,0.0,0.0,0.0,0.0,0.0,0.0,0.0,0.0,0.0,1.1185,1.0966,1.0917,1.0742,0.0,0.0,0.0,0.0,0.0,0.0,0.0,0.0,0.0,0.0,0.0,0.0,0.0,0.0,0.0,0.0,0.0,0.0,0.0,0.0,0.0,0.0,0.0,0.0,0.0,0.0,0.0,0.0,0.0,0.0,0.0,0.0,0.0,0.0,0.0,0.0,0.0,0.0,0.0,0.0,0.0,0.0,0.0,0.0,0.0,0.0,0.0,0.0,0.0,0.0,0.0,0.0,0.0,0.0,0.0,0.0,0.0,0.0,0.0,0.0,0.0,0.0,0.0,0.0,0.0,0.0,0.0,0.0,0.0,0.0,0.0,0.0,0.0,0.0,0.0,0.0,0.0,0.0,0.0,0.0,0.0,0.0,0.0,0.0,0.0,0.0,0.0,0.0,0.0,0.0,0.0,0.0,0.0,0.0,0.0,0.0,0.0,0.0,0.0,0.0,0.0,0.0,0.0,0.0,0.0,0.0,0.0,0.0,0.0,0.0,1.0215,0.9933,0.9442,0.9281,0.8989,0.8488,0.0,0.0,0.0,0.0,0.0,0.0,0.0,0.0,0.0,0.0,0.0,0.0,0.0,0.0,0.0,0.0,0.0,0.0,0.0,0.0,0.0,0.0,0.0,0.0,0.0,0.0,0.0,0.0,0.0,0.0,0.0,0.0,0.0,0.0,0.0,0.0,0.0,0.0,0.0,0.0,0.0,0.0,0.0,0.0,0.0,0.0,0.0,0.0,0.0,0.0,0.0,0.0,0.0,0.0,0.0,0.0,0.0,0.0,0.0,0.0,0.0,0.0,0.0,0.0,0.0,0.0,0.0,0.0,0.0,0.0,0.0,0.0,0.0,0.0,0.0,0.0,0.0,0.0,0.0,0.0,0.0,0.0,0.0,0.0,0.0,0.0,0.0,0.0,0.0,0.0,0.0,0.0,0.0,0.0,0.0,0.0,0.0,0.0,0.0,0.0,0.0,0.0,0.0,0.0,0.0,0.0,0.0,0.0,0.9368,0.9159,0.865,0.7736,0.7565,0.7268,0.0,0.0,0.0,0.0,0.0,0.0,0.0,0.0,0.0,0.0,0.0,0.0,0.0,0.0,0.0,0.0,0.0,0.0,0.0,0.0,0.0,0.0,0.0,0.0,0.0,0.0,0.0,0.0,0.0,0.0,0.0,0.0,0.0,0.0,0.0,0.0,0.0,0.0,0.0,0.0,0.0,0.0,0.0,0.0,0.0,0.0,0.0,0.0,0.0,0.0,0.0,0.0,0.0,0.0,0.0,0.0,0.0,0.0,0.0,0.0,0.0,0.0,0.0,0.0,0.0,0.0,0.0,0.0,0.0,0.0,0.0,0.0,0.0,0.0,0.0,0.0,0.0,0.0,0.0,0.0,0.0,0.0,0.0,0.0,0.0,0.0,0.0,0.0,0.0,0.0,0.0,0.0,0.0,0.0,0.0,0.0,0.0,0.0,0.0,0.0,0.0,0.0,0.0,0.0,0.0,0.0,0.0,0.0,0.0,0.8826,0.807,0.7302,0.6533,0.615,0.5567,0.0,0.0,0.0,0.0,0.0,0.0,0.0,0.0,0.0,0.0,0.0,0.0,0.0,0.0,0.0,0.0,0.0,0.0,0.0,0.0,0.0,0.0,0.0,0.0,0.0,0.0,0.0,0.0,0.0,0.0,0.0,0.0,0.0,0.0,0.0,0.0,0.0,0.0,0.0,0.0,0.0,0.0,0.0,0.0,0.0,0.0,0.0,0.0,0.0,0.0,0.0,0.0,0.0,0.0,0.0,0.0,0.0,0.0,0.0,0.0,0.0,0.0,0.0,0.0,0.0,0.0,0.0,0.0,0.0,0.0,0.0,0.0,0.0,0.0,0.0,0.0,0.0,0.0,0.0,0.0,0.0,0.0,0.0,0.0,0.0,0.0,0.0,0.0,0.0,0.0,0.0,0.0,0.0,0.0,0.0,0.0,0.0,0.0,0.0,0.0,0.0,0.0,0.0,0.0,0.0,0.0,0.0,0.0,0.0,0.8011,0.0,0.5988,0.5167,0.4586,0.378,0.0,0.0,0.0,0.0,0.0,0.0,0.0,0.0,0.0,0.0,0.0,0.0,0.0,0.0,0.0,0.0,0.0,0.0,0.0,0.0,0.0,0.0,0.0,0.0,0.0,0.0,0.0,0.0,0.0,0.0,0.0,0.0,0.0,0.0,0.0,0.0,0.0,0.0,0.0,0.0,0.0,0.0,0.0,0.0,0.0,0.0,0.0,0.0,0.0,0.0,0.0,0.0,0.0,0.0,0.0,0.0,0.0,0.0,0.0,0.0,0.0,0.0,0.0,0.0,0.0,0.0,0.0,0.0,0.0,0.0,0.0,0.0,0.0,0.0,0.0,0.0,0.0,0.0,0.0,0.0,0.0,0.0,0.0,0.0,0.0,0.0,0.0,0.0,0.0,0.0,0.0,0.0,0.0,0.0,0.0,0.0,0.0,0.0,0.0,0.0,0.0,0.0,0.0,0.0,0.0,0.0,0.0,0.0,0.8011,0.684,0.5839,0.4779,0.3611,0.2862,0.1976,0.0,0.0,0.0,0.0,0.0,0.0,0.0,0.0,0.0,0.0,0.0,0.0,0.0,0.0,0.0,0.0,0.0,0.0,0.0,0.0,0.0,0.0,0.0,0.0,0.0,0.0,0.0,0.0,0.0,0.0,0.0,0.0,0.0,0.0,0.0,0.0,0.0,0.0,0.0,0.0,0.0,0.0,0.0,0.0,0.0,0.0,0.0,0.0,0.0,0.0,0.0,0.0,0.0,0.0,0.0,0.0,0.0,0.0,0.0,0.0,0.0,0.0,0.0,0.0,0.0,0.0,0.0,0.0,0.0,0.0,0.0,0.0,0.0,0.0,0.0,0.0,0.0,0.0,0.0,0.0,0.0,0.0,0.0,0.0,0.0,0.0,0.0,0.0,0.0,0.0,0.0,0.0,0.0,0.0,0.0,0.0,0.0,0.0,0.0,0.0,0.0,0.0,0.0,0.0,0.0,0.0,0.0,0.0,0.0,0.5958,0.4938,0.38,0.2537,0.1368,0.0279,0.0,0.0,0.0,0.0,0.0,0.0,0.0,0.0,0.0,0.0,0.0,0.0,0.0,0.0,0.0,0.0,0.0,0.0,0.0,0.0,0.0,0.0,0.0,0.0,0.0,0.0,0.0,0.0,0.0,0.0,0.0,0.0,0.0,0.0,0.0,0.0,0.0,0.0,0.0,0.0,0.0,0.0,0.0,0.0,0.0,0.0,0.0,0.0,0.0,0.0,0.0,0.0,0.0,0.0,0.0,0.0,0.0,0.0,0.0,0.0,0.0,0.0,0.0,0.0,0.0,0.0,0.0,0.0,0.0,0.0,0.0,0.0,0.0,0.0,0.0,0.0,0.0,0.0,0.0,0.0,0.0,0.0,0.0,0.0,0.0,0.0,0.0,0.0,0.0,0.0,0.0,0.0,0.0,0.0,0.0,0.0,0.0,0.0,0.0,0.0,0.0,0.0,0.0,0.0,0.0,0.0,0.0,0.0,0.0,0.4984,0.3971,0.2688,0.1161,-0.0119,-0.1332,-0.2493,0.0,0.0,0.0,0.0,0.0,0.0,0.0,0.0,0.0,0.0,0.0,0.0,0.0,0.0,0.0,0.0,0.0,0.0,0.0,0.0,0.0,0.0,0.0,0.0,0.0,0.0,0.0,0.0,0.0,0.0,0.0,0.0,0.0,0.0,0.0,0.0,0.0,0.0,0.0,0.0,0.0,0.0,0.0,0.0,0.0,0.0,0.0,0.0,0.0,0.0,0.0,0.0,0.0,0.0,0.0,0.0,0.0,0.0,0.0,0.0,0.0,0.0,0.0,0.0,0.0,0.0,0.0,0.0,0.0,0.0,0.0,0.0,0.0,0.0,0.0,0.0,0.0,0.0,0.0,0.0,0.0,0.0,0.0,0.0,0.0,0.0,0.0,0.0,0.0,0.0,0.0,0.0,0.0,0.0,0.0,0.0,0.0,0.0,0.0,0.0,0.0,0.0,0.0,0.0,0.0,0.0,0.0,0.0,0.3906,0.2869,0.1415,-0.043,-0.1614,-0.2941,0.0,0.0,0.0,0.0,0.0,0.0,0.0,0.0,0.0,0.0,0.0,0.0,0.0,0.0,0.0,0.0,0.0,0.0,0.0,0.0,0.0,0.0,0.0,0.0,0.0,0.0,0.0,0.0,0.0,0.0,0.0,0.0,0.0,0.0,0.0,0.0,0.0,0.0,0.0,0.0,0.0,0.0,0.0,0.0,0.0,0.0,0.0,0.0,0.0,0.0,0.0,0.0,0.0,0.0,0.0,0.0,0.0,0.0,0.0,0.0,0.0,0.0,0.0,0.0,0.0,0.0,0.0,0.0,0.0,0.0,0.0,0.0,0.0,0.0,0.0,0.0,0.0,0.0,0.0,0.0,0.0,0.0,0.0,0.0,0.0,0.0,0.0,0.0,0.0,0.0,0.0,0.0,0.0,0.0,0.0,0.0,0.0,0.0,0.0,0.0,0.0,0.0,0.0,0.0,0.0,0.0,0.0,0.0,0.0,0.3621,0.1703,-0.0065,-0.1502,-0.3111,-0.4516,0.0,0.0,0.0,0.0,0.0,0.0,0.0,0.0,0.0,0.0,0.0,0.0,0.0,0.0,0.0,0.0,0.0,0.0,0.0,0.0,0.0,0.0,0.0,0.0,0.0,0.0,0.0,0.0,0.0,0.0,0.0,0.0,0.0,0.0,0.0,0.0,0.0,0.0,0.0,0.0,0.0,0.0,0.0,0.0,0.0,0.0,0.0,0.0,0.0,0.0,0.0,0.0,0.0,0.0,0.0,0.0,0.0,0.0,0.0,0.0,0.0,0.0,0.0,0.0,0.0,0.0,0.0,0.0,0.0,0.0,0.0,0.0,0.0,0.0,0.0,0.0,0.0,0.0,0.0,0.0,0.0,0.0,0.0,0.0,0.0,0.0,0.0,0.0,0.0,0.0,0.0,0.0,0.0,0.0,0.0,0.0,0.0,0.0,0.0,0.0,0.0,0.0,0.0,0.0,0.0,0.0,0.0,0.0,0.4592,0.3072,0.0867,-0.1274,-0.3121,-0.4683,-0.6045,0.0,0.0,0.0,0.0,0.0,0.0,0.0,0.0,0.0,0.0,0.0,0.0,0.0,0.0,0.0,0.0,0.0,0.0,0.0,0.0,0.0,0.0,0.0,0.0,0.0,0.0,0.0,0.0,0.0,0.0,0.0,0.0,0.0,0.0,0.0,0.0,0.0,0.0,0.0,0.0,0.0,0.0,0.0,0.0,0.0,0.0,0.0,0.0,0.0,0.0,0.0,0.0,0.0,0.0,0.0,0.0,0.0,0.0,0.0,0.0,0.0,0.0,0.0,0.0,0.0,0.0,0.0,0.0,0.0,0.0,0.0,0.0,0.0,0.0,0.0,0.0,0.0,0.0,0.0,0.0,0.0,0.0,0.0,0.0,0.0,0.0,0.0,0.0,0.0,0.0,0.0,0.0,0.0,0.0,0.0,0.0,0.0,0.0,0.0,0.0,0.0,0.0,0.0,0.0,0.0,0.0,0.0,0.0,0.4215,0.2341,0.0201,-0.2232,-0.4906,-0.6277,-0.7443,0.0,0.0,0.0,0.0,0.0,0.0,0.0,0.0,0.0,0.0,0.0,0.0,0.0,0.0,0.0,0.0,0.0,0.0,0.0,0.0,0.0,0.0,0.0,0.0,0.0,0.0,0.0,0.0,0.0,0.0,0.0,0.0,0.0,0.0,0.0,0.0,0.0,0.0,0.0,0.0,0.0,0.0,0.0,0.0,0.0,0.0,0.0,0.0,0.0,0.0,0.0,0.0,0.0,0.0,0.0,0.0,0.0,0.0,0.0,0.0,0.0,0.0,0.0,0.0,0.0,0.0,0.0,0.0,0.0,0.0,0.0,0.0,0.0,0.0,0.0,0.0,0.0,0.0,0.0,0.0,0.0,0.0,0.0,0.0,0.0,0.0,0.0,0.0,0.0,0.0,0.0,0.0,0.0,0.0,0.0,0.0,0.0,0.0,0.0,0.0,0.0,0.0,0.0,0.0,0.0,0.0,0.0,0.0,0.3826,0.1803,-0.0613,-0.317,-0.5953,-0.7395,-0.8619,0.0,0.0,0.0,0.0,0.0,0.0,0.0,0.0,0.0,0.0,0.0,0.0,0.0,0.0,0.0,0.0,0.0,0.0,0.0,0.0,0.0,0.0,0.0,0.0,0.0,0.0,0.0,0.0,0.0,0.0,0.0,0.0,0.0,0.0,0.0,0.0,0.0,0.0,0.0,0.0,0.0,0.0,0.0,0.0,0.0,0.0,0.0,0.0,-1.0509,0.0,0.0,0.0,0.0,0.0,0.0,0.0,0.0,0.0,0.0,0.0,0.0,0.0,0.0,0.0,0.0,0.0,0.0,0.0,0.0,0.0,0.0,0.0,0.0,0.0,0.0,0.0,0.0,0.0,0.0,0.0,0.0,0.0,0.0,0.0,0.0,0.0,0.0,0.0,0.0,0.0,0.0,0.0,0.0,0.0,0.0,0.0,0.0,0.0,0.0,0.0,0.0,0.0,0.0,0.0,0.0,0.0,0.0,0.0,0.3547,0.1403,-0.1163,-0.3899,-0.661,-0.8498,-0.9854,0.0,0.0,0.0,0.0,0.0,0.0,0.0,0.0,0.0,0.0,0.0,0.0,0.0,0.0,0.0,0.0,0.0,0.0,0.0,0.0,0.0,0.0,0.0,0.0,0.0,0.0,0.0,0.0,0.0,0.0,0.0,0.0,0.0,0.0,0.0,0.0,0.0,0.0,0.0,0.0,0.0,0.0,0.0,0.0,0.0,0.0,0.0,0.0,0.0,0.0,0.0,0.0,0.0,0.0,0.0,0.0,0.0,0.0,0.0,0.0,0.0,0.0,0.0,0.0,0.0,0.0,0.0,0.0,0.0,0.0,0.0,0.0,0.0,0.0,0.0,0.0,0.0,0.0,0.0,0.0,0.0,0.0,0.0,0.0,0.0,0.0,0.0,0.0,0.0,0.0,0.0,0.0,0.0,0.0,0.0,0.0,0.0,0.0,0.0,0.0,0.0,0.0,0.0,0.0,0.0,0.0,0.0,0.4977,0.327,0.0941,-0.1713,-0.4407,-0.7197,-0.9416,-1.0989,-1.1776,0.0,0.0,0.0,0.0,0.0,0.0,0.0,0.0,0.0,0.0,0.0,0.0,0.0,0.0,0.0,0.0,0.0,0.0,0.0,0.0,0.0,0.0,0.0,0.0,0.0,0.0,0.0,0.0,0.0,0.0,0.0,0.0,0.0,0.0,0.0,0.0,0.0,0.0,0.1639,-0.0122,0.0,0.0,0.0,0.0,0.0,0.0,0.0,0.0,-1.3216,0.0,0.0,0.0,0.0,0.0,0.0,0.0,0.0,0.0,0.0,0.0,0.0,0.0,0.0,0.0,0.0,0.0,0.0,0.0,0.0,0.0,0.0,0.0,0.0,0.0,0.0,0.0,0.0,0.0,0.0,0.0,0.0,0.0,0.0,0.0,0.0,0.0,0.0,0.0,0.0,0.0,0.0,0.0,0.0,0.0,0.0,0.0,0.0,0.0,0.0,0.0,0.0,0.0,0.0,0.0,0.0,0.5739,0.4467,0.2559,0.0069,-0.2355,-0.4786,-0.7423,-0.9729,-1.1509,-1.2651,0.0,0.0,0.0,0.0,0.0,0.0,0.0,0.0,0.0,0.0,0.0,0.0,0.0,0.0,0.0,0.0,0.0,0.0,0.0,0.0,0.0,0.0,0.0,0.0,0.0,0.0,0.0,0.0,0.0,0.0,0.0,0.0,0.0,0.0,0.0,0.0,0.0,0.0,0.0,-0.0685,-0.2436,0.0,0.0,0.0,0.0,0.0,0.0,0.0,0.0,-1.5869,0.0,0.0,0.0,0.0,0.0,0.0,0.0,0.0,0.0,0.0,0.0,0.0,0.0,0.0,0.0,0.0,0.0,0.0,0.0,0.0,0.0,0.0,0.0,0.0,0.0,0.0,0.0,0.0,0.0,0.0,0.0,0.0,0.0,0.0,0.0,0.0,0.0,0.0,0.0,0.0,0.0,0.0,0.0,0.0,0.0,0.0,0.0,0.0,0.0,0.0,0.0,0.0,0.0,0.0,0.0,0.5207,0.4019,0.2165,-0.02,-0.2662,-0.5042,-0.7395,-0.9951,-1.1806,0.0,0.0,0.0,0.0,0.0,0.0,0.0,0.0,0.0,0.0,0.0,0.0,0.0,0.0,0.0,0.0,0.0,0.0,0.0,0.0,0.0,0.0,0.0,0.0,0.0,0.0,0.0,0.0,0.0,0.0,0.0,0.0,0.0,0.0,0.0,0.0,0.0,0.0,0.0,0.0,-0.0367,-0.2017,-0.4202,0.0,0.0,0.0,0.0,0.0,0.0,-1.5778,-1.7854,0.0,0.0,0.0,0.0,0.0,0.0,0.0,0.0,0.0,0.0,0.0,0.0,0.0,0.0,0.0,0.0,0.0,0.0,0.0,0.0,0.0,0.0,0.0,0.0,0.0,0.0,0.0,0.0,0.0,0.0,0.0,0.0,0.0,0.0,0.0,0.0,0.0,0.0,0.0,0.0,0.0,0.0,0.0,0.0,0.0,0.0,0.0,0.0,0.0,0.0,0.0,0.0,0.0,0.0,0.0,0.4779,0.3465,0.1725,-0.0511,-0.2983,-0.53,-0.7409,-1.0098,-1.198,0.0,0.0,0.0,0.0,0.0,0.0,0.0,0.0,0.0,0.0,0.0,0.0,0.0,0.0,0.0,0.0,0.0,0.0,0.0,0.0,0.0,0.0,0.0,0.0,0.0,0.0,0.0,0.0,0.0,0.0,0.0,0.0,0.0,0.0,0.0,0.0,0.0,0.0,0.0,0.0,0.0,-0.1494,-0.3744,-0.5555,0.0,0.0,0.0,0.0,-1.4231,-1.6455,0.0,0.0,0.0,0.0,0.0,0.0,0.0,0.0,0.0,0.0,0.0,0.0,0.0,0.0,0.0,0.0,0.0,0.0,0.0,0.0,0.0,0.0,0.0,0.0,0.0,0.0,0.0,0.0,0.0,0.0,0.0,0.0,0.0,0.0,0.0,0.0,0.0,0.0,0.0,0.0,0.0,0.0,0.0,0.0,0.0,0.0,0.0,0.0,0.0,0.0,0.0,0.0,0.0,0.0,0.0,0.0,0.447,0.29,0.0959,-0.1406,-0.3482,-0.5502,-0.7537,-1.0157,-1.1921,0.0,0.0,0.0,0.0,0.0,0.0,0.0,0.0,0.0,0.0,0.0,0.0,0.0,0.0,0.0,0.0,0.0,0.0,0.0,0.0,0.0,0.0,0.0,0.0,0.0,0.0,0.0,0.0,0.0,0.0,0.0,0.0,0.0,0.0,0.0,0.0,0.0,0.0,0.0,0.0,0.0,-0.157,-0.3451,-0.5388,-0.7192,0.0,0.0,-1.2551,-1.3927,-1.5906,0.0,0.0,0.0,0.0,0.0,0.0,0.0,0.0,0.0,0.0,0.0,0.0,0.0,0.0,0.0,0.0,0.0,0.0,0.0,0.0,0.0,0.0,0.0,0.0,0.0,0.0,0.0,0.0,0.0,0.0,0.0,0.0,0.0,0.0,0.0,0.0,0.0,0.0,0.0,0.0,0.0,0.0,0.0,0.0,0.0,0.0,0.0,0.0,0.0,0.0,0.0,0.0,0.0,0.0,0.0,0.4537,0.3801,0.2233,0.0371,-0.1823,-0.3757,-0.5749,-0.7728,-1.0455,-1.2178,0.0,0.0,0.0,0.0,0.0,0.0,0.0,0.0,0.0,0.0,0.0,0.0,0.0,0.0,0.0,0.0,0.0,0.0,0.0,0.0,0.0,0.0,0.0,0.0,0.0,0.0,0.0,0.0,0.0,0.0,0.0,0.0,0.0,0.0,0.0,0.0,0.0,0.0,0.0,0.0,0.0,0.0,-0.3302,-0.5014,0.0,0.0,0.0,-1.272,-1.457,0.0,0.0,0.0,0.0,0.0,0.0,0.0,0.0,0.0,0.0,0.0,0.0,0.0,0.0,0.0,0.0,0.0,0.0,0.0,0.0,0.0,0.0,0.0,0.0,0.0,0.0,0.0,0.0,0.0,0.0,0.0,0.0,0.0,0.0,0.0,0.0,0.0,0.0,0.0,0.0,0.0,0.0,0.0,0.0,0.0,0.0,0.0,0.0,0.0,0.0,0.0,0.0,0.0,0.0,0.0,0.0,0.0,0.3068,0.1472,-0.036,-0.2364,-0.42,-0.6054,-0.8006,-1.0463,0.0,0.0,0.0,0.0,0.0,0.0,0.0,0.0,0.0,0.0,0.0,0.0,0.0,0.0,0.0,0.0,0.0,0.0,0.0,0.0,0.0,0.0,0.0,0.0,0.0,0.0,0.0,0.1734,0.0,0.0,0.0,0.0,0.0,0.0,0.0,0.0,0.0,0.0,0.0,0.0,0.0,0.0,-0.1236,-0.3049,-0.4856,-0.6918,0.0,0.0,-1.2796,-1.4906,-1.6406,-1.7736,0.0,0.0,0.0,0.0,0.0,0.0,0.0,0.0,0.0,0.0,0.0,0.0,0.0,0.0,0.0,0.0,0.0,0.0,0.0,0.0,0.0,0.0,0.0,0.0,0.0,0.0,0.0,0.0,0.0,0.0,0.0,0.0,0.0,0.0,0.0,0.0,0.0,0.0,0.0,0.0,0.0,0.0,0.0,0.0,0.0,0.0,0.0,0.0,0.0,0.0,0.0,0.0,0.0,0.0,0.0,0.2211,0.0491,-0.1308,-0.3183,-0.4875,-0.6607,-0.8423,-1.002,-1.161,0.0,0.0,0.0,0.0,0.0,0.0,0.0,0.0,0.0,0.0,0.0,0.0,0.0,0.0,0.0,0.0,0.0,0.0,0.0,0.0,0.0,0.0,0.0,0.0,0.0,0.0,0.0,0.0,0.0,0.0,0.0,0.0,0.0,0.0,0.0,0.0,0.0,0.0,0.0,0.0,0.0,-0.1154,-0.2823,-0.4933,-0.6972,0.0,0.0,-1.2911,-1.4384,-1.5575,-1.68,-1.8078,0.0,0.0,0.0,0.0,0.0,0.0,0.0,0.0,0.0,0.0,0.0,0.0,0.0,0.0,0.0,0.0,0.0,0.0,0.0,0.0,0.0,0.0,0.0,0.0,0.0,0.0,0.0,0.0,0.0,0.0,0.0,0.0,0.0,0.0,0.0,0.0,0.0,0.0,0.0,0.0,0.0,0.0,0.0,0.0,0.0,0.0,0.0,0.0,0.0,0.0,0.0,0.0,0.0,0.1706,0.1325,-0.0371,-0.2098,-0.3897,-0.5474,-0.7197,-0.9006,-1.0594,-1.2092,0.0,0.0,0.0,0.0,0.0,0.0,0.0,0.0,0.0,0.0,0.0,0.0,0.0,0.0,0.0,0.0,0.0,0.0,0.0,0.0,0.0,0.0,0.0,0.0,0.0,0.0,0.0,0.0,0.1899,0.1952,0.1876,0.0,0.0,0.0,0.0,0.0,0.0,0.0,0.0,0.0,0.0,-0.132,-0.2916,-0.4715,0.0,0.0,-1.0691,-1.2567,-1.4488,-1.5662,-1.673,-1.7844,-1.7924,0.0,0.0,0.0,0.0,0.0,0.0,0.0,0.0,0.0,0.0,0.0,0.0,0.0,0.0,0.0,0.0,0.0,0.0,0.0,0.0,0.0,0.0,0.0,0.0,0.0,0.0,0.0,0.0,0.0,0.0,0.0,0.0,0.0,0.0,0.0,0.0,0.0,0.0,0.0,0.0,0.0,0.0,0.0,0.0,0.0,0.0,0.0,0.0,0.0,0.0,0.0,0.0,0.0512,0.0253,-0.1302,-0.2943,-0.4656,-0.6092,-0.7741,-0.9533,-1.1007,-1.2492,0.0,0.0,0.0,0.0,0.0,0.0,0.0,0.0,0.0,0.0,0.0,0.0,0.0,0.0,0.0,0.0,0.0,0.0,0.0,0.0,0.0,0.0,0.0,0.0,0.0,0.0,0.0,0.0,0.159,0.1571,0.1461,0.0,0.0,0.0,0.0,0.0,0.0,0.0,0.0,0.0,0.0,-0.1487,-0.3121,-0.4795,-0.659,-0.8702,-1.0538,-1.24,-1.4218,-1.5486,-1.656,-1.7524,0.0,0.0,0.0,0.0,0.0,0.0,0.0,0.0,0.0,0.0,0.0,0.0,0.0,0.0,0.0,0.0,0.0,0.0,0.0,0.0,0.0,0.0,0.0,0.0,0.0,0.0,0.0,0.0,0.0,0.0,0.0,0.0,0.0,0.0,0.0,0.0,0.0,0.0,0.0,0.0,0.0,0.0,0.0,0.0,0.0,0.0,0.0,0.0,0.0,0.0,0.0,0.0,0.0,-0.0698,-0.0984,-0.2395,-0.3921,-0.5458,-0.6789,-0.8277,-0.9961,-1.1157,-1.2531,-1.41,0.0,0.0,0.0,0.0,0.0,0.0,0.0,0.0,0.0,0.0,0.0,0.0,0.0,0.0,0.0,0.0,0.0,0.0,0.0,0.0,0.0,0.0,0.0,0.0,0.0,0.0,0.1441,0.1264,0.1066,0.0,0.0,0.0,0.0,0.0,0.0,0.0,0.0,0.0,0.0,-0.0521,-0.1662,-0.339,-0.5176,-0.6874,-0.8296,-1.0477,-1.2381,-1.3587,-1.4757,-1.5985,0.0,0.0,0.0,0.0,0.0,0.0,0.0,0.0,0.0,0.0,0.0,0.0,0.0,0.0,0.0,0.0,0.0,0.0,0.0,0.0,0.0,0.0,0.0,0.0,0.0,0.0,0.0,-0.4105,-0.3948,0.0,0.0,0.0,0.0,0.0,0.0,0.0,0.0,0.0,0.0,0.0,-0.5746,-0.6334,0.0,0.0,0.0,0.0,0.0,0.0,0.0,0.0,0.0,0.0,0.0,0.0,-0.2086,-0.234,-0.3527,-0.4852,-0.6126,-0.7399,-0.8797,-1.0364,-1.1566,-1.3148,-1.5174,0.0,0.0,0.0,0.0,0.0,0.0,0.0,0.0,0.0,0.0,0.0,0.0,0.0,0.0,0.0,0.0,0.0,0.0,0.0,0.0,0.0,0.0,0.0,0.0,0.0,0.0505,0.0,0.0,0.0,0.0,0.0,0.0,0.0,0.0,0.0,0.0,0.0,0.0763,-0.0087,-0.0704,-0.1689,-0.3396,-0.4912,-0.6511,0.0,0.0,0.0,0.0,0.0,0.0,0.0,0.0,0.0,0.0,0.0,0.0,0.0,0.0,-1.6198,-1.5782,-1.53,-1.4911,-1.4745,0.0,0.0,0.0,0.0,0.0,0.0,0.0,0.0,0.0,0.0,0.0,0.0,0.0,0.0,0.0,0.0,-0.4033,0.0,0.0,0.0,0.0,0.0,0.0,0.0,0.0,-0.5602,-0.6229,-0.6773,-0.7307,-0.7745,0.0,-0.8074,-0.7656,0.0,0.0,0.0,0.0,0.0,0.0,0.0,0.0,-0.342,-0.3474,-0.4694,-0.5793,-0.6905,-0.8092,-0.9363,-1.0864,-1.2434,-1.4075,-1.5788,-1.6921,-1.7785,0.0,0.0,0.0,0.0,0.0,0.0,0.0,0.0,0.0,0.0,0.0,0.0,0.0,0.0,0.0,0.0,0.0,0.0,0.0,0.0,0.0,0.0,0.0,0.0119,0.0,0.0,0.0,0.0,0.0,0.0,0.0,0.0,0.0,0.0875,0.0755,0.0349,-0.0527,-0.1156,-0.2061,-0.358,0.0,0.0,0.0,0.0,0.0,0.0,0.0,-1.5361,-1.6397,-1.685,-1.7079,-1.7175,-1.6903,-1.6795,-1.7369,0.0,0.0,-1.6876,-1.6481,-1.6163,-1.6078,-1.557,-1.5194,-1.518,-1.467,-1.4145,0.0,0.0,0.0,0.0,0.0,0.0,0.0,0.0,-0.5707,-0.5521,0.0,-0.4525,0.0,0.0,0.0,0.0,0.0,0.0,0.0,0.0,-0.6377,-0.6984,-0.7368,-0.8368,-0.8879,-0.8941,-0.9,-0.8782,-0.8371,-0.7119,0.0,0.0,0.0,0.0,0.0,0.0,-0.4622,-0.4601,-0.5791,-0.6837,-0.7717,-0.8849,-1.0092,-1.1458,-1.369,-1.522,-1.5988,-1.6964,-1.7625,-1.795,-1.9,0.0,0.0,0.0,0.0,0.0,0.0,0.0,0.0,0.0,0.0,0.0,0.0,0.0,0.0,0.0,0.0,0.0,0.0,0.0,0.0,-0.0598,0.0,0.0,0.0,0.0,0.0,0.0,0.0,0.0,0.0,0.0,0.0519,0.0261,-0.0263,-0.0984,0.0,0.0,0.0,0.0,-0.6587,-0.7998,-0.9483,-1.1037,-1.2425,-1.3521,-1.4583,-1.5705,0.0,0.0,-1.6735,-1.6551,-1.6463,-1.6639,-1.6919,-1.7374,-1.8279,-1.7887,-1.7499,-1.7491,-1.698,-1.6614,-1.6568,-1.6149,-1.5831,-0.7083,0.0,0.0,0.0,0.0,-0.7793,-0.7407,-0.7034,-0.6449,-0.6028,-0.5786,-0.4851,0.0,0.0,0.0,0.0,0.0,0.0,-0.5722,-0.6389,-0.7055,-0.7609,-0.7951,-0.8422,-0.878,-0.9004,-0.9278,-0.9123,-0.8644,-0.8217,-0.7522,-0.6335,0.0,0.0,0.0,0.0,-0.5837,-0.5759,-0.6759,-0.76,-0.8362,-0.934,-1.0754,-1.2618,-1.4318,-1.5445,-1.5988,-1.6976,-1.8041,-1.9146,-1.935,0.0,0.0,0.0,0.0,0.0,0.0,0.0,0.0,0.0,0.0,0.0,0.0,0.0,0.0,0.0,0.0,0.0,0.0,0.0,-0.1775,-0.1449,-0.1129,0.0,0.0,0.0,0.0,0.0,0.0,0.0,0.0,0.0,-0.0347,-0.0441,-0.0713,0.0,0.0,-0.2543,-0.3769,-0.4918,-0.6051,-0.7407,0.0,0.0,0.0,-1.2893,-1.3999,-1.4802,-1.5542,-1.6197,-1.6463,-1.6463,-1.6544,-1.6881,-1.7072,-1.7324,-1.7833,-1.7736,-1.7489,-1.7458,-1.7133,-1.6846,-1.6815,-1.656,-1.616,-0.7007,-0.7525,-0.7849,-0.8053,-0.8159,-0.8101,-0.7805,-0.7368,-0.6841,-0.6419,-0.611,-0.5352,-0.5165,-0.5425,-0.4662,0.0,0.0,0.0,-0.6394,-0.6893,-0.7591,-0.8016,-0.8191,-0.8598,-0.887,-0.8996,-0.9252,-0.9164,-0.869,-0.8747,-0.8267,-0.7257,0.0,0.0,-0.6214,-0.653,-0.6719,-0.6713,-0.7448,-0.8191,-0.8896,-1.0254,-1.1805,-1.3447,-1.4709,-1.5591,-1.6175,-1.7268,-1.8323,-1.9325,-1.9935,-2.04,0.0,0.0,0.0,0.0,0.0,0.0,0.0,0.0,0.0,0.0,0.0,-0.8971,-0.7676,0.0,0.0,0.0,-0.4139,-0.3321,-0.2475,-0.2263,0.0,0.0,0.0,0.0,0.0,0.0,0.0,-0.0926,-0.1006,-0.1089,-0.1113,-0.1041,-0.105,-0.1487,-0.199,-0.266,-0.3685,0.0,-0.5859,-0.7102,-0.8258,-0.9447,-1.0805,-1.1946,-1.2939,-1.3858,-1.4719,-1.5218,-1.5362,-1.5518,-1.573,-1.6042,-1.6186,-1.6437,-1.6854,-1.6862,-1.686,-1.7212,-1.693,-1.6526,-1.6676,-1.6393,-1.6006,-0.6497,-0.7015,-0.7778,-0.8032,-0.7875,-0.7886,-0.7801,-0.7436,-0.69,-0.6697,-0.6506,-0.5917,-0.567,-0.5494,-0.522,0.0,0.0,-0.6222,-0.6595,-0.6912,-0.7758,-0.8166,-0.8074,-0.8733,-0.8964,-0.8999,-0.9029,-0.8866,-0.8679,-0.8831,-0.8586,-0.8032,-0.7483,-0.7237,-0.7256,-0.7194,-0.7286,-0.7478,-0.8012,-0.8696,-0.9577,-1.1466,-1.2938,-1.3978,-1.4846,-1.5712,-1.6479,-1.7735,-1.858,-1.8987,-2.0566,-2.106,-2.0205,0.0,0.0,0.0,0.0,0.0,0.0,0.0,0.0,0.0,0.0,0.0,0.0,0.0,0.0,0.0,-0.4967,0.0,-0.3391,-0.3049,0.0,0.0,0.0,-0.181,-0.159,-0.1544,-0.1501,-0.138,0.0,0.0,-0.1672,0.0,-0.1426,-0.1669,-0.2259,-0.3017,-0.3849,-0.4758,-0.5753,-0.6719,-0.7714,-0.8783,-1.0014,-1.0961,-1.1876,-1.2969,-1.3703,-1.4052,-1.387,-1.4146,-1.4406,-1.4592,-1.4873,-1.5165,-1.5526,-1.565,-1.5904,-1.6833,-1.6393,-1.5976,-1.622,-1.6012,-1.5726,-0.5895,-0.6242,-0.6906,-0.7481,-0.8053,-0.7993,-0.7791,-0.7413,-0.7047,-0.6644,-0.6207,-0.5877,-0.5532,-0.5243,-0.5559,-0.5712,-0.5712,-0.6382,-0.6783,-0.7,-0.7745,-0.8147,-0.8293,-0.8772,-0.8926,-0.8774,-0.9124,-0.8929,-0.8384,-0.8512,-0.8468,-0.8174,-0.7808,-0.7711,-0.7837,-0.7886,-0.7966,-0.8145,-0.8638,-0.9559,-1.0964,-1.2227,-1.3294,-1.4201,-1.5085,-1.5888,-1.6637,-1.785,-1.8897,-1.9633,-2.0643,-2.123,-2.1365,-2.0968,0.0,0.0,0.0,0.0,0.0,0.0,0.0,0.0,0.0,-1.0431,-0.9479,0.0,-0.7972,0.0,-0.5521,-0.4571,-0.4024,-0.3704,0.0,0.0,-0.2409,-0.2151,-0.189,-0.1647,-0.1446,-0.1537,-0.1362,-0.1359,-0.1636,-0.1477,-0.1458,-0.1957,-0.2325,-0.2867,-0.3518,-0.4506,-0.5325,-0.5874,-0.6976,-0.8051,-0.9132,-1.0509,-1.175,-1.2576,-1.3,-1.3279,-1.329,-1.352,-1.3844,-1.4129,-1.4313,-1.4522,-1.4814,-1.4887,-1.4959,-1.5229,-1.5265,-1.5348,-1.5315,-1.538,-1.551,-0.5274,-0.5482,-0.5942,-0.6433,-0.6813,-0.7248,-0.7259,-0.6908,-0.6824,-0.6477,-0.5987,-0.5698,-0.5347,-0.5121,-0.5605,-0.5855,-0.5874,-0.6533,-0.6908,-0.7086,-0.7813,-0.8111,-0.8005,-0.8458,-0.8538,-0.8264,-0.8584,-0.8548,-0.818,-0.8316,-0.832,-0.8177,-0.8045,-0.8051,-0.8167,-0.8072,-0.806,-0.8214,-0.8897,-0.9811,-1.0963,-1.2111,-1.3196,-1.4159,-1.5138,-1.6064,-1.6892,-1.8342,-1.938,-1.9998,-2.1021,-2.1541,-2.1541,-2.1006,-2.0308,0.0,0.0,0.0,0.0,0.0,0.0,0.0,0.0,0.0,0.0,0.0,-0.8847,0.0,-0.6264,0.0,-0.4738,-0.4322,-0.3893,-0.3174,-0.2803,-0.2411,-0.2125,-0.1754,-0.1557,-0.1545,-0.1291,-0.1278,-0.1448,-0.1361,-0.142,-0.1835,-0.2176,-0.2605,-0.3321,-0.4128,-0.4919,-0.5445,-0.6346,-0.7422,-0.859,-0.9926,-1.1042,-1.1665,-1.2234,-1.2594,-1.268,-1.3107,-1.3404,-1.3628,-1.3737,-1.3924,-1.4065,-1.4172,-1.4132,-1.4013,-1.4109,-1.4471,-1.495,-1.5161,-1.5227,-0.4528,-0.4691,-0.4957,-0.5113,-0.514,-0.606,-0.6331,-0.6243,-0.6286,-0.606,-0.5686,-0.5415,-0.5194,-0.5092,-0.543,-0.5756,-0.5979,-0.6597,-0.6914,-0.7017,-0.7827,-0.793,-0.7456,-0.8014,-0.8079,-0.7752,-0.8012,-0.814,-0.807,-0.8164,-0.8234,-0.8229,-0.8166,-0.8201,-0.8329,-0.8061,-0.7961,-0.8097,-0.8982,-0.9802,-1.0481,-1.1736,-1.2951,-1.4024,-1.5151,-1.6231,-1.7203,-1.8789,-1.9819,-2.018,-2.137,-2.1746,-2.118,-2.0709,-2.0055,0.0,-1.8278,0.0,0.0,0.0,0.0,0.0,0.0,0.0,0.0,-1.0682,-0.9604,-0.7787,-0.71,-0.6342,-0.5409,-0.4937,-0.4406,-0.361,-0.3163,-0.2712,-0.2303,-0.1913,-0.158,-0.1436,-0.1196,-0.1181,-0.1334,-0.1235,-0.123,-0.168,-0.1906,-0.2278,-0.2949,-0.3776,-0.4522,-0.5156,-0.5943,-0.7068,-0.8293,-0.9246,-0.9979,-1.0539,-1.1158,-1.1696,-1.1778,-1.2291,-1.2829,-1.2766,-1.2907,-1.3163,-1.3352,-1.337,-1.3282,-1.3028,-1.3052,-1.3493,-1.4457,-1.4743,-1.4866,-0.3671,-0.3967,-0.4139,-0.4218,-0.4277,-0.4348,-0.4666,-0.5162,-0.5524,-0.5339,-0.4727,-0.4794,-0.4821,-0.4737,-0.5141,-0.5328,-0.5457,-0.5852,-0.6173,-0.643,-0.6867,-0.7022,-0.706,-0.7716,-0.7972,-0.785,-0.8178,-0.827,-0.8109,-0.8114,-0.8199,-0.83,-0.7937,-0.7882,-0.8057,0.0,0.0,0.0,-0.933,-1.0092,-1.0892,-1.1973,-1.3052,-1.4111,-1.5119,0.0,-1.7384,-1.8648,-1.956,-2.0093,-2.0839,0.0,0.0,0.0,0.0,0.0,0.0,0.0,0.0,0.0,0.0,0.0,-1.341,-1.2986,-1.1737,-1.0341,-0.9241,-0.8542,-0.7688,-0.6752,-0.5831,-0.512,-0.449,-0.3894,-0.3162,-0.2701,-0.2502,-0.1979,-0.1584,-0.1452,-0.1184,-0.1136,-0.1317,-0.1255,-0.1251,-0.16,-0.1823,-0.2019,-0.2327,-0.325,-0.4061,-0.4576,-0.5823,-0.7074,-0.7872,-0.8443,-0.8983,-0.9478,-0.9777,-1.009,-1.0274,-1.0641,-1.1005,-1.1145,-1.136,-1.1721,-1.2109,-1.2253,-1.2337,-1.2242,-1.2456,-1.2843,-1.3288,-1.3621,-1.3949,-0.2598,0.0,-0.297,-0.2994,0.0,-0.3138,-0.3224,-0.3528,-0.4444,-0.4538,-0.4114,-0.422,-0.4283,-0.4229,-0.4577,-0.4787,-0.4865,-0.5297,-0.5652,-0.5851,-0.6368,-0.6551,-0.6497,-0.7254,-0.7406,-0.7177,-0.7553,-0.7715,-0.7617,-0.7657,-0.7762,-0.7905,-0.7779,-0.7765,-0.7942,-0.8011,-0.8186,-0.855,-0.9065,-0.9624,-1.0335,-1.1381,-1.2519,-1.3685,0.0,0.0,0.0,0.0,0.0,0.0,0.0,0.0,0.0,0.0,0.0,-1.8375,-1.7897,-1.7016,-1.5701,-1.5365,-1.4649,-1.3376,-1.2562,-1.1946,-1.152,-1.0211,-0.9207,-0.869,-0.7788,-0.6824,-0.595,-0.5246,-0.4585,-0.391,-0.325,-0.2804,-0.2574,-0.2041,-0.1579,-0.1509,-0.1221,-0.1088,-0.1183,-0.1027,-0.1019,-0.1224,-0.1421,-0.1554,-0.1881,-0.2741,-0.3687,-0.4375,-0.5296,-0.6354,-0.7016,-0.7555,-0.8081,-0.8587,-0.9137,-0.9581,-0.9823,-1.0228,-1.0548,-1.0814,-1.1004,-1.1209,-1.1445,-1.1584,-1.1642,-1.1773,-1.19,-1.2145,-1.2471,-1.2934,-1.3376,-0.1634,-0.1848,-0.1874,-0.1927,-0.2004,-0.2064,-0.2012,-0.2018,0.0,0.0,0.0,-0.354,-0.3589,-0.3579,-0.3908,-0.4095,-0.4287,-0.4772,-0.5081,-0.5277,-0.5841,-0.6079,-0.5944,-0.6519,-0.6714,-0.6494,-0.6845,-0.7072,-0.7152,-0.7302,-0.7446,-0.7631,-0.7714,-0.7863,-0.7941,-0.8136,-0.8263,-0.8419,-0.8683,-0.9128,-0.9677,-1.0734,-1.1819,-1.2973,-1.4051,-1.5205,-1.6484,-1.7286,-1.7909,-1.828,-1.8681,-1.8921,-1.8879,-1.8536,-1.8064,-1.7656,-1.7323,-1.6774,-1.5869,-1.5179,-1.4305,-1.3243,-1.1737,-1.0864,-1.1014,-0.9971,-0.9146,-0.8597,-0.7692,-0.679,-0.5967,-0.5307,-0.4639,-0.3872,-0.3253,-0.2839,-0.2627,-0.1972,-0.1566,-0.1497,-0.1185,-0.0975,-0.0918,-0.0826,-0.0742,-0.0821,-0.0953,-0.1124,-0.1578,-0.2447,-0.3378,-0.4123,-0.481,-0.5426,-0.6142,-0.6641,-0.7225,-0.7889,-0.855,-0.911,-0.9612,-0.9988,-1.0329,-1.0464,-1.0755,-1.087,-1.1053,-1.1127,-1.124,-1.1352,-1.14,-1.1495,-1.1765,-1.2225,-1.2696,-0.0835,-0.0981,-0.1146,-0.1276,-0.1301,-0.1144,-0.1206,-0.1484,-0.2182,-0.2506,-0.2489,-0.2664,-0.2785,-0.2783,-0.3236,-0.3558,-0.3742,-0.3948,-0.4294,0.0,-0.4745,-0.4923,-0.5206,-0.5602,-0.5967,-0.6271,-0.6661,-0.7043,-0.7338,-0.7522,-0.7773,-0.7977,-0.8028,-0.807,-0.8139,-0.7958,-0.7976,-0.8248,-0.872,-0.9297,-0.9941,-1.0753,-1.1531,-1.224,-1.3107,-1.4217,-1.5676,-1.6093,-1.6761,-1.7733,-1.7857,-1.7895,-1.7739,-1.7373,-1.6962,-1.6514,-1.6011,-1.5426,-1.4854,-1.4238,-1.3332,-1.2083,-1.1554,-1.1131,-1.0641,-0.9509,-0.8663,-0.827,-0.7414,-0.6614,-0.5708,-0.5075,-0.4423,-0.3692,-0.2981,-0.2475,-0.2303,-0.1754,-0.1381,-0.1173,-0.1031,-0.0865,-0.0767,-0.0703,-0.0637,-0.0645,-0.0812,-0.1165,-0.1668,-0.2451,-0.3142,-0.3635,-0.4244,-0.5032,-0.5652,-0.5986,-0.6473,-0.725,-0.748,-0.784,-0.8249,-0.8688,-0.9055,-0.914,-0.9613,-0.9972,-1.0282,-1.0631,-1.0794,-1.0903,-1.1012,-1.1094,-1.1116,-1.1295,-1.1609,0.0126,-0.0064,-0.0125,-0.0251,-0.0385,-0.0246,-0.0243,-0.0368,-0.0663,-0.1254,-0.2074,-0.1952,-0.1986,-0.2171,-0.2257,-0.2502,-0.285,-0.306,-0.3324,-0.3638,-0.3948,-0.4292,-0.4642,-0.5112,-0.5524,-0.5881,-0.6272,-0.6632,-0.6904,-0.7173,-0.7397,-0.7688,-0.7744,-0.7749,-0.771,-0.7725,-0.7842,-0.8106,-0.8557,-0.9027,-0.9554,-1.0361,-1.1125,-1.1943,-1.2509,-1.3361,-1.4526,-1.4707,-1.5222,-1.6032,-1.6068,-1.624,-1.6598,-1.6367,-1.6139,-1.5895,-1.5506,-1.5039,-1.4523,-1.3431,-1.2245,-1.1009,-1.0758,-1.0301,-0.9484,-0.8878,-0.836,-0.7995,-0.7063,-0.6186,-0.5549,-0.4984,-0.4267,-0.3585,-0.2979,-0.2511,-0.2181,-0.1692,-0.1263,-0.1064,-0.086,-0.0677,-0.063,-0.05,-0.0435,-0.038,-0.0598,-0.0862,-0.1275,-0.1794,-0.2422,-0.3074,-0.3682,-0.4262,-0.4898,-0.53,-0.5806,-0.6466,-0.6833,-0.7198,-0.7515,-0.7937,-0.8315,-0.8639,-0.8942,-0.9313,-0.978,-1.0,-1.0219,-1.0498,-1.0551,-1.0665,-1.0802,-1.1023,-1.1302,0.1046,0.0881,0.0856,0.0732,0.0615,0.0706,0.0688,0.0682,0.0665,0.0,-0.1065,-0.1033,-0.1189,-0.1407,-0.1363,-0.1579,-0.1936,-0.2245,-0.2518,-0.2761,-0.3238,-0.3681,-0.4105,-0.463,-0.5009,-0.5407,-0.577,-0.6072,-0.6319,-0.6578,-0.6922,-0.7268,-0.7407,-0.7416,-0.7376,-0.7536,-0.7705,-0.7913,-0.8201,-0.8612,-0.9059,-0.974,-1.0464,-1.1308,-1.1701,-1.2374,-1.3236,-1.338,-1.3709,-1.4266,-1.4336,-1.4577,-1.5188,-1.5231,-1.5134,-1.5042,-1.4818,-1.446,-1.3879,-1.2885,-1.1631,-1.0397,-1.0098,-0.9482,-0.8455,-0.805,-0.7812,-0.7496,-0.6583,-0.5754,-0.5218,-0.4684,-0.4022,-0.329,-0.2803,-0.2363,-0.201,-0.1538,-0.1126,-0.0883,-0.0622,-0.0438,-0.038,-0.0209,-0.0152,-0.0201,-0.0297,-0.0443,-0.0744,-0.1046,-0.1591,-0.2325,-0.2932,-0.3506,-0.4171,-0.4691,-0.5187,-0.5727,-0.6282,-0.6761,-0.7079,-0.7515,-0.7949,-0.8315,-0.8646,-0.8962,-0.9361,-0.9577,-0.9799,-1.0192,-1.0355,-1.0478,-1.0828,-1.1124,-1.1276,0.1842,0.1648,0.1545,0.1499,0.152,0.1616,0.1637,0.1592,0.1579,0.1381,0.0945,0.0213,-0.0213,-0.0464,-0.0764,-0.1014,-0.1215,-0.1714,-0.2007,-0.2198,-0.2573,-0.3008,-0.3451,-0.3851,-0.426,-0.4674,-0.5057,-0.5424,-0.578,-0.6021,-0.6419,-0.6981,-0.7214,-0.7392,-0.749,-0.734,-0.7389,-0.7643,-0.7679,-0.8008,-0.8621,-0.8904,-0.9336,-0.9956,-1.0314,-1.1015,-1.2103,-1.2207,-1.2535,-1.3098,-1.3153,-1.3198,-1.331,-1.3532,-1.3615,-1.3394,-1.3355,-1.3066,-1.2473,-1.2455,-1.1827,-1.0686,-0.994,-0.9106,-0.7949,-0.7174,-0.6759,-0.6661,-0.611,-0.5341,-0.4668,-0.4113,-0.3572,-0.2787,-0.2335,-0.1864,-0.1465,-0.1133,-0.0823,-0.0412,-0.031,-0.0204,0.0,0.0101,0.0099,0.0192,0.0188,0.0,-0.0333,-0.0478,-0.0736,-0.1463,-0.2193,-0.2983,-0.3594,-0.4184,-0.4684,-0.5124,-0.5677,-0.6159,-0.6588,-0.7085,-0.7628,-0.7895,-0.8374,-0.8745,-0.9061,-0.9427,-0.9792,-0.9991,-1.0257,-1.0573,-1.082,-1.1074,-1.1226,0.2391,0.2366,0.2382,0.2395,0.2468,0.2571,0.26,0.2613,0.2613,0.2484,0.2342,0.1878,0.1198,0.0403,0.0148,-0.0097,-0.0438,-0.0808,-0.1081,-0.1312,-0.1759,-0.2211,-0.2592,-0.304,-0.3511,-0.4077,-0.4433,-0.4899,-0.5429,-0.6013,-0.6392,-0.6587,-0.685,-0.6961,-0.6844,-0.6842,-0.6924,-0.7018,-0.7089,-0.727,-0.7625,-0.8384,-0.9023,-0.9368,-0.9561,-0.9985,-1.0739,-1.086,-1.1222,-1.2024,-1.2139,-1.2297,-1.2584,-1.269,-1.2632,-1.2446,-1.1871,-1.1239,-1.0544,-1.0468,-1.0083,-0.9291,-0.9055,-0.839,-0.7235,-0.6801,-0.6425,-0.5724,-0.5233,-0.4773,-0.4206,-0.3629,-0.3034,-0.2478,-0.2008,-0.1537,-0.1112,-0.0655,-0.0302,0.0,0.0198,0.0341,0.0534,0.0668,0.0656,0.0645,0.0633,0.0498,0.0183,0.0046,-0.0188,-0.0542,-0.1116,-0.1847,-0.2756,-0.3466,-0.3965,-0.4405,-0.4956,-0.55,-0.5941,-0.649,-0.6982,-0.7359,-0.7842,-0.8321,-0.8685,-0.8956,-0.9271,-0.9629,-1.0198,-1.0522,-1.0667,-1.0871,-1.1074,0.3071,0.3068,0.3166,0.329,0.3311,0.351,0.3535,0.3553,0.355,0.3541,0.345,0.3256,0.263,0.1672,0.1224,0.0838,0.0413,0.0089,-0.0218,-0.0517,-0.1002,-0.1398,-0.176,-0.231,-0.2853,-0.3344,-0.3755,-0.4269,-0.4862,-0.5583,-0.5881,-0.5873,-0.6089,-0.6129,-0.5963,-0.6099,-0.6257,-0.6318,-0.6432,-0.652,-0.6701,-0.7555,-0.8228,-0.8622,-0.8766,-0.8989,-0.9407,-0.9462,-0.9762,-1.0386,-1.0639,-1.0962,-1.1328,-1.1528,-1.1661,-1.1557,-1.0686,-0.9862,-0.9228,-0.8829,-0.8452,-0.8087,-0.7936,-0.7404,-0.6555,-0.6228,-0.5624,-0.4638,-0.4278,-0.3962,-0.3714,-0.3171,-0.2611,-0.204,-0.1589,-0.109,-0.0586,-0.0146,0.0244,0.0536,0.076,0.0983,0.112,0.1235,0.126,0.1168,0.1166,0.1074,0.0851,0.0673,0.0546,0.0284,0.0,-0.0722,-0.191,-0.2619,-0.3125,-0.3572,-0.4122,-0.4736,-0.5175,-0.5723,-0.6273,-0.6647,-0.7133,-0.7616,-0.809,-0.8415,-0.885,-0.9413,-0.988,-1.0198,-1.036,-1.0565,-1.0769,0.3969,0.391,0.4058,0.4104,0.4077,0.44,0.4492,0.4409,0.4485,0.4464,0.4368,0.4268,0.3968,0.3402,0.2459,0.1708,0.1229,0.0885,0.0535,0.0079,-0.0314,-0.0705,-0.1098,-0.1646,-0.2146,-0.2498,-0.2921,-0.342,-0.3986,-0.4382,-0.4594,-0.4623,-0.4846,-0.4929,-0.4989,-0.5136,-0.5308,-0.5579,-0.5626,-0.5781,-0.6044,-0.6137,-0.6609,-0.7392,-0.7738,-0.7895,-0.802,-0.813,-0.8061,-0.7731,-0.8427,-0.8844,-0.9018,-0.9864,-1.0404,-1.0498,-0.9857,-0.923,-0.8805,-0.8124,-0.7595,-0.728,-0.6712,-0.6161,-0.5621,-0.5063,-0.4418,-0.3554,-0.3203,-0.3012,-0.3004,-0.263,-0.2117,-0.1389,-0.0954,-0.0423,0.0227,0.0501,0.0856,0.1177,0.1404,0.1582,0.1758,0.1798,0.1837,0.1835,0.1792,0.1748,0.1657,0.1567,0.1412,0.1224,0.0928,0.0356,-0.0954,-0.1648,-0.212,-0.2567,-0.3067,-0.3849,-0.4343,-0.4838,-0.5391,-0.5941,-0.6426,-0.6907,-0.7439,-0.7978,-0.8514,-0.8988,-0.9295,-0.9562,-0.9725,-1.0043,-1.0249,0.4509,0.4642,0.482,0.4997,0.5163,0.538,0.5548,0.5604,0.569,0.5728,0.5689,0.5397,0.5081,0.4757,0.4079,0.3152,0.2085,0.1762,0.1428,0.1091,0.0605,0.0298,0.0037,-0.0579,-0.1067,-0.1448,-0.1912,-0.2514,-0.3215,-0.3622,-0.3865,-0.3951,-0.4112,-0.4283,-0.4336,-0.4408,-0.4508,-0.4617,-0.4638,-0.4697,-0.4805,-0.4874,-0.5066,-0.539,-0.6166,-0.6706,-0.7,-0.6905,-0.6876,-0.7049,-0.7245,-0.7381,-0.7557,-0.8166,-0.8484,-0.844,-0.81,-0.7656,-0.7101,-0.6591,-0.6181,-0.5911,-0.5425,-0.4929,-0.4409,-0.3963,-0.3433,-0.2718,-0.2314,-0.2029,-0.1653,-0.1589,-0.1348,-0.0781,-0.0274,0.0228,0.0765,0.1165,0.1523,0.1923,0.2279,0.2635,0.2763,0.281,0.281,0.2807,0.2763,0.2674,0.263,0.2541,0.2471,0.2377,0.217,0.1862,0.1374,-0.0054,-0.0949,-0.1396,-0.1898,-0.2512,-0.3065,-0.3564,-0.4061,-0.4725,-0.5324,-0.5869,-0.6288,-0.6999,-0.7587,-0.8019,-0.833,-0.8659,-0.9047,-0.9197,-0.951,0.514,0.5432,0.561,0.5867,0.6209,0.6374,0.6577,0.6661,0.6689,0.6719,0.6647,0.6376,0.6015,0.564,0.5264,0.4407,0.3158,0.2811,0.2432,0.1999,0.1636,0.1409,0.1156,0.0612,0.0134,-0.0332,-0.1015,-0.1687,-0.2246,-0.2623,-0.2824,-0.2887,-0.3068,-0.3164,-0.3209,-0.3284,-0.3356,-0.339,-0.3417,-0.3446,-0.3483,-0.3555,-0.353,-0.3567,-0.4177,-0.489,-0.5538,-0.5415,-0.538,-0.5544,-0.5717,-0.5937,-0.6253,-0.6552,-0.6734,-0.6694,-0.6409,-0.6021,-0.5584,-0.5125,-0.475,-0.4487,-0.4127,-0.3696,-0.3218,-0.2956,-0.2455,-0.1786,-0.135,-0.0915,-0.0382,-0.0257,-0.0173,0.0133,0.0536,0.1072,0.1609,0.2057,0.2499,0.2937,0.3378,0.369,0.3865,0.3906,0.3909,0.3906,0.3858,0.3811,0.3811,0.3727,0.3686,0.3656,0.3556,0.3456,0.3191,0.2308,0.0988,0.0387,-0.039,-0.1059,-0.1561,-0.2117,-0.273,-0.3453,-0.4058,-0.4604,-0.5257,-0.591,-0.6342,-0.672,-0.7101,-0.7427,-0.7806,-0.8243,-0.8442,0.591,0.6265,0.6422,0.6703,0.7093,0.7293,0.7423,0.7401,0.7494,0.7393,0.7232,0.7095,0.6555,0.6018,0.5836,0.5268,0.4419,0.4012,0.3477,0.2835,0.2705,0.2596,0.2402,0.1852,0.1276,0.078,-0.0249,-0.0829,-0.0994,-0.13,-0.1467,-0.1426,-0.1494,-0.1567,-0.1504,-0.1667,-0.1757,-0.1868,-0.1918,-0.2013,-0.213,-0.2049,-0.1938,-0.1883,-0.1868,-0.2383,-0.3526,-0.364,-0.3534,-0.3237,-0.3732,-0.4375,-0.4896,-0.508,-0.5247,-0.5312,-0.492,-0.4639,-0.4475,-0.389,-0.3404,-0.3086,-0.2844,-0.2497,-0.2158,-0.1839,-0.1348,-0.07,-0.0273,0.0196,0.0748,0.1185,0.1345,0.1185,0.1504,0.2079,0.2716,0.3205,0.369,0.4256,0.46,0.4726,0.4957,0.5125,0.5163,0.5168,0.5158,0.5191,0.5234,0.5191,0.5158,0.5145,0.507,0.5043,0.4943,0.4716,0.3456,0.23,0.1329,0.0501,0.0167,-0.0333,-0.089,-0.1555,-0.2275,-0.2821,-0.3429,-0.4081,-0.4529,-0.4961,-0.5517,-0.5901,-0.6225,-0.6597,-0.7036,0.6471,0.6707,0.6789,0.7047,0.7348,0.7602,0.7833,0.7997,0.7826,0.7754,0.7658,0.7199,0.6786,0.6526,0.6314,0.5868,0.5325,0.531,0.4885,0.4101,0.383,0.376,0.3692,0.3091,0.2305,0.1483,0.0875,0.0494,0.0297,0.0023,-0.0112,-0.011,-0.0153,-0.0219,-0.024,-0.0262,-0.0289,-0.0316,-0.0294,-0.0282,-0.0276,-0.0284,-0.0268,-0.0225,-0.0201,-0.0321,-0.0506,-0.1473,-0.1949,-0.1898,-0.2017,-0.2458,-0.3073,-0.3218,-0.3359,-0.3704,-0.3525,-0.3202,-0.2908,-0.2577,-0.2177,-0.1771,-0.1399,-0.1032,-0.0699,-0.0352,0.0072,0.0624,0.1034,0.1493,0.1965,0.2482,0.2533,0.1927,0.2415,0.2964,0.363,0.4409,0.5077,0.5599,0.5936,0.6228,0.6476,0.6603,0.6729,0.6723,0.68,0.6835,0.6835,0.6829,0.6835,0.682,0.6729,0.6706,0.6705,0.6776,0.6201,0.4927,0.3794,0.2705,0.2156,0.1662,0.1053,0.0388,-0.0277,-0.0885,-0.1548,-0.2044,-0.2426,-0.2872,-0.3254,-0.3747,-0.4303,-0.4736,-0.4992,0.7049,0.7213,0.7328,0.7605,0.793,0.8049,0.8154,0.829,0.8008,0.787,0.7797,0.7447,0.7157,0.6992,0.6844,0.6478,0.6078,0.6275,0.6094,0.5508,0.4929,0.4787,0.4756,0.4117,0.3391,0.2647,0.2244,0.1947,0.1704,0.1488,0.1338,0.1317,0.1255,0.1252,0.1247,0.1271,0.1293,0.1378,0.14,0.1435,0.1496,0.1525,0.1508,0.1527,0.1572,0.1682,0.1804,0.092,0.017,-0.0298,-0.045,-0.0727,-0.1252,-0.1265,-0.1402,-0.1733,-0.1728,-0.1528,-0.1307,-0.1014,-0.0718,-0.0258,0.0163,0.0563,0.0929,0.1227,0.1587,0.2038,0.2433,0.2818,0.3254,0.3743,0.3827,0.3565,0.366,0.4067,0.4719,0.5644,0.6397,0.6902,0.7353,0.7747,0.8049,0.8204,0.8367,0.8399,0.8512,0.8576,0.8576,0.8608,0.8616,0.8568,0.8512,0.8502,0.8508,0.8648,0.882,0.7764,0.654,0.5415,0.4551,0.4014,0.3465,0.2754,0.2033,0.1649,0.1097,0.066,0.0275,-0.0275,-0.0715,-0.1155,-0.1535,-0.2088,-0.2411,0.7616,0.7737,0.7896,0.8216,0.8635,0.8477,0.8383,0.8409,0.8101,0.7862,0.778,0.7744,0.7608,0.7363,0.7319,0.7101,0.6769,0.6835,0.7018,0.681,0.6262,0.5738,0.5472,0.5002,0.4519,0.4079,0.379,0.3509,0.3219,0.3039,0.2916,0.2869,0.2822,0.2833,0.2934,0.2904,0.2975,0.3152,0.3103,0.3109,0.3216,0.3293,0.3329,0.3399,0.3439,0.349,0.3535,0.3381,0.2707,0.1507,0.1062,0.088,0.0741,0.074,0.0545,0.024,0.0352,0.0335,0.0355,0.0612,0.1003,0.1375,0.1831,0.2264,0.2586,0.2917,0.3216,0.3561,0.3889,0.4274,0.468,0.5131,0.5467,0.5715,0.5295,0.5389,0.6185,0.701,0.7562,0.8127,0.8733,0.9301,0.9588,0.9762,0.9993,1.0137,1.029,1.0384,1.0411,1.0439,1.0432,1.0421,1.0371,1.0367,1.036,1.0923,1.1075,1.0669,0.9531,0.8538,0.7117,0.64,0.6047,0.5338,0.4789,0.4308,0.3932,0.3647,0.3271,0.283,0.2342,0.1807,0.1368,0.0926,0.0598,0.8103,0.802,0.7694,0.7822,0.8176,0.7984,0.8049,0.8166,0.7909,0.7841,0.7853,0.7689,0.7626,0.7546,0.7656,0.7618,0.7577,0.7635,0.7693,0.7738,0.7536,0.6993,0.649,0.6086,0.5714,0.5341,0.5098,0.4915,0.4716,0.4612,0.4546,0.4536,0.4499,0.4499,0.4518,0.4557,0.4678,0.4772,0.4772,0.4772,0.4856,0.4877,0.4905,0.4924,0.4987,0.5131,0.5349,0.5395,0.4533,0.2851,0.256,0.2454,0.2365,0.237,0.2276,0.2121,0.213,0.2141,0.2132,0.224,0.2581,0.3129,0.3437,0.3842,0.4474,0.4716,0.4978,0.5287,0.5632,0.5907,0.6225,0.6674,0.7174,0.7579,0.7078,0.6895,0.7568,0.8131,0.8595,0.8979,0.9778,1.0414,1.084,1.1393,1.1835,1.2024,1.2154,1.2247,1.2224,1.2258,1.2247,1.2282,1.227,1.2224,1.2411,1.3035,1.334,1.3331,1.2686,1.1978,1.036,0.8873,0.8653,0.8358,0.8037,0.7653,0.7333,0.7026,0.6565,0.6158,0.5747,0.5299,0.4797,0.4364,0.4087,0.8308,0.8035,0.7866,0.7904,0.8016,0.7885,0.7968,0.8102,0.7951,0.7924,0.8029,0.796,0.7931,0.8051,0.8162,0.8265,0.8322,0.8396,0.8428,0.846,0.844,0.7965,0.7351,0.7032,0.6812,0.6551,0.6402,0.6286,0.6145,0.6077,0.6036,0.6012,0.6058,0.6046,0.6067,0.61,0.6179,0.6261,0.6257,0.6286,0.6335,0.6348,0.6319,0.6348,0.6373,0.6524,0.6673,0.6685,0.59,0.4587,0.4139,0.4082,0.4004,0.3972,0.3933,0.3814,0.3822,0.381,0.3816,0.3906,0.4302,0.4874,0.5181,0.5715,0.6299,0.6614,0.6807,0.7022,0.7329,0.7568,0.7822,0.825,0.8779,0.92,0.8967,0.8741,0.8848,0.9191,0.9587,1.0136,1.0995,1.1838,1.212,1.2961,1.348,1.3754,1.3856,1.392,1.397,1.4033,1.402,1.4006,1.3975,1.3956,1.4055,1.458,1.5301,1.5349,1.5815,1.5145,1.3628,1.1837,1.1597,1.152,1.1248,1.1005,1.067,1.0368,1.0122,0.9738,0.9327,0.8919,0.8494,0.8044,0.7688,0.8361,0.7812,0.8164,0.8225,0.8106,0.8019,0.808,0.8237,0.8138,0.8174,0.83,0.8407,0.8516,0.8683,0.8768,0.8866,0.8947,0.8987,0.9074,0.9095,0.9085,0.8748,0.82,0.794,0.7785,0.7641,0.7658,0.7545,0.7416,0.7373,0.7359,0.7329,0.7329,0.7415,0.7428,0.7456,0.7528,0.7568,0.7512,0.7512,0.7568,0.757,0.7568,0.7553,0.757,0.7586,0.7631,0.7603,0.7096,0.6015,0.5809,0.5646,0.5604,0.5533,0.548,0.5394,0.5376,0.5361,0.5391,0.5511,0.5971,0.6578,0.6993,0.7561,0.816,0.8447,0.8566,0.8741,0.8984,0.9195,0.9478,0.9879,1.0259,1.0619,1.0796,1.0549,1.0132,1.0236,1.0647,1.1084,1.2304,1.3063,1.3669,1.4284,1.4965,1.524,1.5384,1.5454,1.5495,1.5508,1.5536,1.5579,1.5594,1.5624,1.5796,1.6069,1.6801,1.7379,1.838,1.8172,1.6797,1.5504,1.5038,1.4693,1.4325,1.4127,1.3983,1.3737,1.3502,1.324,1.2797,1.2593,1.2373,1.1921,1.1519,0.838,0.7817,0.7768,0.792,0.8059,0.796,0.8079,0.8321,0.8425,0.8573,0.8734,0.8887,0.9014,0.9159,0.9233,0.9305,0.9364,0.9429,0.9492,0.9577,0.9638,0.9584,0.923,0.8903,0.8649,0.8577,0.8527,0.8498,0.8464,0.8424,0.8464,0.8419,0.8375,0.8498,0.8527,0.8494,0.8572,0.8605,0.8577,0.8544,0.856,0.856,0.8572,0.8566,0.8566,0.8594,0.8594,0.8599,0.8443,0.808,0.7495,0.7054,0.6963,0.6916,0.6857,0.6782,0.6749,0.6731,0.6722,0.6819,0.7236,0.8214,0.8496,0.893,1.0107,1.0179,1.0278,1.0423,1.0564,1.0767,1.1051,1.1322,1.1572,1.1851,1.2018,1.2101,1.1998,1.1621,1.1518,1.1866,1.2659,1.3489,1.4264,1.5142,1.5876,1.6531,1.6816,1.6906,1.6938,1.6929,1.6913,1.6856,1.6873,1.6873,1.7061,1.7467,1.8339,1.9121,2.0179,2.0882,1.9533,1.8756,1.8135,1.7692,1.7363,1.718,1.6902,1.6771,1.6467,1.6358,1.6153,1.5831,1.5533,1.5349,1.5169,0.8237,0.7821,0.7891,0.7972,0.8057,0.816,0.8313,0.8546,0.879,0.9005,0.9175,0.9296,0.9417,0.9536,0.9603,0.9659,0.9738,0.9812,0.9857,0.9889,0.9929,0.9929,0.9914,0.965,0.94,0.9293,0.9242,0.9216,0.9189,0.918,0.9153,0.918,0.9189,0.9198,0.9268,0.9259,0.925,0.9266,0.9275,0.9258,0.9276,0.9276,0.9268,0.9276,0.9266,0.9284,0.9268,0.9284,0.9257,0.9153,0.879,0.8382,0.8132,0.8074,0.8021,0.797,0.7944,0.7906,0.788,0.8247,0.8828,0.9682,1.0019,1.0774,1.1458,1.1688,1.1759,1.1871,1.1951,1.2124,1.2367,1.253,1.2727,1.2871,1.3009,1.3175,1.3191,1.2731,1.2374,1.277,1.372,1.4543,1.5352,1.6109,1.6931,1.765,1.7807,1.7904,1.7942,1.7965,1.8003,1.7986,1.802,1.809,1.8281,1.8853,1.9869,2.0686,2.1603,2.2206,2.1936,2.1457,2.1098,2.0416,1.961,1.9736,1.9544,1.9455,1.9258,1.9075,1.8837,1.8741,1.8534,1.8209,1.8086,0.8017,0.7829,0.8124,0.8181,0.815,0.844,0.8688,0.89,0.9136,0.9323,0.9528,0.9625,0.9705,0.9849,0.9895,0.9963,1.0023,1.0063,1.0066,1.0077,1.008,1.008,1.007,1.0025,0.9924,0.9787,0.9738,0.97,0.9674,0.9686,0.9647,0.9668,0.9706,0.9706,0.9744,0.975,0.9726,0.9726,0.9707,0.9726,0.9726,0.9732,0.9732,0.9713,0.9719,0.9719,0.9732,0.9725,0.9749,0.9774,0.9754,0.9527,0.9214,0.8986,0.8937,0.8897,0.887,0.8939,0.9168,0.9619,1.0233,1.0971,1.1602,1.2288,1.2788,1.2925,1.2958,1.3025,1.3091,1.3174,1.3352,1.3415,1.3556,1.3704,1.3845,1.3984,1.3997,1.3643,1.3476,1.3559,1.4446,1.5362,1.6253,1.7099,1.795,1.8627,1.8751,1.882,1.8855,1.8855,1.8802,1.8819,1.8783,1.88,1.8963,1.999,2.1025,2.1679,2.2645,2.3283,2.3666,2.331,2.2712,2.2229,2.1742,2.1714,2.1669,2.1457,2.1356,2.1461,2.128,2.0911,2.0868,2.0923,2.0768,0.7906,0.7734,0.8018,0.8234,0.8452,0.8779,0.9019,0.9202,0.9321,0.9507,0.9747,0.9837,0.9914,1.0024,1.0067,1.0096,1.0139,1.0163,1.0176,1.0182,1.0183,1.0185,1.018,1.0193,1.0159,1.0136,1.0052,1.0005,0.9987,1.0011,0.9963,1.0011,1.0011,1.002,1.0011,1.001,0.9991,1.001,0.9995,0.9999,1.0014,1.0004,1.0016,1.0005,0.999,1.0013,1.0013,1.0033,1.0044,1.0021,1.0043,0.9987,0.9853,0.965,0.9603,0.9529,0.957,0.9791,1.0294,1.0674,1.1488,1.2387,1.2891,1.3249,1.3725,1.3894,1.3837,1.3873,1.3917,1.401,1.4093,1.4113,1.4205,1.4329,1.4379,1.4521,1.4584,1.4561,1.4492,1.4568,1.5322,1.6146,1.7078,1.7904,1.8591,1.9118,1.9257,1.9337,1.9351,1.9383,1.9397,1.9425,1.9452,1.9497,1.9561,2.0867,2.1967,2.2322,2.3161,2.4129,2.4448,2.4485,2.4148,2.3502,2.3189,2.3075,2.3093,2.3111,2.3025,2.2805,2.2858,2.2888,2.2688,2.2463,2.2516,0.7912,0.7998,0.8235,0.8514,0.8773,0.9099,0.9295,0.9461,0.9584,0.9744,0.9887,0.9972,1.004,1.0128,1.0147,1.0193,1.0233,1.0243,1.0247,1.0248,1.025,1.025,1.0248,1.0265,1.026,1.0232,1.0226,1.0172,1.0167,1.015,1.0147,1.0143,1.0143,1.0147,1.0135,1.0125,1.0135,1.0141,1.0147,1.0153,1.0153,1.0144,1.0154,1.0157,1.0144,1.0166,1.0163,1.0148,1.015,1.0156,1.0178,1.0164,1.0234,1.0404,1.0394,1.0114,1.0312,1.0674,1.1305,1.1822,1.2865,1.3375,1.3815,1.4191,1.4448,1.4522,1.4482,1.4511,1.4521,1.4578,1.4597,1.4616,1.4682,1.4746,1.4827,1.5093,1.5434,1.5571,1.5679,1.5772,1.6419,1.7179,1.7925,1.8644,1.9243,1.9575,1.9745,1.9813,1.9824,1.9824,1.9824,1.9828,1.982,1.9852,2.0131,2.1371,2.2375,2.2806,2.3648,2.4633,2.5008,2.4953,2.491,2.4598,2.4433,2.4163,2.4166,2.4076,2.4096,2.4079,2.397,2.3897,2.3971,2.4008,2.3897,0.8065,0.8322,0.8579,0.8835,0.9106,0.9331,0.9512,0.9661,0.9831,0.9948,1.0016,1.0096,1.0158,1.0213,1.0237,1.0269,1.0311,1.0293,1.0293,1.0293,1.0293,1.0293,1.0312,1.0312,1.031,1.0287,1.0299,1.0251,1.0243,1.0227,1.0202,1.0177,1.02,1.02,1.0185,1.0212,1.0207,1.0213,1.0199,1.0205,1.0212,1.0219,1.0223,1.022,1.0226,1.0227,1.0225,1.0227,1.021,1.0231,1.0271,1.037,1.0566,1.1133,1.1208,1.0884,1.1329,1.1668,1.2278,1.2962,1.379,1.4188,1.4717,1.4947,1.4967,1.4927,1.4933,1.4959,1.4945,1.4919,1.4938,1.4978,1.5139,1.5364,1.5466,1.5707,1.6386,1.6808,1.7142,1.735,1.7708,1.8062,1.8637,1.9248,1.9802,1.9869,2.0031,2.006,2.0069,2.0078,2.0078,2.0105,2.0103,2.0129,2.0634,2.1688,2.2455,2.2838,2.3953,2.5138,2.5301,2.5309,2.5244,2.5149,2.509,2.4846,2.4929,2.4905,2.4769,2.469,2.4796,2.4777,2.4685,2.4666,2.4615,0.839,0.8667,0.8868,0.9101,0.9358,0.9514,0.9647,0.9794,0.9929,1.0016,1.0099,1.0229,1.0282,1.0284,1.0293,1.029,1.0287,1.0305,1.0302,1.0283,1.0302,1.0304,1.0307,1.031,1.0312,1.0312,1.0307,1.0299,1.0284,1.0297,1.0252,1.0209,1.0185,1.0189,1.0205,1.0256,1.0287,1.0292,1.0279,1.0285,1.0289,1.0292,1.0293,1.0293,1.0293,1.0293,1.0273,1.0293,1.0292,1.029,1.0328,1.0675,1.1216,1.1391,1.1937,1.2259,1.2656,1.2964,1.3504,1.3981,1.4437,1.4832,1.5184,1.5248,1.5218,1.5163,1.5154,1.5166,1.5166,1.5152,1.5163,1.522,1.5594,1.6024,1.6333,1.684,1.7478,1.7722,1.8095,1.86,1.8836,1.8847,1.9123,1.9733,2.0272,2.0272,2.0272,2.0272,2.0272,2.0272,2.028,2.0268,2.0282,2.0302,2.0785,2.1881,2.2579,2.2908,2.42,2.5467,2.5499,2.5506,2.5506,2.5427,2.5391,2.5332,2.5244,2.5216,2.5225,2.5196,2.5168,2.5178,2.5207,2.5226,2.5188,0.8824,0.8923,0.9157,0.9322,0.9524,0.9684,0.9819,0.9917,1.0008,1.0099,1.0166,1.0263,1.0305,1.0312,1.0324,1.0279,1.0254,1.0247,1.0245,1.0229,1.0248,1.0253,1.0301,1.0307,1.0311,1.0312,1.031,1.0322,1.0314,1.0266,1.0258,1.0211,1.0189,1.0191,1.0118,1.0261,1.031,1.032,1.0308,1.0312,1.0312,1.0292,1.029,1.029,1.0267,1.0227,1.0227,1.0322,1.032,1.0393,1.0661,1.11,1.1698,1.2338,1.3194,1.3452,1.4036,1.4209,1.4159,1.457,1.4958,1.5208,1.5358,1.5346,1.5353,1.5335,1.5303,1.5313,1.5306,1.5322,1.5458,1.5776,1.6175,1.6632,1.7167,1.7858,1.839,1.8565,1.8893,1.9458,1.988,1.9748,1.9653,2.0006,2.0396,2.039,2.039,2.0396,2.0396,2.0402,2.0408,2.0413,2.0418,2.0448,2.1021,2.1852,2.2673,2.3271,2.4496,2.5469,2.5605,2.563,2.5625,2.5605,2.5546,2.5504,2.548,2.5446,2.543,2.5444,2.5485,2.5459,2.5432,2.546,2.5421,0.9218,0.9247,0.9394,0.9534,0.9673,0.9857,0.9963,1.003,1.0082,1.0158,1.0219,1.0284,1.0312,1.0305,1.0293,1.0263,1.0197,1.0189,1.0189,1.0193,1.0199,1.0224,1.0254,1.0283,1.0309,1.031,1.031,1.0148,0.9946,0.9956,0.9962,1.0166,1.0185,1.0034,0.9923,0.9835,0.9786,0.9429,0.9453,0.9472,0.951,0.9526,0.9543,0.9598,0.9654,0.965,0.9651,0.959,0.9568,1.0047,1.0623,1.1162,1.1973,1.3101,1.3975,1.4348,1.4868,1.4939,1.4823,1.4972,1.5349,1.541,1.541,1.5388,1.5401,1.5415,1.541,1.5403,1.5401,1.5496,1.5791,1.6339,1.6928,1.7437,1.8026,1.873,1.9316,1.9413,1.9567,1.9936,2.0263,2.0333,2.0292,2.0395,2.05,2.0506,2.0506,2.0506,2.0506,2.0487,2.0487,2.0463,2.0467,2.0515,2.0936,2.1667,2.2512,2.3536,2.4774,2.5499,2.5629,2.5687,2.5668,2.5668,2.5648,2.564,2.5595,2.5605,2.56,2.5571,2.5565,2.5605,2.5615,2.5628,2.5621,0.9524,0.956,0.9597,0.9673,0.9781,0.9935,1.0035,1.009,1.0177,1.0185,1.0217,1.0273,1.0306,1.0296,1.0238,1.0219,1.0195,1.02,1.0183,1.019,1.0195,1.0209,1.0226,1.0259,1.0268,1.0194,1.0096,0.97,0.9262,0.9096,0.9513,1.009,1.0183,0.9721,0.9614,0.9799,0.9362,0.8923,0.8672,0.8358,0.8239,0.8118,0.8113,0.805,0.7968,0.7887,0.7908,0.8121,0.8681,0.9353,1.0241,1.1441,1.262,1.3691,1.4487,1.4957,1.52,1.5271,1.5246,1.5245,1.5352,1.5418,1.5406,1.541,1.541,1.5408,1.5405,1.5382,1.542,1.5811,1.6241,1.6828,1.7688,1.8313,1.8899,1.9427,1.9935,2.0169,2.0325,2.0519,2.0573,2.0547,2.0519,2.0522,2.0506,2.0515,2.0508,2.0508,2.0511,2.0492,2.0496,2.0496,2.0499,2.0565,2.0692,2.1516,2.2728,2.3631,2.4654,2.53,2.5668,2.569,2.569,2.5687,2.5668,2.5687,2.5687,2.5658,2.5629,2.564,2.5644,2.5655,2.5665,2.5651,2.5664,0.9632,0.9727,0.9761,0.9807,0.9862,1.0005,1.008,1.0124,1.018,1.0227,1.0271,1.029,1.0278,1.0243,1.0205,1.0202,1.0194,1.0191,1.0188,1.0188,1.0197,1.0195,1.0215,1.0115,1.0068,0.9625,0.9453,0.9037,0.8269,0.8354,0.9159,0.9775,1.0202,1.0066,0.996,1.0427,1.0245,0.951,0.9101,0.8884,0.7767,0.7684,0.7697,0.769,0.7688,0.7687,0.7726,0.7702,0.8512,0.9537,1.0479,1.1873,1.3247,1.4256,1.488,1.5257,1.5349,1.5397,1.5407,1.5407,1.542,1.5413,1.5403,1.5388,1.5351,1.541,1.5058,1.5097,1.5663,1.6365,1.5934,1.7303,1.8709,1.9276,1.9744,2.0175,2.0389,2.0546,2.0603,2.0601,2.0598,2.0593,2.0568,2.054,2.0528,2.0516,2.051,2.0506,2.0506,2.051,2.0513,2.0516,2.0519,2.0639,2.0784,2.1842,2.3035,2.3842,2.4608,2.5174,2.5701,2.5701,2.5701,2.5701,2.5701,2.5703,2.5683,2.5666,2.5661,2.5671,2.5676,2.5685,2.5691,2.5696,2.5701,0.9715,0.985,0.9929,0.9944,0.9946,1.0044,1.0106,1.0128,1.0174,1.0239,1.0312,1.0305,1.0253,1.0213,1.019,1.0194,1.0186,1.0199,1.0196,1.0196,1.0202,1.0044,0.993,0.9716,0.9381,0.8802,0.8535,0.8162,0.7356,0.7832,0.8524,0.9392,1.0438,1.0829,1.082,1.1328,1.1458,1.0605,1.0175,0.941,0.7959,0.7698,0.7149,0.6986,0.6752,0.6749,0.6961,0.7287,0.8374,0.969,1.1042,1.2523,1.3764,1.4733,1.5206,1.533,1.5365,1.5401,1.541,1.5404,1.5416,1.541,1.5416,1.5285,1.5171,1.5408,1.5585,1.4922,1.6035,1.6894,1.6406,1.8203,1.9316,1.9805,2.0117,2.0488,2.0508,2.0605,2.0605,2.0604,2.0601,2.0597,2.0572,2.0525,2.0453,2.0461,2.0516,2.0513,2.0516,2.05,2.0506,2.0528,2.0531,2.0692,2.0931,2.2103,2.3218,2.4046,2.4772,2.5317,2.5689,2.5689,2.5689,2.5687,2.5689,2.5693,2.5694,2.5675,2.5693,2.5689,2.5694,2.5698,2.5701,2.5702,2.5703,0.9844,0.9908,1.002,1.0054,1.0005,1.0071,1.0135,1.0175,1.0213,1.0244,1.0293,1.0305,1.0253,1.0213,1.0188,1.0188,1.0193,1.0199,1.0196,1.0199,0.9977,0.9643,0.9256,0.8968,0.8577,0.7924,0.7656,0.7285,0.6481,0.7839,0.8339,0.9406,1.1155,1.244,1.1544,1.0807,1.0467,1.0371,1.0505,0.9563,0.8442,0.8083,0.7396,0.6772,0.6514,0.6704,0.6938,0.7697,0.8803,1.0045,1.1638,1.3031,1.4173,1.4911,1.5283,1.5326,1.5355,1.5397,1.5417,1.5418,1.5414,1.5346,1.5296,1.5085,1.4836,1.5386,1.6229,1.5467,1.6933,1.8164,1.8711,1.9258,1.9804,2.0176,2.0488,2.0605,2.0605,2.0605,2.0605,2.0604,2.0602,2.0599,2.0555,2.0508,2.0414,2.0405,2.048,2.0422,2.0227,2.0275,2.0202,2.0321,2.0363,2.0955,2.1347,2.2361,2.3361,2.4207,2.4913,2.5439,2.5694,2.5694,2.5694,2.5693,2.5696,2.5698,2.5699,2.57,2.57,2.5701,2.5701,2.5703,2.5703,2.5702,2.5698,0.9925,1.0035,1.0091,1.0109,1.014,1.0147,1.0177,1.02,1.0236,1.0271,1.0292,1.0323,1.0268,1.0209,1.0144,1.0141,1.0141,1.0183,1.0196,1.0073,0.9623,0.9253,0.8808,0.8222,0.7673,0.7061,0.6756,0.6406,0.5566,0.7553,0.8873,0.996,1.252,1.4155,1.4139,1.3643,1.3319,1.2226,1.185,1.1197,0.9662,0.9341,0.9024,0.8305,0.822,0.816,0.8141,0.8962,0.9917,1.106,1.2673,1.3509,1.4555,1.5313,1.5355,1.5378,1.5404,1.5396,1.5418,1.5409,1.5414,1.5249,1.4924,1.4986,1.5694,1.5618,1.5933,1.6579,1.7889,1.8691,1.8496,1.9648,2.0273,2.041,2.0605,2.0605,2.0605,2.0605,2.0604,2.0602,2.0601,2.0539,2.0494,2.0039,1.987,1.9534,1.9453,1.9233,1.9019,1.9439,1.9604,1.9879,2.0155,2.0958,2.1762,2.2621,2.3562,2.4467,2.5072,2.5559,2.5697,2.5698,2.5698,2.5698,2.5699,2.5701,2.5702,2.5703,2.5703,2.5702,2.5702,2.5682,2.568,2.5673,2.5683,1.0016,1.0097,1.0121,1.0154,1.0188,1.0183,1.0224,1.0242,1.0286,1.0312,1.031,1.0302,1.0265,1.0144,0.9909,0.9751,0.9726,0.9379,0.9266,0.9218,0.8767,0.8239,0.7851,0.7515,0.677,0.6177,0.5911,0.5623,0.5391,0.7538,0.9879,1.2279,1.4212,1.4937,1.5172,1.496,1.4726,1.3823,1.3578,1.2881,1.1659,1.1047,1.0732,1.0185,0.9991,1.003,1.0304,1.085,1.1594,1.2659,1.3476,1.412,1.5051,1.5381,1.5404,1.541,1.5421,1.5412,1.5414,1.5416,1.5266,1.4861,1.436,1.485,1.5967,1.601,1.65,1.7341,1.8786,1.9139,1.9258,2.0429,2.0469,2.0605,2.0605,2.0605,2.0605,2.0605,2.0604,2.0602,2.0599,2.0516,2.0197,1.9667,1.921,1.8778,1.8347,1.8108,1.8008,1.8664,1.9179,1.9474,2.0158,2.1159,2.1961,2.2703,2.3685,2.4704,2.5231,2.566,2.57,2.5701,2.5701,2.5702,2.5702,2.5703,2.5703,2.5702,2.5699,2.5696,2.5693,2.5691,2.5666,2.4814,2.3966,1.0101,1.0117,1.0167,1.0191,1.0193,1.021,1.0254,1.028,1.0289,1.0312,1.0308,1.0241,1.007,0.9926,0.9266,0.8878,0.88,0.8135,0.7975,0.7782,0.7714,0.7205,0.6791,0.6454,0.5965,0.545,0.5204,0.5405,0.5506,0.8261,1.1523,1.4043,1.4902,1.5331,1.5388,1.5345,1.5206,1.4942,1.4751,1.4053,1.3103,1.2842,1.2259,1.1677,1.1293,1.1257,1.1572,1.2219,1.2786,1.3603,1.4403,1.5026,1.5416,1.5416,1.5418,1.5407,1.5416,1.542,1.5403,1.5405,1.5309,1.494,1.4471,1.475,1.5498,1.6441,1.7282,1.8261,1.957,2.0078,2.0566,2.0566,2.0566,2.0605,2.0605,2.0605,2.0605,2.0605,2.0605,2.0603,2.0601,2.0382,1.971,1.9158,1.8492,1.7769,1.7359,1.7183,1.7318,1.8414,1.8869,1.9163,2.0045,2.1396,2.2237,2.3039,2.3999,2.5097,2.5351,2.5702,2.5703,2.5703,2.5703,2.5703,2.5703,2.5703,2.5701,2.5697,2.5691,2.5603,2.4959,2.3702,2.3064,2.1312,2.0065,1.014,1.0177,1.0191,1.0193,1.0215,1.025,1.0278,1.0285,1.0312,1.0312,1.0288,0.9634,0.9426,0.9273,0.8441,0.8089,0.7879,0.7749,0.7667,0.7397,0.6896,0.66,0.6245,0.583,0.5378,0.5192,0.5102,0.5146,0.5873,0.861,1.1187,1.3199,1.4854,1.5215,1.534,1.5329,1.5348,1.5365,1.5345,1.4924,1.4584,1.436,1.384,1.3552,1.3347,1.3353,1.3712,1.4017,1.4469,1.4803,1.5085,1.5418,1.542,1.542,1.5422,1.5403,1.5407,1.5407,1.5409,1.5409,1.541,1.547,1.5314,1.5552,1.626,1.7143,1.8181,1.9296,2.0,2.043,2.0605,2.0604,2.0604,2.0604,2.0604,2.0604,2.0604,2.0604,2.0603,2.0562,2.056,1.9972,1.9301,1.8519,1.7835,1.6935,1.6389,1.6274,1.6683,1.7799,1.8503,1.8778,2.0243,2.1692,2.2709,2.3531,2.4491,2.5371,2.5566,2.5703,2.5703,2.5702,2.5702,2.5702,2.57,2.5698,2.5693,2.5685,2.5676,2.4191,2.3335,2.1776,2.014,1.7773,1.5627,1.016,1.019,1.0239,1.024,1.0239,1.0287,1.031,1.0312,1.0312,1.0135,0.9739,0.9242,0.882,0.8361,0.7628,0.7165,0.7082,0.6631,0.6451,0.6294,0.6143,0.5903,0.5605,0.5422,0.5197,0.5089,0.5094,0.5117,0.6058,0.8438,1.1151,1.2902,1.4533,1.5157,1.531,1.5272,1.5265,1.5288,1.5303,1.5295,1.5291,1.5291,1.5295,1.5307,1.5319,1.5355,1.5387,1.5407,1.5414,1.5418,1.5407,1.5409,1.5409,1.5409,1.541,1.5412,1.5413,1.5413,1.5353,1.4981,1.5451,1.5901,1.6078,1.6509,1.6943,1.769,1.8903,2.0038,2.0332,2.0605,2.0604,2.0602,2.0602,2.0601,2.0601,2.0601,2.0601,2.0601,2.0561,2.052,2.0147,1.956,1.8854,1.8034,1.7195,1.6338,1.5869,1.5774,1.6301,1.7316,1.7942,1.8294,2.0209,2.2086,2.3005,2.3866,2.4726,2.539,2.5605,2.5702,2.5699,2.5697,2.5697,2.5694,2.5689,2.5685,2.5681,2.5668,2.5426,2.3973,2.17,1.8883,1.602,1.2332,1.0301,1.0195,1.0199,1.0287,1.0301,1.0311,1.0312,1.0253,1.0211,1.0114,0.9761,0.913,0.8808,0.8212,0.7522,0.6714,0.633,0.6139,0.5743,0.5546,0.5155,0.5334,0.5303,0.527,0.5104,0.5091,0.5097,0.5177,0.5353,0.629,0.8527,1.1069,1.2798,1.4454,1.5225,1.5251,1.5217,1.5206,1.5215,1.5231,1.5255,1.5279,1.5284,1.5293,1.5315,1.5338,1.5381,1.5402,1.5414,1.5407,1.5409,1.5412,1.5413,1.5413,1.5413,1.5415,1.5415,1.5418,1.5221,1.5121,1.4807,1.51,1.5685,1.6291,1.7327,1.8093,1.8569,1.9704,2.0253,2.0547,2.0604,2.0602,2.0601,2.0598,2.0599,2.0598,2.0598,2.0598,2.0601,2.0582,2.0521,2.0286,1.9601,1.8528,1.7727,1.7063,1.601,1.5483,1.5426,1.6189,1.7185,1.7732,1.824,2.0506,2.2441,2.3105,2.3964,2.4823,2.5369,2.5602,2.5697,2.5691,2.5689,2.5687,2.5681,2.5651,2.5668,2.5662,2.5648,2.5342,2.4335,2.1381,1.6534,1.2397,0.8379,0.504,1.0222,1.0276,1.0285,1.031,1.0312,1.0312,0.99,0.9331,0.9308,0.9167,0.8771,0.7695,0.6967,0.6627,0.5898,0.5535,0.5386,0.5319,0.5143,0.5101,0.5101,0.5105,0.5091,0.5096,0.5101,0.5101,0.5256,0.5886,0.7121,0.9073,1.1011,1.2656,1.4274,1.5149,1.5158,1.514,1.5133,1.514,1.5159,1.5195,1.5215,1.526,1.5294,1.5283,1.5292,1.5265,1.5265,1.5284,1.5353,1.5418,1.5403,1.5404,1.5403,1.5383,1.5382,1.5401,1.5242,1.4968,1.4614,1.463,1.5155,1.613,1.7146,1.8477,1.938,1.9759,2.0095,2.0429,2.0605,2.0604,2.0601,2.0598,2.0596,2.0596,2.0597,2.0597,2.0597,2.0599,2.0601,2.0484,2.0347,1.9488,1.8375,1.7555,1.6813,1.6188,1.5641,1.5662,1.6582,1.75,1.8125,1.8984,2.1211,2.2832,2.3435,2.4154,2.5069,2.5436,2.5625,2.5681,2.5696,2.5687,2.5658,2.5632,2.5625,2.5621,2.5632,2.5628,2.5166,2.4496,1.9724,1.4268,0.9764,0.5653,0.1601,0.9906,1.0285,1.0312,1.0312,1.0312,1.031,0.9799,0.9032,0.8578,0.8203,0.7791,0.6853,0.6203,0.5902,0.5289,0.5106,0.5093,0.5107,0.5103,0.5101,0.5099,0.5099,0.5103,0.5087,0.5107,0.5163,0.5987,0.6899,0.8065,1.0082,1.1951,1.2819,1.4169,1.5061,1.5052,1.5052,1.5064,1.5057,1.5059,1.5069,1.5107,1.516,1.526,1.5255,1.5016,1.4892,1.4625,1.4545,1.4262,1.4269,1.4174,1.4194,1.4271,1.4543,1.4504,1.4424,1.4364,1.4459,1.4027,1.4217,1.5032,1.6027,1.6978,1.7935,1.9429,1.9809,2.0285,2.0583,2.0605,2.0605,2.0602,2.0599,2.0598,2.0598,2.0599,2.0601,2.0601,2.0603,2.0605,2.0566,2.0234,1.955,1.8613,1.8086,1.7461,1.7305,1.6641,1.6562,1.7363,1.822,1.8728,1.9704,2.195,2.3277,2.3895,2.4612,2.5425,2.5651,2.5655,2.5644,2.5636,2.5643,2.5634,2.5586,2.5581,2.5595,2.559,2.5579,2.556,2.5137,1.8806,1.1605,0.7502,0.3846,-0.02,0.9524,1.0252,1.0312,1.0308,1.0305,1.0284,0.9713,0.8788,0.8061,0.7141,0.6377,0.6241,0.5744,0.5324,0.5098,0.5093,0.5087,0.5103,0.5099,0.5076,0.5074,0.5074,0.5074,0.5076,0.5317,0.5895,0.6734,0.7745,0.8821,1.0901,1.2376,1.2983,1.3932,1.4976,1.4976,1.4976,1.5003,1.4908,1.4901,1.4868,1.4935,1.4991,1.497,1.4781,1.443,1.4001,1.369,1.3395,1.2936,1.3,1.3178,1.3218,1.3334,1.3685,1.3527,1.3466,1.395,1.3713,1.3281,1.3526,1.4381,1.5275,1.6203,1.751,1.9063,1.9895,2.0354,2.0558,2.0584,2.0605,2.0605,2.0603,2.0602,2.0601,2.0602,2.0604,2.0605,2.0605,2.0586,2.0605,2.0156,1.9551,1.9043,1.8514,1.8299,1.8162,1.8122,1.8199,1.849,1.9365,2.0064,2.1054,2.2691,2.3742,2.4266,2.4921,2.5632,2.5632,2.5615,2.5595,2.5579,2.5568,2.5576,2.5538,2.5531,2.5512,2.5525,2.5518,2.5499,2.5506,1.7844,1.0935,0.8556,0.4539,-0.0871,0.9511,1.0312,1.0308,1.0324,1.0301,1.0253,0.9369,0.8061,0.7775,0.6852,0.5705,0.537,0.5188,0.5088,0.5098,0.5091,0.508,0.5078,0.5051,0.5025,0.5025,0.5023,0.5153,0.5416,0.5977,0.6775,0.7778,0.903,1.025,1.1777,1.3134,1.4273,1.4352,1.485,1.485,1.483,1.477,1.4636,1.4221,1.3999,1.4035,1.4092,1.4178,1.3898,1.348,1.3195,1.2965,1.2891,1.288,1.2885,1.2789,1.2731,1.2886,1.3021,1.2999,1.315,1.3614,1.3492,1.3292,1.3829,1.4742,1.5129,1.6253,1.7732,1.901,1.9873,2.026,2.0504,2.0555,2.0583,2.0605,2.0605,2.0605,2.0604,2.0604,2.0605,2.0605,2.0586,2.0585,2.0583,2.0445,1.9899,1.941,1.9057,1.8901,1.8763,1.8586,1.8797,1.9957,2.0714,2.1411,2.2471,2.361,2.3938,2.4343,2.5016,2.5591,2.5585,2.5531,2.5473,2.5452,2.549,2.5476,2.5453,2.5426,2.5406,2.5418,2.5437,2.5461,2.4322,1.6669,1.0654,0.869,0.4777,-0.1034]}]]